[[{"header":{"parameterUnit":"m.s-1","parameterCategory":1,"la1":30.6,"la2":28.766,"lo1":-90.7593,"lo2":-88.6598,"dy":0.0162,"dx":0.0183,"nx":116,"ny":114,"refTime":"2023-05-15T12:00:00:Z","depth":0,"parameterNumber":2,"parameterNumberName":"U-component_of_WINDS"},"data":[0.0,0.0,0.0,0.0,0.0,0.0,0.0,0.0,0.0,0.0,0.0,0.0,0.0,0.0,0.0,0.0,0.0,0.0,0.0,0.0,0.0,0.0,0.0,0.0,0.0,0.0,0.0,0.0,0.0,0.0,0.0,0.0,0.0,0.0,0.0,0.0,0.0,0.0,0.0,0.0,0.0,0.0,0.0,0.0,0.0,0.0,0.0,0.0,0.0,0.0,0.0,0.0,0.0,0.0,0.0,0.0,0.0,0.0,0.0,0.0,0.0,0.0,0.0,0.0,0.0,0.0,0.0,0.0,0.0,0.0,0.0,0.0,0.0,0.0,0.0,0.0,0.0,0.0,0.0,0.0,0.0,0.0,0.0,0.0,0.0,0.0,0.0,0.0,0.0,0.0,0.0,0.0,0.0,0.0,0.0,0.0,0.0,0.0,0.0,0.0,0.0,0.0,0.0,0.0,0.0,0.0,0.0,0.0,0.0,0.0,0.0,0.0,0.0,0.0,0.0,0.0,0.0,0.0,0.0,0.0,0.0,0.0,0.0,0.0,0.0,0.0,0.0,0.0,0.0,0.0,0.0,0.0,0.0,0.0,0.0,0.0,0.0,0.0,0.0,0.0,0.0,0.0,0.0,0.0,0.0,0.0,0.0,0.0,0.0,0.0,0.0,0.0,0.0,0.0,0.0,0.0,0.0,0.0,0.0,0.0,0.0,0.0,0.0,0.0,0.0,0.0,0.0,0.0,0.0,0.0,0.0,0.0,0.0,0.0,0.0,0.0,0.0,0.0,0.0,0.0,0.0,0.0,0.0,0.0,0.0,0.0,0.0,0.0,0.0,0.0,0.0,0.0,0.0,0.0,0.0,0.0,0.0,0.0,0.0,0.0,0.0,0.0,0.0,0.0,0.0,0.0,0.0,0.0,0.0,0.0,0.0,0.0,0.0,0.0,0.0,0.0,0.0,0.0,0.0,0.0,0.0,0.0,0.0,0.0,0.0,0.0,0.0,0.0,0.0,0.0,0.0,0.0,0.0,0.0,0.0,0.0,0.0,0.0,0.0,0.0,0.0,0.0,0.0,0.0,0.0,0.0,0.0,0.0,0.0,0.0,0.0,0.0,0.0,0.0,0.0,0.0,0.0,0.0,0.0,0.0,0.0,0.0,0.0,0.0,0.0,0.0,0.0,0.0,0.0,0.0,0.0,0.0,0.0,0.0,0.0,0.0,0.0,0.0,0.0,0.0,0.0,0.0,0.0,0.0,0.0,0.0,0.0,0.0,0.0,0.0,0.0,0.0,0.0,0.0,0.0,0.0,0.0,0.0,0.0,0.0,0.0,0.0,0.0,0.0,0.0,0.0,0.0,0.0,0.0,0.0,0.0,0.0,0.0,0.0,0.0,0.0,0.0,0.0,0.0,0.0,0.0,0.0,0.0,0.0,0.0,0.0,0.0,0.0,0.0,0.0,0.0,0.0,0.0,0.0,0.0,0.0,0.0,0.0,0.0,0.0,0.0,0.0,0.0,0.0,0.0,0.0,0.0,0.0,0.0,0.0,0.0,0.0,0.0,0.0,0.0,0.0,0.0,0.0,0.0,0.0,0.0,0.0,0.0,0.0,0.0,0.0,0.0,0.0,0.0,0.0,0.0,0.0,0.0,0.0,0.0,0.0,0.0,0.0,0.0,0.0,0.0,0.0,0.0,0.0,0.0,0.0,0.0,0.0,0.0,0.0,0.0,0.0,0.0,0.0,0.0,0.0,0.0,0.0,0.0,0.0,0.0,0.0,0.0,0.0,0.0,0.0,0.0,0.0,0.0,0.0,0.0,0.0,0.0,0.0,0.0,0.0,0.0,0.0,0.0,0.0,0.0,0.0,0.0,0.0,0.0,0.0,0.0,0.0,0.0,0.0,0.0,0.0,0.0,0.0,0.0,0.0,0.0,0.0,0.0,0.0,0.0,0.0,0.0,0.0,0.0,0.0,0.0,0.0,0.0,0.0,0.0,0.0,0.0,0.0,0.0,0.0,0.0,0.0,0.0,0.0,0.0,0.0,0.0,0.0,0.0,0.0,0.0,0.0,0.0,0.0,0.0,0.0,0.0,0.0,0.0,0.0,0.0,0.0,0.0,0.0,0.0,0.0,0.0,0.0,0.0,0.0,0.0,0.0,0.0,0.0,0.0,0.0,0.0,0.0,0.0,0.0,0.0,0.0,0.0,0.0,0.0,0.0,0.0,0.0,0.0,0.0,0.0,0.0,0.0,0.0,0.0,0.0,0.0,0.0,0.0,0.0,0.0,0.0,0.0,0.0,0.0,0.0,0.0,0.0,0.0,0.0,0.0,0.0,0.0,0.0,0.0,0.0,0.0,0.0,0.0,0.0,0.0,0.0,0.0,0.0,0.0,0.0,0.0,0.0,0.0,0.0,0.0,0.0,0.0,0.0,0.0,0.0,0.0,0.0,0.0,0.0,0.0,0.0,0.0,0.0,0.0,0.0,0.0,0.0,0.0,0.0,0.0,0.0,0.0,0.0,0.0,0.0,0.0,0.0,0.0,0.0,0.0,0.0,0.0,0.0,0.0,0.0,0.0,0.0,0.0,0.0,0.0,0.0,0.0,0.0,0.0,0.0,0.0,0.0,0.0,0.0,0.0,0.0,0.0,0.0,0.0,0.0,0.0,0.0,0.0,0.0,0.0,0.0,0.0,0.0,0.0,0.0,0.0,0.0,0.0,0.0,0.0,0.0,0.0,0.0,0.0,0.0,0.0,0.0,0.0,0.0,0.0,0.0,0.0,0.0,0.0,0.0,0.0,0.0,0.0,0.0,0.0,0.0,0.0,0.0,0.0,0.0,0.0,0.0,0.0,0.0,0.0,0.0,0.0,0.0,0.0,0.0,0.0,0.0,0.0,0.0,0.0,0.0,0.0,0.0,0.0,0.0,0.0,0.0,0.0,0.0,0.0,0.0,0.0,0.0,0.0,0.0,0.0,0.0,0.0,0.0,0.0,0.0,0.0,0.0,0.0,0.0,0.0,0.0,0.0,0.0,0.0,0.0,0.0,0.0,0.0,0.0,0.0,0.0,0.0,0.0,0.0,0.0,0.0,0.0,0.0,0.0,0.0,0.0,0.0,0.0,0.0,0.0,0.0,0.0,0.0,0.0,0.0,0.0,0.0,0.0,0.0,0.0,0.0,0.0,0.0,0.0,0.0,0.0,0.0,0.0,0.0,0.0,0.0,0.0,0.0,0.0,0.0,0.0,0.0,0.0,0.0,0.0,0.0,0.0,0.0,0.0,0.0,0.0,0.0,0.0,0.0,0.0,0.0,0.0,0.0,0.0,0.0,0.0,0.0,0.0,0.0,0.0,0.0,0.0,0.0,0.0,0.0,0.0,0.0,0.0,0.0,0.0,0.0,0.0,0.0,0.0,0.0,0.0,0.0,0.0,0.0,0.0,0.0,0.0,0.0,0.0,0.0,0.0,0.0,0.0,0.0,0.0,0.0,0.0,0.0,0.0,0.0,0.0,0.0,0.0,0.0,0.0,0.0,0.0,0.0,0.0,0.0,0.0,0.0,0.0,0.0,0.0,0.0,0.0,0.0,0.0,0.0,0.0,0.0,0.0,0.0,0.0,0.0,0.0,0.0,0.0,0.0,0.0,0.0,0.0,0.0,0.0,0.0,0.0,0.0,0.0,0.0,0.0,0.0,0.0,0.0,0.0,0.0,0.0,0.0,0.0,0.0,0.0,0.0,0.0,0.0,0.0,0.0,0.0,0.0,0.0,0.0,0.0,0.0,0.0,0.0,0.0,0.0,0.0,0.0,0.0,0.0,0.0,0.0,0.0,0.0,0.0,0.0,0.0,0.0,0.0,0.0,0.0,0.0,0.0,0.0,0.0,0.0,0.0,0.0,0.0,0.0,0.0,0.0,0.0,0.0,0.0,0.0,0.0,0.0,0.0,0.0,0.0,0.0,0.0,0.0,0.0,0.0,0.0,0.0,0.0,0.0,0.0,0.0,0.0,0.0,0.0,0.0,0.0,0.0,0.0,0.0,0.0,0.0,0.0,0.0,0.0,0.0,0.0,0.0,0.0,0.0,0.0,0.0,0.0,0.0,0.0,0.0,0.0,0.0,0.0,0.0,0.0,0.0,0.0,0.0,0.0,0.0,0.0,0.0,0.0,0.0,0.0,0.0,0.0,0.0,0.0,0.0,0.0,0.0,0.0,0.0,0.0,0.0,0.0,0.0,0.0,0.0,0.0,0.0,0.0,0.0,0.0,0.0,0.0,0.0,0.0,0.0,0.0,0.0,0.0,0.0,0.0,0.0,0.0,0.0,0.0,0.0,0.0,0.0,0.0,0.0,0.0,0.0,0.0,0.0,0.0,0.0,0.0,0.0,0.0,0.0,0.0,0.0,0.0,0.0,0.0,0.0,0.0,0.0,0.0,0.0,0.0,0.0,0.0,0.0,0.0,0.0,0.0,0.0,0.0,0.0,0.0,0.0,0.0,0.0,0.0,0.0,0.0,0.0,0.0,0.0,0.0,0.0,0.0,0.0,0.0,0.0,0.0,0.0,0.0,0.0,0.0,0.0,0.0,0.0,0.0,0.0,0.0,0.0,0.0,0.0,0.0,0.0,0.0,0.0,0.0,0.0,0.0,0.0,0.0,0.0,0.0,0.0,0.0,0.0,0.0,0.0,0.0,0.0,0.0,0.0,0.0,0.0,0.0,0.0,0.0,0.0,0.0,0.0,0.0,0.0,0.0,0.0,0.0,0.0,0.0,0.0,0.0,0.0,0.0,0.0,0.0,0.0,0.0,0.0,0.0,0.0,0.0,0.0,0.0,0.0,0.0,0.0,0.0,0.0,0.0,0.0,0.0,0.0,0.0,0.0,0.0,0.0,0.0,0.0,0.0,0.0,0.0,0.0,0.0,0.0,0.0,0.0,0.0,0.0,0.0,0.0,0.0,0.0,0.0,0.0,0.0,0.0,0.0,0.0,0.0,0.0,0.0,0.0,0.0,0.0,0.0,0.0,0.0,0.0,0.0,0.0,0.0,0.0,0.0,0.0,0.0,0.0,0.0,0.0,0.0,0.0,0.0,0.0,0.0,0.0,0.0,0.0,0.0,0.0,0.0,0.0,0.0,0.0,0.0,0.0,0.0,0.0,0.0,0.0,0.0,0.0,0.0,0.0,0.0,0.0,0.0,0.0,0.0,0.0,0.0,0.0,0.0,0.0,0.0,0.0,0.0,0.0,0.0,0.0,0.0,0.0,0.0,0.0,0.0,0.0,0.0,0.0,0.0,0.0,0.0,0.0,0.0,0.0,0.0,0.0,0.0,0.0,0.0,0.0,0.0,0.0,0.0,0.0,0.0,0.0,0.0,0.0,0.0,0.0,0.0,0.0,0.0,0.0,0.0,0.0,0.0,0.0,0.0,0.0,0.0,0.0,0.0,0.0,0.0,0.0,0.0,0.0,0.0,0.0,0.0,0.0,0.0,0.0,0.0,0.0,0.0,0.0,0.0,0.0,0.0,0.0,0.0,0.0,0.0,0.0,0.0,0.0,0.0,0.0,0.0,0.0,0.0,0.0,0.0,0.0,0.0,0.0,0.0,0.0,0.0,0.0,0.0,0.0,0.0,0.0,0.0,0.0,0.0,0.0,0.0,0.0,0.0,0.0,0.0,0.0,0.0,0.0,0.0,0.0,0.0,0.0,0.0,0.0,0.0,0.0,0.0,0.0,0.0,0.0,0.0,0.0,0.0,0.0,0.0,0.0,0.0,0.0,0.0,0.0,0.0,0.0,0.0,0.0,0.0,0.0,0.0,0.0,0.0,0.0,0.0,0.0,0.0,0.0,0.0,0.0,0.0,0.0,0.0,0.0,0.0,0.0,0.0,0.0,0.0,0.0,0.0,0.0,0.0,0.0,0.0,0.0,0.0,0.0,0.0,0.0,0.0,0.0,0.0,0.0,0.0,0.0,0.0,0.0,0.0,0.0,0.0,0.0,0.0,0.0,0.0,0.0,0.0,0.0,0.0,0.0,0.0,0.0,0.0,0.0,0.0,0.0,0.0,0.0,0.0,0.0,0.0,0.0,0.0,0.0,0.0,0.0,0.0,-4.6093,-4.6056,0.0,0.0,0.0,0.0,0.0,0.0,0.0,0.0,0.0,0.0,0.0,0.0,0.0,0.0,0.0,0.0,0.0,0.0,0.0,0.0,0.0,0.0,0.0,0.0,0.0,0.0,0.0,0.0,0.0,0.0,0.0,0.0,0.0,0.0,0.0,0.0,0.0,0.0,0.0,0.0,0.0,0.0,0.0,0.0,0.0,0.0,0.0,0.0,0.0,0.0,0.0,0.0,0.0,0.0,0.0,0.0,0.0,0.0,0.0,0.0,0.0,0.0,0.0,0.0,0.0,0.0,0.0,0.0,0.0,0.0,0.0,0.0,0.0,0.0,0.0,0.0,0.0,0.0,0.0,0.0,0.0,0.0,0.0,0.0,0.0,0.0,0.0,0.0,0.0,0.0,0.0,0.0,0.0,0.0,0.0,0.0,0.0,0.0,0.0,0.0,0.0,0.0,0.0,0.0,0.0,0.0,0.0,0.0,0.0,0.0,0.0,0.0,0.0,0.0,-4.6176,-4.6091,0.0,0.0,0.0,0.0,0.0,0.0,0.0,0.0,0.0,0.0,0.0,0.0,0.0,0.0,0.0,0.0,0.0,0.0,0.0,0.0,0.0,0.0,0.0,0.0,0.0,0.0,0.0,0.0,0.0,0.0,0.0,0.0,0.0,0.0,0.0,0.0,0.0,0.0,0.0,0.0,0.0,0.0,0.0,0.0,0.0,0.0,0.0,0.0,0.0,0.0,0.0,0.0,0.0,0.0,0.0,0.0,0.0,0.0,0.0,0.0,0.0,0.0,0.0,0.0,0.0,0.0,0.0,0.0,0.0,0.0,0.0,0.0,0.0,0.0,0.0,0.0,0.0,0.0,0.0,0.0,0.0,0.0,0.0,0.0,0.0,0.0,0.0,0.0,0.0,0.0,0.0,0.0,0.0,0.0,0.0,0.0,0.0,0.0,0.0,0.0,0.0,0.0,0.0,0.0,0.0,0.0,0.0,0.0,-4.6169,-4.619,-4.6209,-4.6209,-4.6245,-4.6279,-4.624,-4.6123,-4.5959,-4.6056,0.0,0.0,0.0,0.0,0.0,0.0,0.0,0.0,0.0,0.0,0.0,0.0,0.0,0.0,0.0,0.0,0.0,0.0,0.0,0.0,0.0,0.0,0.0,0.0,0.0,0.0,0.0,0.0,0.0,0.0,0.0,0.0,0.0,0.0,0.0,0.0,0.0,0.0,-4.5866,-4.6027,-4.6008,-4.5784,-4.5952,0.0,0.0,0.0,0.0,0.0,0.0,0.0,0.0,0.0,0.0,0.0,0.0,0.0,0.0,0.0,0.0,0.0,0.0,0.0,0.0,0.0,0.0,0.0,0.0,0.0,0.0,0.0,0.0,0.0,0.0,0.0,0.0,0.0,0.0,0.0,0.0,0.0,0.0,0.0,0.0,0.0,0.0,0.0,-4.5841,-4.5944,0.0,0.0,0.0,0.0,0.0,0.0,0.0,0.0,0.0,0.0,0.0,0.0,0.0,-4.6111,-4.6162,-4.6189,-4.6196,-4.6196,-4.6196,-4.6209,-4.6206,-4.6255,-4.6255,-4.6211,-4.6275,0.0,-4.6144,-4.6044,0.0,0.0,0.0,0.0,0.0,0.0,0.0,0.0,0.0,0.0,0.0,0.0,0.0,0.0,0.0,0.0,0.0,0.0,0.0,0.0,0.0,0.0,0.0,0.0,0.0,0.0,0.0,0.0,0.0,0.0,0.0,0.0,0.0,0.0,0.0,0.0,-4.4744,-4.552,-4.5883,-4.5958,-4.5998,-4.6056,-4.608,-4.613,-4.6164,-4.5793,0.0,0.0,0.0,0.0,0.0,0.0,0.0,0.0,0.0,0.0,0.0,0.0,0.0,0.0,0.0,0.0,0.0,0.0,0.0,0.0,0.0,0.0,0.0,0.0,0.0,0.0,0.0,0.0,0.0,0.0,0.0,0.0,0.0,0.0,0.0,0.0,0.0,0.0,0.0,-4.5619,-4.5728,-4.5713,-4.5536,-4.5399,0.0,0.0,0.0,0.0,0.0,0.0,0.0,0.0,0.0,-4.5891,-4.5977,-4.6093,-4.6196,-4.6196,-4.6203,-4.619,-4.6203,-4.6195,-4.6206,-4.6279,-4.6284,-4.6269,-4.6292,-4.6288,-4.6255,-4.6144,-4.6054,-4.5938,0.0,0.0,0.0,0.0,-4.5468,-4.5505,0.0,0.0,0.0,0.0,0.0,0.0,0.0,0.0,0.0,0.0,0.0,0.0,0.0,0.0,0.0,-3.4854,0.0,0.0,0.0,0.0,0.0,0.0,0.0,0.0,0.0,0.0,0.0,0.0,-4.546,-4.5822,-4.5771,-4.5822,-4.5893,-4.5949,-4.5966,-4.6027,-4.6154,-4.619,-4.5826,0.0,0.0,0.0,0.0,0.0,0.0,0.0,0.0,0.0,0.0,0.0,0.0,0.0,0.0,0.0,0.0,0.0,0.0,0.0,0.0,0.0,0.0,0.0,0.0,0.0,0.0,0.0,0.0,0.0,0.0,0.0,0.0,0.0,0.0,0.0,0.0,0.0,0.0,-4.5568,-4.5728,-4.5555,-4.5432,-4.536,0.0,0.0,0.0,0.0,0.0,0.0,-4.5323,-4.5399,-4.5555,-4.5841,-4.5891,-4.5977,-4.6074,-4.6119,-4.6146,-4.6146,-4.619,-4.6195,-4.6206,-4.6279,-4.6292,-4.63,-4.63,-4.6296,-4.6308,-4.6245,-4.6164,-4.6035,-4.5968,-4.5863,-4.5751,-4.566,-4.5603,-4.5571,0.0,0.0,0.0,0.0,0.0,0.0,0.0,0.0,0.0,0.0,0.0,0.0,0.0,0.0,-3.119,-3.5203,-3.6009,-3.7505,0.0,0.0,0.0,0.0,0.0,0.0,0.0,0.0,0.0,-4.5436,-4.5547,-4.5654,-4.5715,-4.5723,-4.5752,-4.5814,-4.5893,-4.5933,-4.6017,-4.615,-4.6137,-4.5974,0.0,0.0,0.0,0.0,0.0,0.0,0.0,0.0,0.0,0.0,0.0,0.0,0.0,0.0,0.0,0.0,0.0,0.0,0.0,0.0,0.0,0.0,0.0,0.0,0.0,0.0,0.0,0.0,0.0,0.0,0.0,0.0,0.0,0.0,0.0,0.0,0.0,0.0,0.0,-4.5636,-4.5738,0.0,0.0,0.0,0.0,-4.5285,-4.5241,-4.526,-4.538,-4.5454,-4.5555,-4.5703,-4.5717,-4.5717,-4.5731,-4.5914,-4.6007,-4.6007,-4.6142,-4.6195,-4.6206,-4.6279,-4.6292,-4.63,-4.63,-4.63,-4.63,-4.6308,-4.625,-4.617,-4.6054,-4.6074,-4.6127,-4.5796,-4.5803,-4.5933,0.0,0.0,0.0,0.0,0.0,0.0,0.0,0.0,0.0,0.0,0.0,0.0,0.0,-2.9261,-3.0738,-3.6106,-3.4681,-3.5496,-4.0175,0.0,0.0,0.0,0.0,0.0,0.0,0.0,-4.3461,-4.538,-4.5438,-4.5457,-4.5438,-4.5475,-4.5545,-4.5616,-4.5688,-4.5747,-4.5827,-4.6008,-4.6083,-4.6083,-4.5838,-4.5404,0.0,0.0,0.0,0.0,0.0,0.0,0.0,0.0,0.0,0.0,0.0,0.0,0.0,0.0,0.0,0.0,0.0,0.0,0.0,0.0,0.0,0.0,0.0,0.0,0.0,0.0,0.0,0.0,0.0,0.0,0.0,0.0,0.0,0.0,0.0,0.0,0.0,-4.5645,-4.579,0.0,-4.543,-4.5464,-4.5414,-4.5241,-4.5342,-4.5381,-4.5341,-4.5361,-4.5438,-4.5571,-4.5571,-4.587,-4.652,-4.6615,-4.6933,-4.7481,-4.7532,-4.7548,-4.7539,-4.7631,-4.7651,-4.7641,-4.7698,-4.7698,-4.7641,-4.7651,-4.7081,-4.6189,-4.6046,-4.6037,-4.6037,-4.5803,-4.5694,-4.5669,0.0,0.0,0.0,0.0,0.0,0.0,0.0,0.0,0.0,0.0,0.0,-3.0851,-3.1168,-2.9648,-3.0884,-3.6491,-3.4233,-3.4747,-3.9967,0.0,0.0,0.0,0.0,0.0,0.0,-4.2089,-4.3018,-4.491,-4.4988,-4.5011,-4.4962,-4.5055,-4.5161,-4.5263,-4.5361,-4.549,-4.5632,-4.5796,-4.5925,-4.6037,-4.613,-4.5831,-4.5297,0.0,0.0,0.0,0.0,0.0,0.0,0.0,0.0,0.0,0.0,0.0,0.0,0.0,0.0,0.0,0.0,0.0,0.0,0.0,0.0,0.0,0.0,0.0,0.0,0.0,0.0,0.0,0.0,0.0,0.0,0.0,0.0,0.0,0.0,-4.5859,-4.5988,-4.5645,-4.584,-4.5852,-4.5466,-4.5565,-4.5533,-4.5321,-4.5381,-4.54,-4.5298,-4.5564,-4.5741,-4.5822,-4.611,-4.6607,-4.7253,-4.732,-4.7626,-4.8205,-4.8265,-4.8309,-4.8305,-4.8373,-4.8399,-4.8393,-4.8456,-4.8437,-4.8393,-4.8387,-4.7792,-4.6909,-4.6802,-4.6775,-4.6732,-4.6254,-4.6015,-4.5893,0.0,0.0,0.0,0.0,0.0,0.0,0.0,0.0,0.0,0.0,-2.9872,-3.0979,-3.1881,-3.0763,-3.1792,-3.6375,-3.4998,-3.5636,-3.9823,-4.0127,0.0,0.0,0.0,0.0,-4.1431,-4.1576,-4.2445,-4.4069,-4.4224,-4.4308,-4.4308,-4.4425,-4.4575,-4.4776,-4.4896,-4.514,-4.5475,-4.5539,-4.5684,-4.5906,-4.6047,-4.6093,-4.6093,0.0,0.0,0.0,0.0,0.0,0.0,0.0,0.0,0.0,0.0,0.0,0.0,0.0,0.0,0.0,0.0,0.0,0.0,0.0,0.0,0.0,0.0,0.0,0.0,0.0,0.0,0.0,0.0,0.0,0.0,0.0,0.0,0.0,-4.563,-4.5902,-4.5978,-4.565,-4.5959,-4.6074,-4.5744,-4.5703,-4.5645,-4.5507,-4.54,-4.5356,-4.5335,-4.6099,-4.6538,-4.6538,-4.736,-4.7818,-4.7857,-4.797,-4.8049,-4.8068,-4.8265,-4.8361,-4.8368,-4.843,-4.847,-4.8458,-4.8458,-4.8458,-4.8458,-4.8396,-4.8368,-4.8368,-4.8309,-4.8295,-4.8156,-4.7197,-4.6837,-4.6703,0.0,0.0,0.0,0.0,0.0,0.0,0.0,0.0,0.0,0.0,-3.1347,-3.3265,-3.3535,-3.3554,-3.4962,-3.8418,-3.6727,-3.6772,-3.9831,0.0,0.0,0.0,0.0,0.0,-4.0448,-4.0656,-4.1592,-4.3287,-4.3874,-4.4069,-4.3937,-4.4031,-4.4071,-4.4071,-4.4102,-4.4403,-4.4867,-4.4925,-4.5189,-4.5632,-4.591,-4.6026,-4.6005,0.0,0.0,0.0,0.0,0.0,0.0,0.0,0.0,0.0,0.0,0.0,0.0,0.0,0.0,0.0,0.0,0.0,0.0,0.0,0.0,0.0,0.0,0.0,0.0,0.0,0.0,0.0,0.0,0.0,0.0,0.0,-4.5925,-4.6037,-4.5977,-4.6074,-4.6146,-4.6046,-4.6127,-4.6138,-4.5944,-4.579,-4.5645,-4.5507,-4.605,-4.6321,-4.6175,-4.7126,-4.7586,-4.7455,-4.7685,-4.8105,-4.8735,-4.8783,-4.9092,-4.9666,-4.9731,-4.9752,-4.9754,-4.9835,-4.9855,-4.9855,-4.9894,-4.9894,-4.9855,-4.9835,-4.9775,-4.964,-4.8528,-4.8081,-4.8046,-4.7662,-4.7522,-4.7503,0.0,0.0,0.0,0.0,0.0,0.0,0.0,0.0,0.0,0.0,-3.2091,-3.4407,-3.4655,-3.5133,-3.6483,-3.8986,-3.7641,-3.7565,-3.9719,0.0,0.0,0.0,0.0,-3.8258,-3.9626,-3.9815,-4.0775,-4.2551,-4.2977,-4.321,-4.3301,-4.3261,-4.3345,-4.3498,-4.3406,-4.3708,-4.4279,-4.4376,-4.4721,-4.5227,-4.5514,-4.5736,-4.5912,-4.5893,-4.5937,-4.5991,-4.5899,-4.5905,-4.5944,-4.5929,0.0,0.0,0.0,0.0,0.0,0.0,0.0,0.0,0.0,0.0,0.0,0.0,0.0,0.0,0.0,0.0,0.0,0.0,0.0,0.0,0.0,0.0,0.0,0.0,-4.6027,-4.6093,-4.6093,-4.6154,-4.6196,-4.6196,-4.6196,-4.6146,-4.6007,-4.6151,-4.619,-4.6046,-4.6762,-4.7163,-4.7054,-4.7986,-4.8466,-4.8353,-4.8678,-4.9098,-4.9595,-4.9595,-4.9843,-5.0302,-5.0302,-5.0302,-5.0302,-5.0367,-5.0412,-5.0412,-5.0457,-5.0435,-5.0412,-5.0367,-5.0344,-5.0206,0.0,0.0,0.0,0.0,-4.8124,-4.7799,0.0,0.0,0.0,0.0,0.0,0.0,0.0,0.0,0.0,0.0,0.0,-3.4675,-3.5338,-3.6058,-3.7176,-3.8834,-3.8183,-3.8268,0.0,0.0,0.0,-3.7785,-3.7488,-3.7807,-3.8807,-3.8986,-3.9968,-4.1692,-4.1735,-4.1966,-4.2297,-4.2126,-4.2311,-4.2774,-4.2607,-4.2923,-4.3606,-4.3763,-4.4149,-4.4668,-4.4897,-4.5304,-4.5805,-4.5847,-4.5906,-4.5912,-4.5776,-4.5752,-4.5769,-4.5718,0.0,0.0,0.0,0.0,0.0,0.0,0.0,0.0,0.0,0.0,0.0,0.0,0.0,0.0,0.0,0.0,0.0,0.0,0.0,0.0,0.0,0.0,0.0,0.0,-4.6093,-4.6093,-4.6093,-4.6146,-4.6189,-4.6189,-4.6189,-4.6177,-4.6143,-4.6642,-4.6966,-4.695,-4.7564,-4.7933,-4.793,-4.8777,0.0,0.0,0.0,-5.0302,-5.0302,-5.0302,-5.0302,-5.0302,-5.0302,-5.0302,-5.0302,-5.0348,-5.039,-5.039,-5.039,-5.039,-5.0371,-5.0325,-5.0278,-5.0236,-5.0278,-5.0278,-5.0159,-4.9434,-4.8666,-4.7976,0.0,0.0,0.0,0.0,0.0,0.0,0.0,0.0,0.0,-3.0719,-3.3297,-3.5135,-3.5953,-3.7802,-3.9308,-4.0033,-3.9719,-3.9484,0.0,0.0,-3.8444,-3.7536,-3.7122,-3.7134,-3.7638,-3.822,-3.9158,-4.0383,-4.0874,-4.0915,-4.0483,-4.0466,-4.0595,-4.0863,-4.0799,-4.1367,-4.23,-4.272,-4.3185,-4.3695,-4.4083,-4.4829,-4.5722,-4.5731,-4.5613,-4.5437,-4.5418,-4.5266,-4.5088,-4.5086,-4.5088,-4.511,-4.5067,-4.5148,0.0,0.0,0.0,0.0,0.0,0.0,0.0,0.0,0.0,0.0,0.0,0.0,0.0,0.0,0.0,0.0,0.0,0.0,0.0,-4.5977,-4.6056,-4.6084,-4.6027,-4.6027,-4.6027,-4.6027,-4.6027,-4.6289,-4.6987,-4.6922,-4.7116,-4.7794,-4.8471,-4.8802,-4.8691,-4.9685,-5.015,-4.9983,-5.0183,-5.0302,-5.0302,-5.0302,-5.0302,-5.0302,-5.0302,0.0,-5.0302,-5.0302,-5.0325,-5.0325,-5.0325,-5.0325,-5.0325,-5.0302,-5.0144,-4.991,-5.0193,-5.0144,-4.9884,-4.9713,-4.9408,-4.9012,0.0,0.0,0.0,0.0,0.0,0.0,0.0,0.0,0.0,0.0,-3.2748,-3.5169,-3.619,-3.8265,-3.9687,-3.9881,-4.0058,0.0,0.0,-3.7694,-3.6685,-3.6982,-3.4814,-3.4284,-3.5717,-3.6452,-3.7366,-3.8424,-3.931,-3.9733,-3.9699,-3.9308,-3.9308,-3.9598,-3.9393,-3.9716,-4.0444,-4.0861,-4.1498,-4.2283,-4.2739,-4.3546,-4.4602,-4.4906,-4.5004,-4.4973,-4.5061,-4.4998,-4.4912,-4.4912,-4.489,-4.4867,-4.489,-4.4886,-4.4858,0.0,0.0,0.0,0.0,0.0,0.0,0.0,0.0,0.0,0.0,0.0,0.0,0.0,0.0,-4.5716,-4.5789,0.0,-4.5875,-4.6065,-4.6075,-4.6027,-4.6007,-4.5975,-4.5964,-4.5997,-4.6385,-4.6812,-4.7259,-4.7859,-4.8343,-4.868,-4.9354,-4.9679,-4.9499,-5.0007,-5.024,-5.0139,-5.0212,-5.0255,-5.0255,-5.0278,-5.0302,-5.0302,-5.0302,-5.0302,-5.0302,-5.0302,-5.0302,-5.0302,-5.0302,-5.0302,-5.0302,-5.012,-4.9857,-4.957,-4.973,-4.9702,-4.9541,-4.9541,-4.9435,-4.9283,0.0,0.0,0.0,0.0,0.0,0.0,0.0,0.0,0.0,0.0,-3.2033,-3.4925,-3.6015,-3.8102,-3.9488,0.0,0.0,0.0,0.0,-3.7062,-3.5447,-3.5706,-3.3007,-3.2029,-3.3228,-3.4304,-3.5419,-3.6558,-3.7319,-3.7938,-3.8406,-3.7664,-3.7575,-3.7922,-3.7632,-3.7818,-3.8357,-3.8808,-3.9628,-4.0627,-4.1067,-4.1866,-4.286,-4.3423,-4.3989,-4.4459,-4.4638,-4.4669,-4.4632,-4.4632,-4.4568,-4.4474,-4.46,-4.4501,-4.4393,-4.4538,-4.4522,0.0,0.0,0.0,0.0,0.0,0.0,0.0,0.0,-4.5747,-4.5735,-4.5946,-4.5974,-4.5985,-4.6035,-4.6037,-4.6047,-4.6146,-4.6066,-4.5975,-4.5964,-4.6053,-4.6138,-4.6216,-4.6837,-4.74,-4.773,-4.8861,-4.9553,-4.9566,-5.0061,-5.0283,-5.0133,-5.0108,-5.0082,-5.0082,-5.0158,-5.0163,-5.0163,-5.0255,-5.0278,-5.0278,-5.0302,-5.0302,-5.0302,-5.0302,-5.0302,-5.0302,-5.0236,-5.0169,-5.0076,-4.9811,-4.9512,-4.919,-4.919,-4.9177,-4.9094,-4.9177,-4.9177,-4.9113,0.0,0.0,0.0,0.0,0.0,0.0,0.0,0.0,0.0,0.0,0.0,0.0,0.0,0.0,0.0,0.0,0.0,0.0,-4.052,-3.9727,-3.7275,-3.2809,-3.4379,-3.3594,-2.9826,-3.2342,-3.4198,-3.532,-3.4729,-3.4625,-3.5011,-3.4228,-3.4089,-3.4543,-3.4493,-3.5217,-3.6442,-3.6922,-3.7753,-3.8805,-3.9192,-3.9893,-4.077,-4.0882,-4.2124,-4.3819,-4.3967,-4.3868,-4.3646,-4.3646,-4.3664,-4.3664,-4.3726,-4.3823,-4.3918,-4.4121,-4.4221,-4.4336,-4.4496,-4.482,-4.5186,-4.5504,-4.5677,-4.5861,0.0,-4.6088,-4.6002,-4.6217,-4.6261,-4.6234,-4.6187,-4.6131,-4.606,-4.6027,-4.5964,-4.5886,-4.5841,-4.6485,-4.6975,-4.6989,-4.7066,-4.7724,-4.9292,-4.9437,-4.9737,-5.0489,-5.0342,-5.0212,-5.0188,-5.0082,-5.0005,-5.0005,-5.0082,-5.0108,-5.0108,-5.0182,-5.0212,-5.0212,-5.0278,-5.0302,-5.0302,-5.0302,-5.0302,-5.0278,-4.9981,-4.9702,-4.9424,-4.9375,-4.9177,-4.885,-4.885,-4.8676,-4.8458,-4.8746,-4.8694,-4.8402,0.0,0.0,0.0,0.0,0.0,0.0,0.0,0.0,0.0,0.0,0.0,0.0,0.0,0.0,0.0,0.0,0.0,0.0,-4.0721,-3.8709,-3.7053,-3.6031,-3.2485,-3.0346,-3.0033,-3.011,-3.0608,-3.1454,-3.2362,-3.2882,-3.3006,-3.2288,-3.2305,-3.3082,-3.2793,-3.3279,-3.4457,-3.4812,-3.5445,-3.6178,-3.7006,-3.7666,-3.8203,-3.8591,-3.9274,-4.0217,-4.2154,-4.274,0.0,0.0,-4.341,-4.36,-4.3249,-4.3424,-4.3763,-4.3539,-4.3786,-4.4242,-4.4753,-4.5034,-4.5259,-4.5665,-4.5797,-4.585,-4.6025,-4.6,-4.602,-4.6243,-4.6278,-4.6214,-4.615,-4.6096,-4.6036,-4.6007,-4.5933,-4.608,-4.6545,-4.6892,-4.7482,-4.8488,-4.8604,-4.8894,-4.9629,-5.0046,-5.0385,-5.0682,-5.0567,-5.0418,-5.0212,-5.0158,-5.0063,-4.9952,-5.0005,-5.0057,-5.0057,-5.0108,-5.0158,-5.0158,-5.0207,-5.0139,-4.9948,-5.0,-4.9884,-4.9702,-4.957,-4.9333,-4.9015,-4.9015,-4.8797,-4.8495,-4.8495,-4.8439,-4.8306,-4.8476,-4.8439,-4.8306,0.0,0.0,0.0,0.0,0.0,0.0,0.0,0.0,0.0,0.0,0.0,0.0,0.0,0.0,0.0,0.0,0.0,0.0,0.0,-3.8556,-3.7334,-3.7587,-3.1257,-2.8083,-2.8839,-2.685,-2.6295,-2.7288,-2.862,-2.9605,-3.0147,-2.9223,-2.9202,-2.9958,-2.9913,-3.0388,-3.124,-3.1943,-3.2758,-3.3591,-3.4425,-3.5206,-3.5995,-3.645,-3.6572,-3.6967,-4.0071,-4.102,0.0,0.0,-4.2247,-4.2559,-4.2088,-4.2443,-4.2959,-4.2739,-4.3139,-4.3856,-4.4623,-4.4939,-4.5167,-4.5699,-4.5817,-4.5847,-4.5879,-4.5932,-4.5995,-4.616,-4.6171,-4.6142,-4.6084,-4.6008,-4.5966,-4.5964,-4.5917,-4.619,-4.7049,-4.7337,-4.8005,-4.9498,-4.9885,-4.9988,-4.9901,-5.0422,-5.0735,-5.0625,-5.0507,-5.0339,-5.012,-5.0089,-5.0005,-4.9843,-4.9925,-4.9978,-4.9978,-5.0057,-5.0031,-4.9933,-4.9993,-4.9849,-4.9502,-4.9589,-4.9453,-4.9145,-4.9145,-4.8949,-4.8658,-4.8658,-4.8532,-4.8306,-4.8306,-4.8306,-4.8267,-4.8172,-4.8172,-4.8306,0.0,0.0,0.0,0.0,0.0,0.0,0.0,0.0,0.0,0.0,0.0,0.0,0.0,0.0,0.0,0.0,0.0,0.0,0.0,-4.0832,-3.8957,-3.4731,-3.2042,-2.8735,-2.4585,-2.2018,-2.167,-2.3549,-2.2864,-2.3591,-2.5604,-2.4168,-2.3636,-2.3874,-2.4837,-2.5639,-2.6237,-2.7873,-2.9621,-3.1302,-3.1302,-3.2499,-3.4263,-3.4321,-3.4476,-3.5153,-3.7815,0.0,0.0,0.0,-3.9451,-3.9742,-3.978,-4.0374,-4.1181,-4.1601,-4.2275,-4.2978,-4.3732,-4.4271,-4.4777,-4.5433,-4.5755,-4.5899,-4.5899,-4.5995,-4.605,-4.5932,-4.6001,-4.6084,-4.6016,-4.5958,-4.5902,-4.5899,-4.5847,-4.6109,-4.6974,-4.7835,-4.8667,-4.9505,-5.0339,-5.0736,-5.0408,-5.039,-5.0411,-5.0425,-4.9993,-4.9757,-4.991,-4.9797,-4.9721,-4.9692,-4.9843,-4.9879,-4.9879,-4.9978,-4.9833,-4.9529,-4.9588,-4.9412,-4.9043,-4.9164,-4.9052,-4.873,-4.8781,-4.8623,-4.8306,-4.8306,-4.8306,-4.8306,-4.8306,-4.8306,-4.8249,-4.7775,-4.7897,-4.8306,0.0,0.0,0.0,0.0,0.0,0.0,0.0,0.0,0.0,0.0,0.0,0.0,0.0,0.0,0.0,0.0,0.0,0.0,0.0,-4.0904,-4.026,-3.8772,-3.4916,-3.2314,-3.1316,-2.4305,-2.1257,-2.2376,-1.9098,-1.7907,-1.8602,-1.854,-1.9156,-2.0524,-2.1009,-2.223,-2.4084,-2.5119,-2.6529,-2.8027,-2.8591,-2.979,-3.1243,-3.1544,-3.2231,-3.3154,0.0,0.0,0.0,0.0,-3.8666,-3.9068,-3.9123,-3.9681,-4.042,-4.1156,-4.1884,-4.2573,-4.3111,-4.3839,-4.4605,-4.5189,-4.5494,-4.5675,-4.5805,-4.5871,-4.5891,-4.5899,-4.5714,-4.5557,-4.5548,-4.5488,-4.5449,-4.5433,-4.6127,-4.687,-4.749,-4.8336,-4.9164,-4.9726,-5.0049,-5.0149,-4.9968,-5.0233,-5.0303,-5.0083,-4.9917,-4.9827,-4.9757,-4.9712,-4.9636,-4.9525,-4.9327,-4.9259,-4.9358,-4.9177,-4.9048,-4.9019,-4.8866,-4.8744,-4.8655,-4.8477,-4.8327,-4.8249,-4.8269,-4.821,-4.8111,-4.8111,-4.7897,-4.7554,-4.7554,-4.7367,-4.7026,-4.6864,-4.6892,-4.7106,0.0,0.0,0.0,0.0,0.0,0.0,0.0,0.0,0.0,0.0,0.0,0.0,0.0,0.0,0.0,0.0,0.0,-4.0593,0.0,0.0,-4.0382,-4.0254,-3.5272,-3.2485,-3.2502,-2.5101,-2.147,-2.2139,-1.7037,-1.4572,-1.4644,-1.2208,-1.1934,-1.338,-1.3885,-1.5264,-1.746,-1.9045,-2.0911,-2.2787,-2.4447,-2.6511,-2.8656,-2.9638,-3.0778,0.0,0.0,0.0,0.0,-3.6024,-3.6597,-3.704,-3.6952,-3.7653,-3.88,-4.0156,-4.1024,-4.1718,-4.2701,-4.3503,-4.4177,-4.4753,-4.5086,-4.5323,-4.5445,-4.5538,-4.5592,-4.5582,-4.5305,-4.5055,-4.5016,-4.507,-4.518,-4.5338,-4.6205,-4.7126,-4.7933,-4.8567,-4.9194,-4.9816,-4.9911,-4.9827,-4.9608,-4.9884,-4.9949,-4.9746,-4.9617,-4.9522,-4.951,-4.9529,-4.9408,-4.9155,-4.9001,-4.8915,-4.8885,-4.8674,-4.8567,-4.8532,-4.8233,-4.8135,-4.8212,-4.8032,-4.7888,-4.7687,-4.7692,-4.7591,-4.7446,-4.7446,-4.7212,-4.6892,-4.6892,-4.671,-4.6383,-4.6192,-4.6161,-4.6244,0.0,0.0,0.0,0.0,0.0,0.0,0.0,0.0,0.0,0.0,0.0,0.0,0.0,0.0,0.0,0.0,0.0,0.0,0.0,0.0,0.0,-3.9131,-3.3549,-2.994,-2.8876,-2.4325,-2.2258,-2.2804,-1.6447,-1.3404,-1.3301,-0.5916,-0.267,-0.3107,-0.414,-0.5476,-0.6989,-1.0361,-1.3319,-1.613,-1.9174,-2.2853,-2.6631,-2.8379,0.0,0.0,0.0,0.0,-3.2571,-3.2939,-3.3442,-3.3864,-3.3593,-3.4732,-3.6565,-3.8725,-3.9748,-4.0545,-4.2463,-4.3171,-4.3494,-4.4053,-4.4497,-4.4787,-4.483,-4.4987,-4.5073,-4.4992,-4.4734,-4.4507,-4.4473,-4.4711,-4.5067,-4.5598,-4.6098,-4.693,-4.8287,-4.8496,-4.8871,-4.9743,-4.9838,-4.9693,-4.9365,-4.9334,-4.9302,-4.9283,-4.9061,-4.8978,-4.9179,-4.9179,-4.9027,-4.8694,-4.8779,-4.8691,-4.8477,-4.8477,-4.829,-4.8056,-4.7645,-4.7554,-4.7657,-4.7777,-4.7554,-4.7044,-4.7124,-4.6847,-4.6383,-4.6383,-4.6383,-4.6318,-4.6318,-4.6336,-4.624,-4.58,-4.5648,-4.5767,0.0,0.0,0.0,0.0,0.0,0.0,0.0,0.0,0.0,0.0,0.0,0.0,0.0,0.0,0.0,0.0,0.0,0.0,0.0,0.0,0.0,0.0,0.0,0.0,0.0,0.0,0.0,0.0,0.0,-1.2035,-0.724,-0.595,-0.282,0.1617,-0.034,-0.212,-0.3798,-0.7059,-1.0969,-1.5144,0.0,-2.1007,-2.542,0.0,0.0,0.0,0.0,0.0,-3.1528,-3.2275,-3.3302,-3.4371,-3.5072,-3.6137,-3.7401,-3.8606,-3.9662,-4.0569,-4.1392,-4.2239,-4.2869,-4.2759,-4.2951,-4.3282,-4.3855,-4.3971,-4.4035,-4.4466,-4.3941,-4.3521,-4.3825,-4.372,-4.3962,-4.5133,-4.635,-4.7397,-4.8097,-4.8708,-4.9119,-4.915,-4.9038,-4.8816,-4.8458,-4.8328,-4.8139,-4.7787,-4.8458,-4.8943,-4.8978,-4.8731,-4.8569,-4.8495,-4.8096,-4.7875,-4.7911,-4.771,-4.7567,-4.75,-4.7389,-4.7151,-4.6799,-4.6954,-4.6707,-4.6196,-4.6341,-4.6275,-4.6196,-4.6196,-4.5933,-4.5579,-4.5579,-4.5355,-4.5035,-4.4906,-4.4869,-4.4906,0.0,0.0,0.0,0.0,0.0,0.0,0.0,0.0,0.0,0.0,0.0,0.0,0.0,0.0,0.0,0.0,0.0,0.0,0.0,0.0,0.0,0.0,0.0,0.0,0.0,0.0,0.0,0.0,0.0,0.0,0.0,0.4027,0.6266,0.4826,0.3561,-0.0557,-0.669,-0.8222,0.0,0.0,0.0,0.0,0.0,0.0,0.0,0.0,0.0,-2.9814,-3.1234,-3.2183,-3.3245,-3.4317,-3.5098,-3.5489,-3.5994,-3.7564,-3.8371,-3.9092,-4.0516,-4.1297,-4.1735,-4.1777,-4.1998,-4.2336,-4.274,-4.2827,-4.2931,-4.3207,-4.2504,-4.198,-4.2592,-4.2632,-4.3141,-4.4854,-4.6165,-4.7218,-4.7924,-4.8553,-4.8728,-4.8214,-4.8233,-4.8117,-4.7738,-4.7638,-4.7494,-4.7237,-4.7783,-4.8176,-4.8176,-4.798,-4.782,-4.7656,-4.7309,-4.7169,-4.7205,-4.6944,-4.6835,-4.6863,-4.6595,-4.6406,-4.6165,-4.6213,-4.595,-4.5459,-4.5597,-4.5511,-4.5303,-4.5442,-4.5232,-4.4981,-4.4981,-4.4852,-4.4587,-4.4587,-4.4587,-4.4626,0.0,0.0,0.0,0.0,0.0,0.0,0.0,0.0,0.0,0.0,0.0,0.0,0.0,0.0,0.0,0.0,0.0,0.0,0.0,0.0,0.0,0.0,0.0,0.0,0.0,0.0,0.0,0.0,0.0,0.0,0.0,0.0,0.0,0.0,0.0,0.0,0.0,0.0,0.0,0.0,0.0,0.0,0.0,0.0,0.0,0.0,0.0,-2.8954,-3.1192,-3.2421,-3.3333,-3.4056,-3.4605,-3.4277,-3.4132,-3.6427,-3.6907,-3.7322,-3.9678,-4.0275,-4.0292,-4.0839,-4.1173,-4.1357,-4.1442,-4.1492,-4.1558,-4.154,-4.0774,-4.0319,-4.1028,-4.1456,-4.2378,-4.4538,-4.5608,-4.6557,-4.7664,-4.8075,-4.8035,-4.7281,-4.7554,-4.7596,-4.715,-4.7062,-4.7062,-4.6972,-4.691,-4.6955,-4.7194,-4.715,-4.699,-4.6566,-4.6548,-4.6472,-4.6429,-4.6186,-4.6102,-4.6165,-4.5716,-4.5511,-4.5563,-4.5563,-4.525,-4.4746,-4.491,-4.4708,-4.431,-4.444,-4.4514,-4.457,-4.444,-4.444,-4.444,-4.4367,-4.431,-4.431,0.0,0.0,0.0,0.0,0.0,0.0,0.0,0.0,0.0,0.0,-2.7197,-3.006,0.0,0.0,0.0,0.0,0.0,0.0,0.0,0.0,0.0,0.0,0.0,0.0,0.0,-3.0221,-2.8768,-2.742,-2.3712,0.0,0.0,0.0,0.0,0.0,0.0,0.0,0.0,0.0,0.0,0.0,0.0,0.0,0.0,0.0,0.0,0.0,-2.6102,-2.8365,-3.0505,-3.2625,-3.3795,-3.4506,-3.5515,-3.5554,-3.5532,-3.7,-3.758,-3.793,-3.8785,-3.903,-3.9063,-3.9285,-3.8879,-3.8813,-4.0014,-3.9765,-3.9463,-4.0089,-3.9564,-3.917,-3.9865,-4.0285,-4.1227,-4.3353,-4.4467,-4.559,-4.7089,-4.7281,-4.7237,-4.7176,-4.7142,-4.6918,-4.6484,-4.6424,-4.6217,-4.5735,-4.5372,-4.5765,-4.715,-4.6945,-4.6519,-4.597,-4.5767,-4.5665,-4.5528,-4.5372,-4.5372,-4.5459,-4.5355,-4.5108,-4.4708,-4.4801,-4.4614,-4.4097,-4.4196,-4.4196,-4.4155,-4.4155,-4.427,-4.431,-4.3739,-4.3604,-4.3647,-4.3092,-4.2831,-4.2953,0.0,0.0,0.0,0.0,0.0,0.0,0.0,-2.1868,-2.2317,-2.4412,-2.6985,-2.892,-2.9485,-3.3773,-3.6719,0.0,0.0,0.0,0.0,0.0,0.0,0.0,0.0,0.0,0.0,-2.8786,-2.6842,-2.4496,0.0,-1.4142,-0.8719,-0.0332,0.1704,-0.153,0.1698,0.0365,-0.4417,0.0,0.0,0.0,-1.0933,-1.4631,0.0,0.0,0.0,0.0,0.0,-2.7157,-2.8764,-2.9551,-3.1374,-3.36,-3.5572,-3.5548,-3.4985,-3.6135,-3.6303,-3.6421,-3.7552,-3.7825,-3.7825,-3.823,-3.8035,-3.7889,-3.814,-3.8212,-3.8172,-3.801,-3.7826,-3.785,-3.8597,-3.8887,-3.9778,-4.2057,-4.3331,-4.4536,-4.5922,-4.636,-4.6395,-4.5947,-4.5848,-4.5596,-4.5163,-4.5091,-4.4964,-4.4669,-4.4485,-4.4804,-4.5848,-4.5511,-4.518,-4.4838,-4.493,-4.4912,-4.4804,-4.4712,-4.4657,-4.4712,-4.4524,-4.4259,-4.4006,-4.4121,-4.4023,-4.3763,-4.3939,-4.3789,-4.3443,-4.3486,-4.335,-4.3092,-4.2769,-4.2645,-4.2691,-4.2458,-4.2395,-4.2458,0.0,0.0,0.0,0.0,0.0,0.0,0.0,-2.2594,-2.2922,-2.5259,-2.6809,-2.7902,-2.8307,-3.3208,-3.641,0.0,0.0,0.0,0.0,0.0,0.0,0.0,0.0,0.0,0.0,0.0,0.0,-2.2424,-1.532,0.0,0.0,0.0,0.0,0.0,-0.4451,-0.7794,-1.5154,-1.4221,0.0,0.0,0.0,-1.396,0.0,0.0,0.0,0.0,0.0,-2.5229,-2.6125,-2.6324,-2.8191,-3.0973,-3.3563,-3.4277,-3.4194,-3.4573,-3.4638,-3.4824,-3.6104,-3.6399,-3.6554,-3.7128,-3.7188,-3.6917,-3.6215,-3.643,-3.6628,-3.5763,-3.5776,-3.6229,-3.7024,-3.7372,-3.8302,-4.0409,-4.183,-4.3099,-4.4377,-4.5165,-4.5338,-4.4635,-4.4512,-4.4384,-4.3939,-4.3689,-4.3614,-4.363,-4.3495,-4.3731,-4.4524,-4.4202,-4.3972,-4.3914,-4.4054,-4.4152,-4.4095,-4.3997,-4.3956,-4.3956,-4.3519,-4.3295,-4.3295,-4.3372,-4.3295,-4.3174,-4.3492,-4.3218,-4.2537,-4.2629,-4.2363,-4.1933,-4.1804,-4.1739,-4.182,-4.182,-4.1836,-4.182,0.0,0.0,0.0,0.0,0.0,0.0,0.0,-2.3792,-2.4885,-2.6809,-2.8343,-2.9553,-3.0397,-3.3789,-3.6139,0.0,0.0,0.0,0.0,0.0,0.0,0.0,0.0,0.0,0.0,0.0,0.0,-2.5834,-2.3413,0.0,0.0,0.0,0.0,0.0,0.0,0.1437,-0.0594,-0.5975,0.0,0.0,0.0,0.0,0.0,0.0,0.0,0.0,0.0,-2.2126,-2.2368,-2.4952,-2.5564,-2.5453,-2.7481,-3.1028,-3.4131,-3.2619,-3.3317,-3.4596,-3.4337,-3.4564,-3.4963,-3.5537,-3.531,-3.4853,-3.453,-3.4109,-3.379,-3.3654,-3.3668,-3.4037,-3.4978,-3.5728,-3.6645,-3.8193,-3.9495,-4.0896,-4.2621,-4.3337,-4.3848,-4.4013,-4.3806,-4.3614,-4.3571,-4.2778,-4.2359,-4.2532,-4.1821,-4.2156,-4.3956,-4.403,-4.3856,-4.3638,-4.3486,-4.3366,-4.3218,-4.3052,-4.3068,-4.3218,-4.2632,-4.2443,-4.2443,-4.2585,-4.2317,-4.1722,-4.2443,-4.2317,-4.1641,-4.1641,-4.169,-4.1658,-4.1044,-4.0925,-4.1008,-4.0439,-4.0191,-4.0316,0.0,0.0,0.0,0.0,0.0,0.0,-2.3731,-2.4389,-2.5305,-2.7089,-2.8893,-3.0264,-3.0845,-3.3895,-3.6218,-3.6951,0.0,0.0,0.0,0.0,0.0,0.0,0.0,0.0,0.0,0.0,-2.99,-2.7339,-2.6509,0.0,0.0,0.0,0.0,0.0,0.0,-0.8829,-0.8629,-1.0684,0.0,0.0,0.0,0.0,0.0,0.0,0.0,0.0,0.0,0.0,-2.2837,-2.2637,-2.3153,-2.3804,-2.3324,-2.5986,-2.952,-3.0754,-3.2009,-3.3037,-3.3245,-3.3537,-3.3833,-3.3542,-3.3212,-3.2877,-3.2299,-3.2327,-3.2311,-3.1734,-3.2609,-3.3393,-3.3323,-3.4426,-3.5478,-3.599,-3.7628,-3.9266,-4.0352,-4.1197,-4.1725,-4.1869,-4.1514,-4.1267,-4.1267,-4.0919,-4.0785,-4.0868,-4.0529,-4.0733,-4.1595,-4.1756,-4.1772,-4.1674,-4.1593,-4.1543,-4.1494,-4.1575,-4.1575,-4.1625,-4.1528,-4.1528,-4.1625,-4.169,-4.1641,-4.1525,-4.1787,-4.1525,-4.0873,-4.0873,-4.0668,-4.0324,-4.0005,-3.9636,-3.932,-3.9118,-3.8752,-3.8354,0.0,0.0,0.0,0.0,0.0,-2.2446,-2.3677,-2.4685,-2.5847,-2.7155,-2.9341,-3.1066,-3.1763,-3.3827,-3.5732,-3.7112,-3.8166,0.0,0.0,0.0,0.0,0.0,0.0,0.0,0.0,0.0,-3.1435,-2.9237,-2.8291,-2.6475,0.0,0.0,-2.1343,-1.8127,0.0,0.0,0.0,0.0,0.0,0.0,0.0,0.0,0.0,0.0,0.0,0.0,0.0,0.0,0.0,0.0,0.0,-2.2553,-2.108,-2.2396,-2.5148,-2.7894,-2.9711,-3.0853,-3.132,-3.1889,-3.2345,-3.1924,-3.1489,-3.0961,-3.0504,-3.054,-3.0677,-3.0215,-3.1322,-3.2195,-3.1893,-3.2848,-3.3717,-3.38,-3.5334,-3.6802,-3.7526,-3.8487,-3.9173,-3.9297,-3.9047,-3.8867,-3.8867,-3.8663,-3.8444,-3.8296,-3.8311,-3.8458,-3.859,-3.8751,-3.9286,-4.0347,-4.0416,-4.0416,-4.0416,-4.0554,-4.0622,-4.0622,-4.0523,-4.0591,-4.0743,-4.0811,-4.0826,-4.0774,-4.0743,-4.0401,-3.9763,-3.9505,-3.9088,-3.8634,-3.8634,-3.8323,-3.7857,-3.789,-3.7572,-3.7127,0.0,0.0,0.0,0.0,0.0,0.0,-2.2327,-2.4826,-2.6837,-2.7222,-2.9925,-3.2287,-3.3633,-3.3582,-3.4411,-3.6887,-3.8427,0.0,0.0,0.0,0.0,0.0,0.0,0.0,0.0,0.0,-3.2967,-3.208,-2.9192,-2.7506,-2.6831,-2.4074,-2.2462,-2.1692,0.0,0.0,0.0,0.0,0.0,0.0,0.0,0.0,0.0,0.0,0.0,0.0,0.0,0.0,0.0,0.0,0.0,0.0,0.0,-2.112,0.0,-2.3765,-2.6087,-2.8056,-2.8221,-2.9176,-3.0249,-3.0751,-3.0037,-2.9297,-2.9422,-2.8682,-2.8342,-2.9188,-2.9614,-2.9999,-3.0745,-3.097,-3.1153,-3.1716,-3.2377,-3.3152,-3.4073,-3.5139,-3.5999,-3.6401,-3.6538,-3.6627,-3.6627,-3.5929,-3.5292,-3.4693,-3.4884,-3.5061,-3.5061,-3.5061,-3.6718,-4.0263,-4.0416,-4.0416,-4.0416,-4.0416,-4.0416,-4.0416,-3.9889,-3.9621,-3.9621,-3.9819,-3.9636,-3.909,-3.8956,-3.8679,-3.8202,-3.7295,-3.6958,-3.6958,-3.6958,-3.688,-3.688,-3.688,-3.688,-3.688,0.0,0.0,0.0,0.0,0.0,0.0,0.0,-2.4447,-2.6337,-2.7155,-2.9947,-3.2329,-3.3668,-3.4284,-3.5124,-3.6381,-3.7074,0.0,0.0,0.0,0.0,0.0,0.0,0.0,0.0,0.0,0.0,0.0,-3.4014,-3.2183,-2.9697,-2.8714,-2.707,-2.4888,-2.4493,-2.3755,0.0,0.0,0.0,0.0,0.0,0.0,-2.0833,0.0,0.0,0.0,0.0,0.0,0.0,0.0,0.0,0.0,0.0,0.0,0.0,-2.2221,-2.4349,-2.6359,-2.687,-2.7604,-2.8166,-2.8088,-2.7808,-2.7567,-2.7602,-2.7867,-2.8199,-2.8542,-2.916,-2.9626,-2.9328,-3.0152,-3.0797,-3.0458,-3.1317,-3.223,-3.2478,-3.3229,-3.3823,-3.395,-3.3985,-3.4028,-3.4028,-3.3832,-3.3542,-3.3396,-3.3489,-3.3569,-3.3728,-3.3728,-3.4603,-3.6626,-3.6796,-3.721,-3.7785,-3.7951,-3.8026,-3.8026,-3.7829,-3.751,-3.7084,-3.7161,-3.7161,-3.7084,-3.7042,-3.707,-3.7063,-3.6802,-3.6802,-3.688,-3.688,-3.6582,-3.6042,-3.6042,-3.5736,-3.5182,0.0,0.0,0.0,0.0,0.0,0.0,0.0,-2.4039,-2.5733,-2.7155,-2.9492,-3.182,-3.3774,-3.4653,-3.5531,-3.6557,-3.6917,0.0,0.0,0.0,0.0,0.0,0.0,0.0,0.0,0.0,0.0,0.0,0.0,0.0,-3.3127,-3.275,-3.1251,-2.8774,-2.9217,-2.8626,0.0,0.0,0.0,0.0,0.0,0.0,-2.3311,0.0,0.0,0.0,0.0,0.0,0.0,0.0,0.0,0.0,0.0,0.0,0.0,0.0,-2.3121,-2.4858,-2.5281,-2.6053,-2.6679,-2.6645,-2.6513,-2.6483,-2.7151,-2.7499,-2.7742,-2.8099,-2.8791,-2.9106,-2.859,-2.9328,-2.9845,-2.9328,-2.998,-3.0584,-3.0584,-3.108,-3.1525,-3.1741,-3.1767,-3.1767,-3.1767,-3.1767,-3.1767,-3.1767,-3.1767,-3.1835,-3.1996,-3.1996,-3.2303,-3.316,-3.4296,-3.5209,-3.5778,-3.617,-3.636,-3.6439,-3.6439,-3.6188,-3.5775,-3.5775,-3.5922,-3.6067,-3.5762,-3.5762,0.0,-3.5709,-3.5722,-3.5869,-3.5949,-3.5642,-3.5196,-3.5196,-3.4716,-3.3979,0.0,0.0,0.0,0.0,0.0,0.0,0.0,-2.3616,-2.5165,-2.7155,-2.8837,-3.0994,-3.3876,-3.4662,-3.5555,-3.7082,0.0,0.0,0.0,0.0,0.0,0.0,0.0,0.0,0.0,0.0,0.0,-3.8801,-3.7582,-3.6895,-3.6702,0.0,-3.4745,-3.302,-3.2658,-3.156,0.0,0.0,0.0,0.0,0.0,0.0,0.0,0.0,0.0,0.0,0.0,0.0,0.0,0.0,0.0,0.0,0.0,0.0,0.0,0.0,0.0,0.0,0.0,-2.459,-2.5673,-2.6199,-2.5939,-2.6036,-2.7742,-2.7499,0.0,-2.8007,-2.8351,-2.851,-2.851,-2.851,-2.851,-2.851,-2.851,-2.851,-2.851,-2.8931,-2.9424,-2.9917,-2.9977,-2.9977,-2.9977,-2.9894,-2.9882,-2.9882,-2.9798,-2.9798,-2.9798,-2.9798,-2.9798,-2.9798,-3.2299,-3.3914,-3.4285,-3.4821,-3.5197,-3.5399,-3.5399,-3.5413,-3.5453,-3.5453,-3.5534,-3.5695,-3.4937,-3.469,-3.4828,-3.4217,-3.3992,-3.3992,-3.4134,-3.4217,-3.4217,-3.4217,-3.3894,-3.3313,0.0,0.0,0.0,0.0,0.0,0.0,0.0,0.0,0.0,0.0,-2.9108,-3.069,-3.3051,-3.417,-3.5166,0.0,0.0,0.0,0.0,0.0,0.0,0.0,0.0,0.0,0.0,0.0,0.0,-3.9774,-3.932,-3.8656,-3.7819,-3.7246,0.0,0.0,-3.5711,0.0,0.0,0.0,0.0,0.0,0.0,0.0,0.0,0.0,0.0,0.0,-2.668,-2.6481,0.0,0.0,0.0,0.0,0.0,0.0,0.0,0.0,-2.3745,-2.3768,-2.3056,0.0,-2.4767,-2.4923,-2.5625,-2.637,0.0,-2.7661,-2.8167,-2.8339,-2.851,-2.851,-2.851,-2.851,-2.8431,-2.8259,-2.8259,-2.8259,-2.8259,-2.8527,-2.8739,-2.8871,-2.8883,-2.8883,-2.8883,-2.8292,-2.7871,-2.7871,-2.7186,-2.6842,-2.6842,-2.6842,-2.6842,-2.6842,-2.7859,-2.9618,-3.231,-3.2707,-3.3154,-3.3734,-3.3734,-3.3749,-3.3713,-3.3713,-3.3713,-3.3713,-3.3569,-3.3556,-3.3713,-3.2846,-3.2772,-3.3202,-3.2562,-3.2463,-3.2821,-3.2821,-3.2661,-3.2575,0.0,0.0,0.0,0.0,0.0,0.0,0.0,0.0,0.0,0.0,0.0,0.0,0.0,0.0,0.0,0.0,0.0,0.0,0.0,0.0,0.0,0.0,0.0,0.0,0.0,0.0,0.0,0.0,0.0,-3.9795,0.0,0.0,0.0,0.0,0.0,0.0,0.0,0.0,0.0,0.0,-3.2392,0.0,0.0,0.0,0.0,0.0,-2.7929,-2.7551,0.0,-2.6655,-2.6252,-2.6183,0.0,0.0,0.0,0.0,-2.4337,-2.442,-2.3327,-2.3843,-2.4498,-2.4086,-2.5025,-2.6221,-2.6954,-2.764,-2.8143,-2.8291,-2.8431,-2.851,-2.851,-2.851,-2.8419,-2.8259,-2.8259,-2.8179,-2.7661,-2.7418,-2.7255,-2.7162,-2.7162,-2.7255,-2.7255,-2.6835,-2.6588,-2.6588,-2.608,-2.5819,-2.5819,-2.5819,-2.5819,-2.5819,-2.607,-2.7257,-2.9498,-3.0355,-3.0956,-3.1477,-3.2035,-3.2364,-3.2521,-3.2679,-3.283,-3.3068,-3.2624,-3.2426,-3.2513,-3.1689,-3.1512,-3.1853,-3.1665,-3.1765,-3.2028,-3.2215,-3.214,-3.1801,0.0,0.0,0.0,0.0,0.0,0.0,0.0,0.0,0.0,0.0,0.0,0.0,0.0,0.0,0.0,0.0,0.0,0.0,0.0,0.0,0.0,0.0,0.0,0.0,0.0,0.0,0.0,0.0,0.0,0.0,0.0,0.0,-3.9764,0.0,0.0,0.0,0.0,0.0,0.0,0.0,-3.4626,0.0,0.0,0.0,0.0,0.0,0.0,0.0,0.0,-2.7709,-2.7378,-2.7258,-2.6177,0.0,0.0,0.0,0.0,0.0,-2.3875,-2.4084,-2.4476,-2.37,-2.4601,-2.5923,-2.7002,-2.7502,-2.7771,-2.8056,-2.8291,-2.851,-2.851,-2.851,-2.8419,-2.8259,-2.8259,-2.7834,-2.6741,-2.6152,-2.5735,-2.5579,-2.5746,-2.5819,-2.5819,-2.5652,-2.5579,-2.5579,-2.5484,-2.54,-2.54,-2.54,-2.54,-2.54,-2.54,-2.5678,-2.6409,-2.7856,-2.8703,-2.9005,-2.9989,-3.0805,-3.1417,-3.1573,-3.1918,-3.2376,-3.1644,-3.1316,-3.1228,-3.0485,-3.0226,-3.0406,-3.0866,-3.1134,-3.1223,-3.1689,-3.1536,-3.1026,0.0,0.0,0.0,0.0,0.0,0.0,0.0,0.0,0.0,0.0,0.0,0.0,0.0,0.0,0.0,0.0,0.0,0.0,0.0,0.0,0.0,0.0,0.0,0.0,0.0,0.0,0.0,0.0,0.0,0.0,-4.0809,-4.04,-4.0059,-3.9754,0.0,0.0,0.0,0.0,0.0,0.0,-3.6732,0.0,0.0,0.0,0.0,0.0,0.0,0.0,0.0,-2.9718,-2.9219,-2.9108,-2.7152,0.0,0.0,0.0,0.0,0.0,-2.3829,-2.3728,-2.3971,-2.4111,-2.5108,-2.6137,-2.6609,-2.7239,-2.7741,-2.7747,-2.8198,-2.851,-2.851,-2.851,-2.8419,-2.8259,-2.758,-2.673,-2.5819,-2.5746,-2.583,-2.5746,-2.5819,-2.5819,-2.5819,-2.5158,-2.4659,-2.4659,-2.3983,-2.3474,-2.3474,-2.3474,-2.3474,-2.3474,-2.3474,-2.359,-2.3737,-2.5413,-2.6657,-2.7397,-2.7567,-2.8094,-2.9016,-2.9005,-2.9223,-2.9511,-2.9695,-2.9792,-2.9827,-2.9181,-2.9268,-2.9566,-2.8817,-2.8806,-2.9176,-2.9738,-2.984,-2.9658,0.0,0.0,0.0,0.0,0.0,0.0,0.0,0.0,0.0,0.0,0.0,0.0,0.0,0.0,0.0,0.0,0.0,0.0,0.0,0.0,0.0,0.0,0.0,0.0,0.0,0.0,0.0,0.0,0.0,-4.094,-4.0882,-4.056,-4.0284,-4.0061,0.0,-3.9709,-3.9452,-3.9401,-3.8813,-3.7936,0.0,0.0,0.0,0.0,0.0,0.0,0.0,0.0,0.0,0.0,-2.9605,-2.9157,-2.8168,0.0,0.0,0.0,0.0,0.0,-2.4238,-2.4154,-2.4368,-2.4538,-2.4414,-2.4443,-2.5431,-2.596,-2.6294,-2.6588,-2.7382,-2.8089,-2.8089,-2.8318,-2.851,-2.8339,-2.7487,-2.6648,-2.6235,-2.5986,-2.5568,-2.4978,-2.4988,-2.4904,-2.4402,-2.3983,-2.3734,-2.3734,-2.3299,-2.3135,-2.3135,-2.3135,-2.3135,-2.3135,-2.3135,-2.3135,-2.3135,-2.3897,-2.4753,-2.5648,-2.622,-2.6886,-2.7707,-2.789,-2.8208,-2.8654,-2.846,-2.8408,-2.8354,-2.7769,-2.7708,-2.7925,-2.7985,-2.8081,-2.8351,-2.8445,-2.8445,-2.8341,0.0,0.0,0.0,0.0,0.0,0.0,0.0,0.0,0.0,0.0,0.0,0.0,0.0,0.0,0.0,0.0,0.0,0.0,0.0,0.0,0.0,0.0,0.0,0.0,0.0,0.0,-4.0896,-4.099,-4.1001,-4.0969,-4.0922,-4.0704,-4.0525,-4.0405,-4.0197,-3.9967,-3.9757,-3.9754,-3.9618,-3.9377,0.0,0.0,0.0,0.0,0.0,0.0,0.0,0.0,0.0,0.0,0.0,0.0,0.0,0.0,0.0,-2.6321,-2.5594,-2.4861,-2.4706,-2.455,-2.4478,-2.4718,-2.3936,-2.3479,-2.4761,-2.5082,-2.5292,-2.571,-2.6683,-2.7536,-2.7536,-2.7969,-2.8287,-2.8235,-2.7499,-2.6823,-2.6565,-2.6152,-2.5484,-2.4638,-2.4648,-2.4402,-2.3474,-2.3396,-2.3309,-2.3135,-2.3135,-2.3135,-2.3135,-2.3135,-2.3135,-2.3135,-2.3135,-2.3135,-2.3135,-2.3135,-2.3484,-2.4155,-2.4967,-2.5646,-2.6194,-2.6535,-2.699,-2.7442,-2.6976,-2.6877,-2.6821,-2.6582,-2.6465,-2.6692,-2.741,-2.7704,-2.7704,-2.7305,-2.7105,-2.6904,0.0,0.0,0.0,0.0,0.0,0.0,0.0,0.0,0.0,0.0,0.0,0.0,0.0,0.0,0.0,0.0,0.0,0.0,0.0,0.0,0.0,0.0,0.0,0.0,0.0,-4.0684,-4.0818,-4.1006,-4.0991,-4.0994,-4.0992,-4.0898,-4.083,-4.0759,-4.0668,-4.0501,-4.0254,-4.0246,-4.004,-3.9648,-3.9387,0.0,0.0,0.0,0.0,0.0,0.0,0.0,0.0,0.0,0.0,0.0,0.0,0.0,-2.7351,-2.7027,-2.6082,-2.5123,-2.5241,-2.436,-2.3559,-2.4334,-2.4694,-2.4969,-2.5218,-2.5673,-2.6032,-2.6068,-2.6524,-2.6995,-2.6995,-2.7428,-2.7699,-2.7348,-2.7185,-2.6846,-2.5986,-2.5819,-2.5735,-2.5652,-2.5652,-2.5326,-2.4498,-2.4413,-2.4079,-2.3135,-2.3135,-2.3135,-2.3135,-2.3135,-2.3135,-2.3135,-2.3135,-2.3135,-2.3135,-2.3135,-2.3135,-2.3222,-2.3309,-2.3503,-2.3707,-2.3804,-2.4074,-2.4567,-2.4913,-2.5186,-2.5404,-2.5751,-2.6185,-2.6568,-2.6692,-2.6764,-2.6829,-2.6137,-2.5557,-2.508,0.0,0.0,0.0,0.0,0.0,0.0,0.0,0.0,0.0,0.0,0.0,0.0,0.0,0.0,0.0,0.0,0.0,0.0,0.0,0.0,0.0,0.0,0.0,-4.0504,-4.066,-4.0723,-4.0829,-4.0947,-4.1029,-4.1068,-4.1062,-4.1037,-4.0974,-4.0863,-4.0837,-4.0712,-4.0552,-4.0552,-4.0448,-4.0233,-4.0004,-3.9851,0.0,0.0,0.0,0.0,0.0,0.0,0.0,0.0,-3.2219,-3.1041,-2.9864,-2.8515,-2.7324,-2.7284,-2.6458,-2.5569,-2.5627,-2.4945,-2.4261,-2.449,-2.4766,0.0,-2.4515,-2.4644,-2.4856,-2.4856,-2.5656,-2.6514,-2.6875,-2.7103,-2.7143,-2.7014,-2.7049,-2.6999,-2.6988,-2.6943,-2.6898,-2.6719,-2.667,-2.608,-2.4669,-2.4498,-2.4069,-2.3135,-2.3135,-2.3135,-2.3135,-2.3135,-2.3135,-2.3135,-2.3135,-2.3135,-2.3135,-2.2511,-2.2236,-2.2236,-2.2784,-2.3135,-2.3232,-2.3416,-2.359,-2.3774,-2.4119,-2.4277,-2.4395,-2.502,-2.5127,-2.4876,-2.5125,-2.5232,-2.5217,-2.4692,-2.4313,-2.4115,0.0,0.0,0.0,0.0,0.0,0.0,0.0,0.0,0.0,0.0,0.0,0.0,0.0,0.0,0.0,0.0,0.0,0.0,0.0,0.0,0.0,0.0,0.0,-4.0534,-4.0668,-4.075,-4.082,-4.09,-4.1035,-4.1097,-4.1097,-4.1091,-4.1051,-4.0961,-4.0968,-4.0918,-4.083,-4.0829,-4.0787,-4.0687,-4.0496,-4.0358,0.0,0.0,0.0,0.0,0.0,0.0,0.0,0.0,-3.2861,-3.1637,-3.0749,-2.931,-2.7933,-2.7894,-2.6976,-2.5894,-2.5767,-2.5253,-2.479,-2.4646,0.0,0.0,-2.4371,-2.4348,-2.4492,-2.4492,-2.5218,-2.6009,-2.6562,-2.6671,-2.6731,-2.6899,-2.6935,-2.7055,-2.7428,-2.7476,-2.7365,-2.7158,-2.7114,-2.6438,-2.485,-2.4693,-2.4163,-2.3125,-2.3047,-2.3057,-2.2969,-2.2969,-2.3047,-2.3135,-2.3057,-2.3057,-2.3135,-2.2148,-2.1695,-2.1695,-2.205,-2.2325,-2.2687,-2.3135,-2.3416,-2.3503,-2.3309,-2.3299,-2.3406,-2.3526,-2.3553,-2.3396,-2.3636,-2.3879,-2.3932,-2.335,-2.3231,-2.3238,0.0,0.0,0.0,0.0,0.0,0.0,0.0,0.0,0.0,0.0,0.0,0.0,0.0,0.0,0.0,0.0,0.0,0.0,0.0,0.0,0.0,0.0,0.0,-4.0588,-4.0588,-4.0726,-4.0829,-4.09,-4.1035,-4.1097,-4.1108,-4.1108,-4.1104,0.0,-4.1094,-4.11,-4.1095,-4.1095,-4.1025,-4.0878,-4.0757,-4.0577,-4.0353,0.0,0.0,0.0,0.0,0.0,0.0,0.0,-3.4382,-3.3673,-3.247,-3.0984,-2.9572,-2.8884,-2.7472,-2.6057,-2.5664,-2.5206,-2.479,-2.479,-2.4921,-2.5123,-2.5123,-2.5182,-2.5312,-2.5312,-2.5312,-2.5468,-2.5997,-2.6093,-2.6274,-2.6827,-2.6911,-2.6923,-2.6923,-2.6923,-2.6923,-2.6935,-2.6935,-2.6417,-2.5135,-2.5017,-2.4398,-2.2931,-2.296,-2.3047,-2.2794,-2.2803,-2.2882,-2.3057,-2.2882,-2.2882,-2.3047,-2.2148,-2.1695,-2.1695,-2.0692,-2.0692,-2.1695,-2.2687,-2.3232,-2.3406,-2.2403,-2.212,-2.2306,-2.1293,-2.1455,-2.2437,-2.2478,-2.2781,-2.3035,-2.2282,-2.2227,-2.2544,0.0,0.0,0.0,0.0,0.0,0.0,0.0,0.0,0.0,0.0,0.0,0.0,0.0,0.0,0.0,0.0,0.0,0.0,0.0,0.0,0.0,0.0,0.0,0.0,0.0,0.0,-4.0928,-4.0896,-4.1035,-4.1091,-4.1108,-4.1108,0.0,-4.1094,0.0,-4.1091,-4.1095,-4.1103,-4.1085,-4.1038,-4.0943,-4.0859,-4.0699,0.0,0.0,0.0,0.0,0.0,0.0,0.0,0.0,0.0,-3.2531,-3.185,-3.1213,-2.9226,-2.8241,-2.7604,-2.6308,-2.5594,-2.5123,-2.4861,-2.5052,-2.5241,-2.5111,-2.5182,-2.5312,-2.5312,-2.5312,-2.536,-2.5516,-2.554,-2.56,-2.5769,-2.5793,-2.5925,-2.6286,-2.6346,-2.649,-2.6887,-2.6935,-2.6276,-2.4766,-2.4538,-2.4006,-2.2666,-2.2609,-2.2746,-2.2784,-2.2803,-2.2715,-2.2608,-2.253,-2.2246,-2.1587,-2.0791,-2.0068,-1.9338,-1.9063,-1.9513,-2.0692,-2.0962,-2.1141,-2.1141,-2.0863,-2.0773,-2.0773,-2.015,-2.0408,-2.111,-2.0568,-2.0757,-2.1311,-2.0999,-2.1319,-2.1827,0.0,0.0,0.0,0.0,0.0,0.0,0.0,0.0,0.0,0.0,0.0,0.0,0.0,0.0,0.0,0.0,0.0,0.0,0.0,0.0,0.0,0.0,0.0,0.0,0.0,-4.0863,-4.0972,-4.0949,-4.1054,-4.1108,-4.1108,0.0,-4.1104,-4.1097,0.0,-4.1081,-4.1111,-4.1052,-4.1032,-4.1059,-4.103,-4.0971,-4.0859,0.0,0.0,0.0,0.0,0.0,0.0,0.0,0.0,0.0,-3.3542,0.0,-3.2516,-3.0098,-2.9039,-2.8292,-2.6748,-2.5849,-2.5241,-2.5052,-2.5182,-2.5312,-2.5182,-2.5241,-2.5312,-2.5312,-2.5312,-2.5312,-2.5312,-2.5312,-2.5312,-2.5312,-2.5312,-2.542,-2.5745,-2.5781,-2.5913,-2.625,-2.6286,-2.5828,-2.4636,-2.4271,-2.3679,-2.2625,-2.2424,-2.2281,-2.2438,-2.2379,-2.2358,-2.2432,-2.2353,-2.1891,-2.1042,-2.0158,-1.9247,-1.8234,-1.787,-1.8056,-1.8772,-1.9695,-2.015,-2.0141,-1.9786,-1.9422,-1.9055,-1.898,-1.9171,-1.9563,-1.9236,-1.9533,-2.0087,-2.0149,-2.0392,-2.0601,0.0,0.0,0.0,0.0,0.0,0.0,0.0,0.0,0.0,0.0,0.0,0.0,0.0,0.0,0.0,0.0,0.0,0.0,0.0,0.0,0.0,0.0,0.0,0.0,-4.08,-4.0942,-4.0992,-4.0996,-4.1073,-4.1108,0.0,0.0,-4.1108,-4.1108,0.0,-4.1042,-4.1085,-4.0961,-4.0953,-4.1006,-4.1011,-4.0971,-4.0869,-4.0544,0.0,0.0,0.0,0.0,0.0,0.0,0.0,0.0,-3.5153,-3.4414,-3.359,-3.1312,-2.9718,-2.8407,-2.7005,-2.5975,-2.5312,-2.5382,-2.5312,-2.5229,-2.5158,-2.5158,-2.5229,-2.53,-2.5312,-2.5312,-2.5312,-2.5312,-2.5312,-2.5312,-2.5312,-2.5312,-2.5312,-2.5312,-2.5312,-2.5312,-2.5312,-2.5123,-2.4688,-2.3971,-2.3257,-2.2635,-2.2053,-2.1752,-2.175,-2.1721,-2.191,-2.2277,-2.2167,-2.1624,-2.0773,-1.9886,-1.888,-1.7855,-1.6943,-1.6588,-1.6676,-1.8703,-1.9795,-1.9869,-1.8964,-1.8056,-1.7232,-1.7613,-1.7893,-1.7986,-1.8357,-1.8754,-1.9178,-1.95,-1.9345,-1.9085,0.0,0.0,0.0,0.0,0.0,0.0,0.0,0.0,0.0,0.0,0.0,0.0,0.0,0.0,0.0,0.0,0.0,0.0,0.0,0.0,0.0,-3.9502,-3.9965,-4.0438,-4.0856,-4.0953,-4.0994,-4.1007,-4.1072,-4.1108,0.0,0.0,0.0,-4.1097,0.0,-4.1096,-4.1106,-4.107,-4.1078,-4.1085,-4.1078,-4.1038,-4.0943,-4.0667,-4.0487,0.0,0.0,0.0,0.0,0.0,0.0,0.0,-3.5985,-3.5363,-3.4603,-3.1855,-3.044,-2.9293,-2.7326,-2.6195,-2.5535,-2.5758,-2.5158,-2.4564,-2.4409,-2.4337,-2.4564,-2.5158,-2.5312,-2.5312,-2.5312,-2.5312,-2.5312,-2.5312,-2.5312,-2.5312,-2.5312,-2.5312,-2.5312,-2.5312,-2.5312,-2.4766,-2.3546,-2.326,-2.27,-2.156,-2.1277,-2.1216,-2.1296,-2.1466,-2.15,-2.141,-2.1646,-2.0997,-1.9338,-1.9247,-1.8326,-1.6588,-1.6407,-1.6407,-1.6581,-1.7333,-1.7707,-1.787,-1.7124,-1.6655,-1.6379,-1.5906,-1.5994,-1.6372,-1.6655,-1.6845,-1.7022,-1.7294,-1.747,-1.7531,0.0,0.0,0.0,0.0,0.0,0.0,0.0,0.0,0.0,0.0,0.0,0.0,0.0,0.0,0.0,0.0,0.0,0.0,0.0,0.0,0.0,0.0,-4.0174,-4.0482,-4.0897,-4.0961,-4.0992,-4.0996,-4.1069,0.0,0.0,0.0,0.0,-4.1101,0.0,-4.1072,-4.1105,-4.107,-4.1064,-4.1089,-4.1103,-4.1085,-4.103,-4.0789,-4.0648,-4.0519,-3.9929,0.0,0.0,0.0,0.0,0.0,0.0,0.0,-3.538,-3.3272,-3.1673,-3.0189,-2.8534,-2.7139,-2.6139,-2.5968,-2.5241,-2.4492,-2.4264,-2.3986,-2.3779,-2.4131,-2.4791,-2.5312,-2.5312,-2.5312,-2.5312,-2.5312,-2.5312,-2.5312,-2.5312,-2.5312,-2.5312,-2.5312,-2.5312,-2.4862,-2.361,-2.3169,-2.2617,-2.1575,-2.0977,-2.0694,-2.0869,-2.0921,-2.0968,-2.1099,-2.1319,-2.0526,-1.8788,-1.8972,-1.7956,-1.6028,-1.6028,-1.6116,-1.6407,-1.6791,-1.6972,-1.6958,-1.6386,-1.6103,-1.5913,-1.5343,-1.5242,-1.552,-1.5622,-1.5714,-1.5763,-1.6005,-1.6037,-1.5806,0.0,0.0,0.0,0.0,0.0,0.0,0.0,0.0,0.0,0.0,0.0,0.0,0.0,0.0,0.0,0.0,0.0,0.0,0.0,0.0,0.0,0.0,-4.0396,-4.0557,-4.0877,-4.0967,-4.101,-4.1023,0.0,0.0,0.0,0.0,0.0,-4.1108,0.0,-4.1025,-4.1085,-4.1019,-4.1033,-4.1111,-4.1095,-4.1103,-4.1078,-4.0887,-4.082,-4.0751,-4.0323,-3.9984,-3.9713,-3.9433,0.0,0.0,0.0,0.0,-3.6053,-3.4731,-3.3013,-3.1279,-2.9964,-2.8319,-2.6867,-2.6094,-2.5312,-2.4636,-2.4337,-2.3779,-2.3276,-2.2968,-2.3986,-2.4874,-2.4874,-2.4874,-2.4874,-2.4874,-2.4874,-2.4874,-2.4874,-2.4874,-2.4874,-2.4874,-2.4874,-2.4576,-2.3745,-2.3169,-2.2435,-2.1614,-2.0712,-2.0251,-2.0192,-2.0033,-2.0126,-2.0621,-2.0593,-2.0015,-1.87,-1.858,-1.7591,-1.5832,-1.5832,-1.5832,-1.5933,-1.6407,-1.6494,-1.6292,-1.5805,-1.5425,-1.5248,-1.4765,-1.4573,-1.4765,-1.486,-1.486,-1.4796,-1.5111,-1.4712,-1.3992,0.0,0.0,0.0,0.0,0.0,0.0,0.0,0.0,0.0,0.0,0.0,0.0,0.0,0.0,0.0,0.0,0.0,0.0,-3.8667,0.0,0.0,-4.0288,-4.0427,-4.0591,-4.081,-4.094,-4.1027,-4.109,0.0,0.0,0.0,0.0,0.0,-4.1085,0.0,-4.0928,-4.1094,-4.0961,-4.0993,-4.1095,-4.1097,-4.1091,-4.1085,-4.0943,-4.0849,-4.078,-4.061,-4.0463,-4.0335,-4.0005,-3.9686,0.0,0.0,0.0,-3.6788,-3.5076,-3.3843,-3.2672,-3.1083,-2.9171,-2.7338,-2.6164,-2.5465,-2.4707,-2.3818,-2.3526,-2.3316,-2.2617,-2.2894,-2.3327,-2.3327,-2.3327,-2.3327,-2.3327,-2.3327,-2.3327,-2.3327,-2.3327,-2.3327,-2.3327,-2.3327,-2.3021,-2.2209,-2.1983,-2.1538,-2.0566,-2.0177,-1.9557,-1.862,-1.8719,-1.888,-1.8901,-1.8742,-1.8556,-1.8261,-1.7734,-1.6951,-1.5832,-1.5832,-1.535,-1.4586,-1.486,-1.5045,-1.514,-1.3494,-1.3017,-1.3409,-1.2743,-1.2657,-1.3147,-1.3811,-1.3715,-1.3147,-1.3846,-1.3265,-1.2122,0.0,0.0,0.0,0.0,0.0,0.0,0.0,0.0,0.0,0.0,0.0,0.0,0.0,0.0,0.0,-3.7577,-3.8212,-3.8781,-3.9231,-3.9766,-4.0177,-4.0457,-4.0571,-4.0707,-4.091,-4.1013,-4.1077,0.0,0.0,0.0,0.0,-4.0929,-4.089,0.0,0.0,0.0,0.0,-4.1003,-4.1052,-4.1096,-4.11,-4.1089,-4.1084,-4.1038,-4.0996,-4.0968,-4.0906,-4.08,-4.0629,-4.0419,-4.0005,-3.9501,-3.8968,0.0,0.0,0.0,-3.5199,-3.3579,-3.1498,-2.9434,-2.7723,-2.7204,-2.5894,-2.4492,-2.3963,-2.3095,-2.2231,-2.1807,-2.1873,-2.2231,-2.3054,-2.3202,-2.3128,-2.3032,-2.3032,-2.3032,-2.3032,-2.3032,-2.3032,-2.3032,-2.3032,-2.266,-2.1918,-2.1832,-2.1145,-1.9687,-1.9292,-1.8718,-1.7649,-1.7581,-1.7606,-1.7887,-1.7774,-1.7589,-1.7174,-1.7152,-1.6679,-1.5825,-1.5255,-1.4777,-1.4298,-1.3216,-1.3108,-1.3692,-1.2727,-1.2339,-1.2441,-1.2165,-1.2175,-1.237,-1.3044,-1.305,-1.2861,-1.3147,-1.2569,-1.155,0.0,0.0,0.0,0.0,0.0,0.0,0.0,0.0,0.0,0.0,0.0,0.0,0.0,0.0,0.0,0.0,-3.856,-3.9163,-3.981,-4.0099,-4.0339,-4.0559,-4.0672,-4.0811,-4.0961,-4.1055,0.0,0.0,0.0,0.0,-4.1091,-4.0902,-4.0837,0.0,-4.0948,-4.0955,0.0,-4.1037,-4.1074,-4.1094,-4.11,-4.1106,-4.1095,-4.1103,-4.1091,-4.111,-4.111,-4.1011,-4.0849,-4.0703,-4.0312,-3.9853,-3.9588,-3.885,0.0,0.0,0.0,-3.4202,-3.186,-2.9929,-2.8515,-2.8103,-2.6339,-2.4624,-2.4264,-2.2968,-2.1807,-2.1436,-2.1205,-2.1415,-2.2467,-2.2456,-2.2295,-2.2113,-2.1876,-2.1714,-2.1714,-2.1714,-2.1714,-2.1714,-2.1714,-2.1486,-2.0894,-2.0817,-2.011,-1.8709,-1.831,-1.7738,-1.6683,-1.6445,-1.6487,-1.682,-1.6661,-1.648,-1.6213,-1.6443,-1.6125,-1.5233,-1.4644,-1.4004,-1.342,-1.1955,-1.1468,-1.1858,-1.1663,-1.1565,-1.157,-1.1775,-1.1785,-1.1883,-1.237,-1.2565,-1.2565,-1.2565,-1.1915,-1.1019,0.0,0.0,0.0,0.0,0.0,0.0,0.0,0.0,0.0,0.0,0.0,0.0,0.0,-3.7755,-3.8158,-3.8355,-3.9141,-3.9838,-4.0233,-4.0289,-4.0353,-4.0491,-4.0696,0.0,-4.0909,-4.1033,0.0,0.0,0.0,0.0,-4.1096,-4.1081,-4.1022,-4.0882,-4.0699,-4.0791,-4.1085,0.0,0.0,-4.1094,-4.11,-4.1106,-4.1095,-4.1095,-4.1103,-4.111,-4.111,-4.1085,-4.1052,-4.0869,-4.078,-4.0633,-3.9986,-3.9643,-3.9255,0.0,0.0,0.0,-3.2591,-3.1153,-2.984,-2.84,-2.6773,-2.5346,-2.4552,-2.3632,-2.2703,-2.1949,-2.1328,-2.0867,-2.0799,-2.0235,-1.9756,-1.9529,-1.8798,-1.823,-1.823,-1.823,-1.823,-1.823,-1.823,-1.823,-1.8238,-1.806,-1.7738,-1.7415,-1.7163,-1.6601,-1.5553,-1.547,-1.5484,-1.5499,-1.4963,-1.503,-1.5806,-1.5639,-1.4922,-1.3894,-1.4165,-1.3221,-1.1365,-1.1268,-1.069,-0.9723,-0.9723,-1.0019,-1.0507,-1.0998,-1.1194,-1.1292,-1.178,-1.2078,-1.2078,-1.2078,-1.1123,-0.9904,0.0,0.0,0.0,0.0,0.0,0.0,0.0,0.0,0.0,0.0,0.0,0.0,0.0,-3.7859,-3.8241,-3.8857,-3.947,-3.9876,-4.002,-4.0196,-4.0353,-4.0491,-4.0696,-4.0848,-4.0961,-4.1047,0.0,0.0,0.0,-4.1091,-4.11,-4.1013,-4.0987,-4.1031,-4.0948,-4.0935,-4.0978,-4.1037,-4.107,-4.1104,-4.1094,-4.11,-4.1106,-4.11,-4.1103,-4.111,-4.111,-4.111,-4.1078,-4.0915,-4.0849,-4.074,-4.0414,-4.0042,-3.9471,-3.8159,-3.692,-3.5728,-3.4394,-3.2793,-3.1192,-2.999,-2.8126,-2.6246,-2.4874,-2.3503,-2.2339,-2.1395,-2.0702,-2.0226,-2.0001,-1.9766,-1.945,-1.8975,-1.8656,-1.8327,-1.8078,-1.7997,-1.7997,-1.7997,-1.7997,-1.7997,-1.7997,-1.7908,-1.7504,-1.6527,-1.6363,-1.5794,-1.4657,-1.458,-1.458,-1.458,-1.4352,-1.415,-1.4047,-1.3996,-1.3635,-1.2929,-1.2368,-1.1819,-1.1175,-1.0498,-0.9916,-0.9628,-0.9628,-0.9727,-0.992,-1.0511,-1.0708,-1.0708,-1.1292,-1.1688,-1.198,-1.198,-1.1428,-1.0739,0.0,0.0,0.0,0.0,0.0,0.0,0.0,0.0,0.0,0.0,0.0,0.0,0.0,0.0,-3.8536,-3.9414,-3.9826,-4.0038,-4.0059,-4.0215,-4.0406,-4.0557,-4.0703,-4.0849,-4.1007,0.0,0.0,0.0,0.0,0.0,0.0,-4.1,-4.1013,-4.1109,-4.1104,-4.1051,-4.0978,-4.1058,-4.1108,-4.1108,-4.1101,-4.1094,-4.11,-4.1091,-4.11,-4.1103,-4.1097,-4.1109,-4.1095,-4.1006,-4.0933,-4.0867,-4.0731,-4.0281,-3.9621,-3.8533,-3.7675,-3.6808,-3.5797,-3.4199,-3.2662,-3.1713,-2.9468,-2.7129,-2.6065,-2.4281,-2.2606,-2.1821,-2.0817,-2.0051,-1.9747,-1.9362,-1.8895,-1.8336,-1.8014,-1.7691,-1.7196,-1.7115,-1.7115,-1.7115,-1.7115,-1.7115,-1.7115,-1.7033,-1.6617,-1.5636,-1.5462,-1.5061,-1.4173,-1.4088,-1.4088,-1.4088,-1.3828,-1.3395,-1.2964,-1.2786,-1.2372,-1.1765,-1.1179,-1.0752,-1.059,-0.9891,-0.9628,-0.9628,-0.9628,-0.9628,-0.9628,-1.0216,-1.0314,-1.0216,-1.0703,-1.1194,-1.1487,-1.1683,-1.138,-1.0927,0.0,0.0,0.0,0.0,0.0,0.0,0.0,0.0,0.0,0.0,0.0,0.0,0.0,0.0,0.0,-3.9996,-4.0215,-4.0328,-4.0398,-4.0398,-4.0476,-4.0681,-4.0694,-4.0789,-4.0981,0.0,0.0,0.0,0.0,0.0,0.0,0.0,-4.1109,-4.1108,-4.1108,-4.1108,-4.1108,-4.1108,-4.1108,-4.1108,-4.1108,-4.1104,-4.1094,-4.1094,-4.1105,-4.1091,-4.11,-4.11,-4.1108,-4.1097,-4.1111,-4.1099,-4.0903,-4.0436,-3.9849,-3.9282,-3.8637,-3.7884,0.0,0.0,0.0,-3.3416,-3.0741,-2.8203,-2.8139,-2.5934,-2.3806,-2.3294,-2.178,-2.042,-1.9972,-1.8895,-1.7951,-1.744,-1.673,-1.6004,-1.5506,-1.5431,-1.5431,-1.5431,-1.5347,-1.5347,-1.5347,-1.5173,-1.4915,-1.465,-1.4482,-1.4237,-1.4004,-1.3997,-1.3997,-1.3997,-1.3137,-1.2619,-1.2619,-1.2085,-1.1222,-1.0159,-1.0664,-1.0301,-0.936,-0.9543,-0.9628,-0.9628,-0.9628,-0.9628,-0.9628,-1.0117,-1.0117,-0.9628,-1.0216,-1.0413,-1.0507,-1.0998,-1.089,-1.0319,0.0,0.0,0.0,0.0,0.0,0.0,0.0,0.0,0.0,0.0,0.0,0.0,0.0,-3.8773,-3.9464,-3.9735,-4.0077,-4.031,-4.0328,-4.0328,-4.0363,-4.0425,-4.0506,-4.061,-4.0696,0.0,0.0,0.0,0.0,0.0,0.0,0.0,0.0,0.0,-4.1097,-4.1101,-4.1108,-4.1108,-4.1108,-4.1108,-4.1108,-4.1104,-4.1094,-4.1094,-4.1105,-4.1091,-4.1111,-4.1091,-4.1096,-4.1097,-4.148,-4.1933,-4.1788,-4.1466,-4.0934,-3.9946,-3.9322,-3.8767,-3.7845,0.0,0.0,0.0,0.0,0.0,-2.8664,-2.7131,-2.5605,-2.3425,-2.2211,-2.1171,-1.9904,-1.9362,-1.8736,-1.7619,-1.7229,-1.6902,-1.6409,-1.565,-1.5151,-1.5151,-1.4489,-1.399,-1.399,-1.3899,-1.3639,-1.3039,-1.2948,-1.2607,-1.21,-1.21,-1.21,-1.21,-1.1843,-1.1322,-1.0722,-1.0522,-1.0014,-0.9178,-0.9423,-0.9514,-0.936,-0.9543,-0.9628,-0.9628,-0.9628,-0.9628,-0.9628,-0.9727,-0.9727,-0.9628,-0.9727,-1.0019,-1.0507,-1.0998,-1.089,-1.0417,0.0,0.0,0.0,0.0,0.0,0.0,0.0,0.0,0.0,0.0,0.0,0.0,0.0,0.0,-3.9647,-3.9712,-4.0036,-4.0253,-4.0291,-4.0291,-4.0308,-4.0325,-4.0422,-4.0492,-4.0557,0.0,0.0,0.0,0.0,0.0,0.0,0.0,0.0,0.0,0.0,0.0,-4.1108,-4.1108,-4.1081,-4.1066,-4.1085,-4.1078,-4.1091,-4.1484,-4.1644,-4.1694,-4.2041,-4.2178,-4.2186,-4.217,-4.2494,-4.2871,-4.2766,-4.2539,-4.2221,-4.1532,-4.0767,-4.0063,-3.9496,-3.8511,-3.7354,-3.6093,0.0,0.0,-3.0866,-2.9012,-2.7197,-2.4849,-2.3425,-2.2211,-2.0894,-2.044,-1.9806,-1.8647,-1.8416,-1.7925,-1.6394,-1.556,-1.497,-1.4559,-1.3899,-1.3398,-1.3398,-1.3398,-1.313,-1.2351,-1.2272,-1.2015,-1.1327,-1.1327,-1.1327,-1.1327,-1.0895,-1.0463,-0.9946,-0.9515,-0.9138,-0.8718,-0.8897,-0.9076,-0.9254,-0.9433,-0.9555,-0.9628,-0.9628,-0.9628,-0.9628,-0.9628,-0.9628,-0.9628,-0.9628,-0.9821,-1.0117,-1.09,-1.0993,-1.0708,0.0,0.0,0.0,0.0,0.0,0.0,0.0,0.0,0.0,0.0,0.0,0.0,0.0,0.0,0.0,0.0,-4.0015,-4.0157,-4.0289,-4.0307,-4.0326,-4.0398,-4.0398,-4.0425,-4.0482,0.0,0.0,0.0,0.0,0.0,0.0,0.0,0.0,0.0,0.0,0.0,-4.1108,-4.1108,-4.1124,-4.1156,-4.123,-4.1261,-4.1401,-4.2225,-4.2533,-4.265,-4.342,-4.37,-4.3713,-4.3803,-4.3823,-4.3815,-4.3751,-4.3663,-4.353,-4.3364,-4.2505,-4.1553,-4.1341,-4.0155,-3.8867,-3.835,-3.6653,0.0,-3.3811,-3.1374,-2.8858,-2.7367,-2.5534,-2.391,-2.2848,-2.2104,-2.1293,-2.0401,-2.011,-1.9,-1.6124,-1.5387,-1.4803,-1.3984,-1.3476,-1.3228,-1.3228,-1.3228,-1.2881,-1.218,-1.2009,-1.1666,-1.1068,-1.0982,-1.0982,-1.0982,-1.0202,-0.9772,-0.9772,-0.8999,-0.8568,-0.8568,-0.8739,-0.8909,-0.9076,-0.9267,-0.9441,-0.96,-0.962,-0.9628,-0.9628,-0.9628,-0.9628,-0.9628,-0.9628,-0.9628,-0.9727,-1.0801,-1.1096,-1.09,-3.1394,0.0,0.0,0.0,0.0,0.0,0.0,0.0,0.0,0.0,0.0,0.0,0.0,0.0,0.0,0.0,-3.9933,-4.0157,-4.0291,-4.0291,-4.031,-4.031,-4.0308,-4.0342,-4.0339,-4.0438,0.0,0.0,0.0,0.0,0.0,0.0,0.0,0.0,0.0,0.0,-4.1108,-4.1108,-4.1476,-4.2052,-4.2128,-4.2568,-4.3185,-4.3388,-4.345,-4.3469,-4.3645,-4.37,-4.3794,-4.4452,-4.466,-4.4669,-4.4645,-4.4629,-4.4452,-4.3617,-4.3178,-4.284,-4.2489,-4.1533,-4.0469,-3.9786,-3.8496,0.0,-3.5317,-3.3997,-3.2645,-3.0818,-2.9557,-2.8211,-2.6621,-2.5406,-2.4153,-2.2633,-2.1363,-1.9906,-1.8086,-1.6363,-1.5206,-1.4796,-1.33,-1.2209,-1.2043,-1.2037,-1.1774,-1.0982,-1.0294,-0.9689,-0.9174,-0.9087,-0.9087,-0.9087,-0.8911,-0.8828,-0.8828,-0.8652,-0.8568,-0.8568,-0.8739,-0.884,-0.8885,-0.9206,-0.9372,-0.9417,-0.9563,-0.9628,-0.9628,-0.9628,-0.9628,-0.9628,-0.9628,-0.9628,-0.9727,-1.0801,-1.0699,-0.9903,-3.1495,0.0,0.0,0.0,0.0,0.0,0.0,0.0,0.0,0.0,0.0,0.0,-3.896,-3.921,-3.9401,-3.9735,-3.9911,-4.0096,-4.0291,-4.031,-4.031,-4.031,-4.0291,-4.0309,-4.0309,-4.0358,0.0,0.0,0.0,0.0,0.0,0.0,0.0,0.0,0.0,0.0,-4.1035,-4.1548,-4.2229,-4.2954,-4.2565,-4.2893,-4.3695,-4.4165,-4.4348,-4.4406,-4.4836,-4.4995,-4.5057,-4.5414,-4.5542,-4.5551,-4.5558,-4.5542,-4.5448,-4.4931,-4.4467,-4.4039,-4.3717,-4.2955,-4.209,-4.1449,-4.0333,0.0,0.0,-3.6145,-3.4618,-3.2918,-3.1852,-3.079,-2.9199,-2.8174,-2.7026,-2.5357,-2.3798,-2.2168,-2.0285,-1.7696,-1.5779,-1.5123,-1.362,-1.2619,-1.2534,-1.2032,-1.1348,-1.0381,-0.9694,-0.9087,-0.8656,-0.8568,-0.8388,-0.8028,-0.8028,-0.8028,-0.8028,-0.8028,-0.8208,-0.8568,-0.8653,-0.8739,-0.8828,-0.9007,-0.9185,-0.936,-0.9449,-0.9543,-0.9628,-0.9628,-0.9628,-0.9628,-0.9628,-0.9628,-0.9727,-1.0801,-1.0895,-1.0301,-3.1652,-3.1823,0.0,0.0,0.0,0.0,0.0,0.0,0.0,0.0,-3.7667,-3.8267,-3.9202,-3.9194,-3.9298,-3.9693,-3.9758,-3.9946,-4.0405,-4.0444,-4.0482,-4.054,-4.0692,-4.0635,-4.031,-4.0463,-4.048,0.0,0.0,0.0,0.0,0.0,0.0,0.0,0.0,0.0,-4.1192,-4.201,-4.2978,-4.3876,-4.3183,-4.3368,-4.4163,-4.4957,-4.5219,-4.5312,-4.6042,-4.6309,-4.6297,-4.6243,-4.6217,-4.6209,-4.6192,-4.6209,-4.6195,-4.6189,-4.5703,-4.5102,-4.4939,-4.4284,-4.3538,-4.3101,-4.2024,-4.0819,0.0,0.0,0.0,-3.5002,-3.4047,-3.3129,-3.195,-3.1152,-3.014,-2.8657,-2.7051,-2.5245,-2.3156,-2.0291,-1.7675,-1.5606,-1.4455,-1.3698,-1.3451,-1.2369,-1.1262,-1.0212,-0.9694,-0.9174,-0.8564,-0.8476,-0.8028,-0.7312,-0.7312,-0.7312,-0.7312,-0.7312,-0.7669,-0.8388,-0.8212,-0.8371,-0.8775,-0.8627,-0.8902,-0.9307,-0.934,-0.9458,-0.9628,-0.9628,-0.9628,-0.9628,-0.9628,-0.9628,-0.9821,-1.0801,-1.1292,-1.1194,-3.1278,-3.1667,0.0,0.0,0.0,0.0,0.0,0.0,-3.6087,-3.8302,-3.8204,-3.8334,-3.9502,-3.922,-3.8989,-3.909,-3.9208,-3.9733,-4.0851,-4.0975,-4.1121,-4.1361,-4.2106,-4.182,-4.0329,-4.0998,-4.1017,0.0,0.0,0.0,0.0,0.0,0.0,0.0,-4.074,-4.1247,-4.1983,-4.2151,-4.3212,-4.475,-4.472,-4.5138,-4.5832,-4.6069,-4.608,-4.6001,-4.623,-4.6296,-4.6296,-4.6297,-4.6243,-4.62,-4.6209,-4.6202,-4.6208,-4.6199,-4.6128,-4.6046,-4.6019,-4.5294,-4.453,-4.4403,-4.3415,-4.2213,-4.1283,0.0,-3.9526,-3.859,0.0,-3.6783,-3.6344,0.0,0.0,-3.295,-3.1022,-2.9115,-2.7639,-2.5813,-2.2717,-1.7357,-1.5951,-1.4949,-1.3789,-1.2454,-1.1348,-1.0549,-1.012,-0.9428,-0.8288,-0.7845,-0.7312,-0.6517,-0.6517,-0.6517,-0.6517,-0.6517,-0.6871,-0.7577,-0.6962,-0.7326,-0.8601,-0.8121,-0.8383,-0.9137,-0.9287,-0.9458,-0.9628,-0.9628,-0.9628,-0.9628,-0.9628,-0.9924,-1.0408,-1.1002,-1.1487,-1.1683,-3.1234,-3.161,-3.2048,0.0,0.0,0.0,0.0,0.0,-3.7689,-3.9053,-3.9282,-3.9585,-4.0386,-4.051,-4.0541,-4.0626,-4.0699,-4.099,-4.1652,-4.1718,-4.1892,-4.224,-4.2603,-4.2469,-4.1781,-4.2087,-4.2087,-4.1762,-4.1762,0.0,0.0,0.0,0.0,0.0,-4.0583,-4.113,-4.2013,-4.2635,-4.3638,-4.4842,-4.5445,-4.5866,-4.6105,-4.6245,-4.6269,-4.6216,-4.6277,-4.6296,-4.63,-4.6264,-4.6243,-4.6231,-4.6171,-4.617,-4.6184,-4.6149,-4.6191,-4.625,-4.621,-4.5858,-4.5504,-4.5535,-4.4724,-4.3799,-4.3365,-4.2656,-4.1776,-4.063,0.0,0.0,0.0,0.0,0.0,0.0,-3.3829,-3.2142,-3.0637,-2.9114,-2.6419,-2.1881,-1.9474,-1.721,-1.4935,-1.3451,-1.2351,-1.1655,-1.0804,-0.968,-0.8285,-0.8021,-0.7228,-0.5902,-0.5813,-0.5813,-0.5813,-0.5813,-0.6166,-0.6871,-0.6517,-0.6697,-0.7319,-0.756,-0.7858,-0.8394,-0.8937,-0.9307,-0.9478,-0.9583,-0.9628,-0.9628,-0.9628,-0.992,-1.0507,-1.0998,-1.159,-1.178,-3.1279,-3.1672,-3.2109,-3.2795,-3.3583,-3.4586,-3.596,-3.7585,-3.8981,-3.9752,-4.0003,-4.0366,-4.1079,-4.1213,-4.1366,-4.1537,-4.1508,-4.1716,-4.2205,-4.2302,-4.2491,-4.2807,-4.3183,-4.313,-4.2652,-4.2883,-4.2923,-4.2754,0.0,0.0,0.0,0.0,0.0,0.0,-4.1034,-4.1581,-4.2524,-4.3277,-4.4148,-4.5089,-4.5831,-4.6132,-4.6133,-4.6221,-4.6273,-4.63,-4.63,-4.63,-4.6284,-4.6245,-4.6245,-4.6262,-4.615,-4.6151,-4.6191,-4.6147,-4.6204,-4.6284,-4.6247,-4.618,-4.6175,-4.6211,-4.5683,-4.5096,-4.4816,-4.4211,-4.3408,-4.2225,-4.177,0.0,0.0,0.0,-3.8464,-3.7653,0.0,-3.5279,-3.3877,-3.2578,-3.0107,-2.5722,-2.235,-1.9378,-1.6823,-1.4975,-1.3503,-1.2668,-1.1397,-0.9937,-0.8189,-0.7929,-0.7048,-0.5193,-0.5104,-0.5104,-0.5104,-0.5104,-0.5458,-0.6166,-0.5897,-0.5985,-0.6428,-0.6782,-0.7221,-0.7829,-0.8548,-0.9001,-0.9368,-0.9551,-0.9628,-0.9628,-0.9727,-1.0117,-1.0703,-1.11,-1.1487,-1.158,-3.1366,-3.1679,-3.2262,-3.346,-3.3999,-3.4984,-3.6953,-3.8094,-3.9147,-4.034,-3.997,-4.0121,-4.1357,-4.0724,-4.0438,-4.0903,-4.0823,-4.1168,-4.2212,-4.26,-4.2827,-4.2884,-4.4146,-4.4018,-4.2262,-4.3109,-4.3259,-4.261,0.0,0.0,0.0,0.0,0.0,0.0,-4.2419,-4.2984,-4.3944,-4.4042,-4.4757,-4.5866,-4.5971,-4.6085,-4.619,-4.6128,-4.6181,-4.63,-4.63,-4.63,-4.63,-4.6303,-4.6269,0.0,-4.6191,-4.6195,-4.6203,-4.6206,-4.6248,-4.6303,-4.6303,-4.6297,-4.6287,-4.6307,-4.6187,-4.5857,-4.5075,-4.4718,-4.4348,-4.3581,-4.2661,-4.1939,-4.1737,-4.0785,-3.9988,-3.9811,-3.926,0.0,0.0,-3.7074,-3.4065,-2.7764,-2.3883,-2.1162,-1.961,-1.6823,-1.4622,-1.3347,-1.1832,-1.0101,-0.7903,-0.7383,-0.6242,-0.4389,-0.43,-0.43,-0.43,-0.43,-0.4746,-0.546,-0.4746,-0.5099,-0.634,-0.5725,-0.6329,-0.7829,-0.798,-0.8521,-0.9368,-0.9551,-0.9628,-0.9628,-1.0216,-1.0703,-1.1198,-1.1194,-1.1184,-1.1077,-3.2048,-3.2473,-3.2976,-3.3678,-3.4493,-3.5662,-3.7411,-3.8756,-3.9782,-4.0341,-4.078,-4.1227,-4.1819,-4.1915,-4.2069,-4.2445,-4.2428,-4.2589,-4.3063,-4.336,-4.3576,-4.3677,-4.4459,-4.4537,-4.3743,-4.4215,-4.435,-4.4109,-4.3994,0.0,0.0,0.0,0.0,0.0,-4.2252,-4.2845,-4.3981,-4.402,-4.4639,-4.5659,-4.5896,-4.6084,-4.6204,-4.6212,-4.6269,-4.63,-4.63,-4.63,-4.63,-4.63,-4.6276,-4.6268,-4.6207,-4.6202,-4.6175,-4.6092,-4.6073,-4.6098,0.0,-4.6035,-4.5996,-4.6137,-4.5998,-4.5794,-4.5649,-4.5519,-4.5153,-4.4325,-4.3884,-4.3311,-4.2149,-4.1628,-4.1111,-4.0407,-4.0153,-3.9896,0.0,-3.8345,-3.6544,-3.3515,-2.926,-2.5328,-2.2223,-1.8939,-1.6338,-1.4844,-1.2693,-1.0809,-0.9305,-0.8169,-0.6943,-0.5539,-0.4741,-0.43,-0.43,-0.43,-0.4389,-0.4656,-0.4389,-0.4565,-0.501,-0.528,-0.566,-0.6242,-0.6825,-0.7891,-0.8989,-0.879,-0.9514,-1.0609,-1.0511,-1.09,-1.1688,-1.1688,-1.1975,-1.197,-3.2651,-3.3216,-3.3689,-3.4228,-3.5381,-3.6742,-3.8077,-3.912,-3.9935,-4.0351,-4.0995,-4.1586,-4.1908,-4.2293,-4.268,-4.3142,-4.3124,-4.316,-4.3422,-4.359,-4.3721,-4.3812,-4.426,-4.4374,-4.4146,-4.443,-4.4576,-4.453,-4.4503,-4.4185,0.0,0.0,0.0,0.0,-4.2787,-4.3246,-4.4121,-4.4274,-4.4748,-4.5456,-4.5813,-4.6014,-4.6114,-4.6211,-4.627,-4.63,-4.63,-4.63,-4.63,-4.63,-4.629,-4.6262,-4.6207,-4.6204,-4.618,-4.6091,-4.6049,-4.5998,-4.5998,-4.5922,0.0,-4.5969,-4.5852,-4.5736,-4.589,-4.5801,-4.5554,-4.5034,-4.4703,-4.4156,-4.3028,-4.2364,-4.1751,-4.0991,-4.0719,-4.0508,0.0,-3.9404,-3.8511,-3.748,-3.2977,-2.8535,-2.4768,-2.1145,-1.8048,-1.5666,-1.3613,-1.1671,-1.0009,-0.8694,-0.7467,-0.6157,-0.501,-0.4389,-0.43,-0.43,-0.43,-0.43,-0.43,-0.43,-0.43,-0.4835,-0.5193,-0.5466,-0.6125,-0.7352,-0.88,-0.8699,-0.9647,-1.1194,-1.0998,-1.1389,-1.198,-1.198,-1.2073,-1.1965,-3.3258,-3.3965,-3.4528,-3.5078,-3.6635,-3.8084,-3.8761,-3.9139,-3.9629,-4.0252,-4.0724,-4.1111,-4.1568,-4.176,-4.2151,-4.2865,-4.2729,-4.2786,-4.3232,-4.3267,-4.3267,-4.3267,-4.3545,-4.3627,-4.3505,-4.3886,-4.4011,-4.3881,-4.3758,0.0,0.0,0.0,0.0,0.0,-4.3936,-4.4132,-4.4289,-4.4681,-4.5023,-4.5304,-4.5712,-4.5891,-4.5909,-4.6114,-4.6229,-4.6287,-4.6284,-4.6303,-4.6303,-4.6306,-4.6243,-4.6191,-4.6191,-4.6195,-4.6187,-4.6201,-4.6096,-4.5988,-4.5988,-4.5928,-4.5852,-4.5808,-4.5736,-4.5699,-4.577,-4.5638,-4.553,-4.5658,-4.508,-4.4486,-4.4331,-4.3085,-4.195,-4.1553,-4.1023,-4.0599,-4.0476,-4.0267,-3.9917,-3.9387,-3.4983,-3.0639,-2.7237,-2.3491,-1.9755,-1.6203,-1.4518,-1.2668,-1.0178,-0.9135,-0.7822,-0.6245,-0.5277,-0.4659,-0.4297,-0.43,-0.43,-0.43,-0.43,-0.43,-0.43,-0.43,-0.4656,-0.5379,-0.5756,-0.6971,-0.8788,-0.9163,-1.0123,-1.1277,-1.178,-1.198,-1.2078,-1.2078,-1.1678,-1.0877,-3.4469,-3.5532,-3.6522,-3.7076,-3.7047,-3.7358,-3.8343,-3.8794,-3.9156,-3.954,-3.9918,-4.0286,-4.059,-4.0908,-4.1338,-4.199,-4.2251,-4.2472,-4.2747,-4.2976,-4.3032,-4.2995,-4.3442,-4.3612,-4.3355,-4.3646,-4.3777,-4.3758,-4.3712,-4.3712,-4.3679,0.0,0.0,0.0,-4.3579,-4.3675,-4.4004,-4.4125,-4.4463,-4.502,-4.5342,-4.5572,-4.577,-4.5916,-4.602,-4.6088,-4.6191,-4.6229,-4.6229,-4.6228,-4.62,-4.6192,-4.6143,-4.6137,-4.6118,-4.6017,-4.5886,-4.5775,-4.5708,-4.5629,-4.5541,-4.563,-4.556,-4.5494,0.0,0.0,-4.5438,-4.5477,-4.5321,-4.4993,-4.4399,-4.3732,-4.2852,-4.1551,-4.0654,-4.0091,-3.998,-4.0219,-4.0237,-3.98,-3.6797,-3.3587,-3.0519,-2.6219,-2.2369,-1.931,-1.583,-1.36,-1.276,-1.0692,-0.896,-0.7738,-0.6422,-0.545,-0.4832,-0.4478,-0.4389,-0.4569,-0.4389,-0.43,-0.43,-0.43,-0.4389,-0.4569,-0.4864,-0.6283,-0.8333,-0.8415,-0.9914,-1.2135,-1.2012,-1.2273,-1.2565,-1.2565,-1.1477,-0.9899,-3.4762,-3.5957,-3.6847,-3.7068,-3.6738,-3.6876,-3.8098,-3.8796,-3.9175,-3.9231,-3.9847,-4.039,-4.0493,-4.0703,-4.1082,-4.1552,-4.1917,-4.2269,-4.2613,-4.2691,-4.2711,-4.2806,-4.3087,-4.316,-4.2995,-4.3338,-4.3477,-4.3338,-4.3477,-4.3477,-4.3338,0.0,0.0,0.0,-4.3303,-4.3424,-4.3642,-4.3818,-4.4214,-4.4743,-4.5036,-4.5227,0.0,-4.5692,-4.5852,-4.5869,-4.5949,-4.6081,-4.6204,-4.6209,-4.6202,-4.6199,-4.6153,-4.6092,-4.6005,-4.5917,-4.5756,-4.5596,-4.5566,-4.5495,-4.5419,-4.5475,-4.5438,-4.54,-4.54,-4.5419,-4.5399,-4.54,-4.5475,-4.5393,-4.4935,-4.4288,-4.3209,-4.148,-4.0575,-4.0033,-3.9861,-4.0095,-4.0224,-4.0039,-3.8449,-3.6447,-3.4086,-2.8365,-2.3536,-2.0453,-1.7354,-1.5094,-1.386,-1.1963,-1.0331,-0.8965,-0.7298,-0.6157,-0.5625,-0.4919,-0.4656,-0.4837,-0.4569,-0.448,-0.448,-0.448,-0.4654,-0.5097,-0.5455,-0.6853,-0.8984,-0.9083,-1.0496,-1.2441,-1.2378,-1.2565,-1.2764,-1.2764,-1.2073,-1.0886,-3.4821,-3.5723,-3.6285,-3.6251,-3.6193,-3.652,-3.7716,-3.8683,-3.9108,-3.9011,-3.9935,-4.0651,-4.0704,-4.0777,-4.0931,-4.1192,-4.1507,-4.1941,-4.24,-4.2234,-4.2251,-4.2537,-4.2494,-4.2512,-4.2609,-4.2976,-4.305,-4.2844,-4.2995,-4.2958,0.0,0.0,0.0,0.0,-4.2923,-4.3086,-4.3121,-4.3509,-4.3953,-4.4392,-4.4651,-4.4796,-4.4893,-4.5398,-4.5615,-4.5661,-4.5693,-4.5881,-4.6123,-4.6133,-4.6133,-4.6133,-4.6133,-4.6006,-4.5861,-4.585,-4.5675,-4.5495,-4.5476,-4.5419,-4.5359,-4.5317,-4.5338,-4.5359,-4.5317,-4.5338,-4.5399,-4.54,-4.5563,-4.5642,-4.5603,-4.4651,-4.3291,-4.1522,-4.0778,-4.0293,-3.9921,-3.9982,-4.0095,-4.0198,-3.9687,0.0,-3.7272,-3.0398,-2.4662,-2.1426,-1.9247,-1.6952,-1.458,-1.3212,-1.169,-1.0009,-0.8177,-0.6949,-0.6505,-0.5714,-0.5361,-0.5275,-0.5188,-0.5102,-0.5102,-0.5102,-0.5542,-0.6331,-0.6776,-0.8082,-0.9938,-1.0332,-1.1311,-1.2436,-1.2673,-1.2764,-1.2764,-1.2861,-1.2861,-1.2559,-3.5572,-3.593,-3.6253,-3.6876,-3.6505,-3.6201,-3.652,-3.7126,-3.7721,-3.8245,-3.8786,-3.9259,-3.9561,-3.9917,-4.0138,-4.0188,-4.0483,-4.0784,-4.1094,-4.1065,-4.1311,-4.1864,-4.1881,-4.211,-4.2609,-4.2512,-4.2512,-4.2631,-4.2216,-4.1948,0.0,0.0,0.0,-4.1176,-4.1737,-4.1996,-4.1996,-4.2297,-4.2916,-4.3717,-4.3967,-4.429,-4.4612,-4.4919,-4.5168,-4.5399,-4.5626,-4.5738,-4.58,-4.579,-4.5789,-4.5789,-4.5789,-4.5761,-4.5703,-4.5594,-4.5547,-4.5476,-4.536,-4.5338,-4.5317,-4.5297,-4.5317,-4.5317,-4.5297,-4.5338,-4.5398,-4.5399,-4.5457,-4.5512,-4.5438,-4.4555,-4.339,-4.2124,-4.1476,-4.0783,-3.9777,-4.008,-4.0384,-4.0296,-3.9424,-3.8562,-3.789,-3.3288,-2.9231,-2.6596,-2.2258,-1.8819,-1.6726,-1.4795,-1.2656,-1.0284,-0.9666,-0.8615,0.0,0.0,-0.7031,-0.6514,-0.7031,-0.7291,-0.7291,-0.7291,-0.7376,-0.7552,-0.7826,-0.8636,-0.9648,-1.0126,-1.1181,-1.2436,-1.2673,-1.2764,-1.2861,-1.2958,-1.305,-1.2754,-3.4028,-3.4594,-3.4946,-3.4979,-3.4754,-3.4512,-3.4629,-3.5141,-3.5943,-3.7204,-3.8291,-3.9016,-3.9201,-3.9615,-3.9901,-3.9901,-4.0187,-4.0449,-4.0594,-4.0594,-4.0737,-4.1001,-4.1157,-4.1383,-4.1666,-4.1692,-4.1717,-4.1846,-4.1525,-4.1393,0.0,0.0,0.0,-4.0408,-4.076,-4.1042,-4.1256,-4.1879,-4.2485,-4.305,-4.352,-4.3812,-4.4039,-4.4516,-4.483,-4.503,-4.5302,-4.5436,-4.5519,-4.5645,-4.57,-4.57,-4.57,-4.5632,-4.5565,-4.5513,-4.5438,-4.538,-4.5317,-4.5297,-4.5297,-4.5297,-4.5297,-4.5297,-4.5297,-4.5317,-4.5317,-4.5175,-4.53,-4.538,-4.518,-4.475,0.0,-4.2503,-4.1954,-4.1275,-3.9987,-4.0081,-4.0296,-4.03,-3.9877,-3.941,-3.8922,-3.6285,-3.2813,-2.8514,-2.4434,-2.0947,-1.8347,-1.6121,-1.4085,-1.2237,0.0,0.0,-0.8803,0.0,-0.8181,-0.7661,-0.7914,-0.7998,-0.7998,-0.7998,-0.8257,-0.8782,-0.8969,-0.9589,-1.0492,-1.1005,-1.1713,-1.2441,-1.2769,-1.2958,-1.2953,-1.3244,-1.3346,-1.305,-3.187,-3.2711,-3.323,-3.2535,-3.2678,-3.2837,-3.2945,-3.3478,-3.4472,-3.6205,-3.7701,-3.8606,-3.8782,-3.9177,-3.9487,-3.9677,-3.9935,-4.0103,-4.017,-4.017,-4.022,-4.0269,-4.0483,-4.0659,-4.0802,-4.0891,-4.0967,-4.1059,-4.092,-4.074,0.0,-4.066,-4.0266,-3.9556,-3.9546,-3.9757,0.0,0.0,-4.177,-4.2192,-4.2923,-4.3246,-4.3385,-4.4058,-4.4392,-4.4572,-4.4833,-4.4995,-4.5132,-4.5419,-4.5545,-4.5599,-4.5599,-4.5549,-4.5457,-4.5457,-4.538,-4.5297,-4.5297,-4.5297,-4.5277,-4.5194,-4.5194,-4.5173,-4.5129,-4.5106,-4.5065,-4.4843,-4.5045,-4.5216,-4.503,-4.5049,0.0,-4.3069,-4.2519,-4.1832,-4.0498,-4.0252,-4.0271,-4.0337,-4.0442,-4.0355,-3.9962,-3.875,-3.5863,-3.0654,-2.6883,-2.3455,-2.0322,-1.7797,-1.5734,-1.4413,-1.2389,-1.1042,-1.0458,0.0,-0.9327,-0.889,-0.8886,-0.8882,-0.8882,-0.8882,-0.9235,-0.9937,-1.012,-1.0651,-1.13,-1.1855,-1.2254,-1.246,-1.2934,-1.3147,-1.3244,-1.3443,-1.3443,-1.3044,-3.0196,-3.0927,-3.1473,-3.0784,-3.1489,-3.2214,-3.2232,-3.2791,-3.3837,-3.5509,-3.6289,-3.6952,-3.7685,-3.7812,-3.8124,-3.886,-3.8952,-3.9077,-3.9362,-3.9415,-3.9573,-3.9935,-3.9986,-4.0271,-4.0802,-4.0594,-4.0594,-4.0849,-4.0303,-3.9682,-3.9006,-3.92,-3.8866,0.0,0.0,0.0,0.0,-3.9177,-3.9898,-4.0687,-4.1854,-4.2483,-4.2755,-4.3367,-4.3767,-4.4004,-4.4289,-4.4374,-4.4457,-4.4776,-4.509,-4.5359,-4.5359,-4.5338,-4.5317,-4.5317,-4.5317,-4.5297,-4.5297,-4.5297,-4.5235,-4.4934,-4.4843,-4.4776,-4.4519,-4.4465,-4.4484,-4.4438,-4.4669,-4.4962,-4.5302,-4.5361,-4.5093,-4.4249,-4.3444,-4.2526,-4.1418,-4.0954,-4.0664,-4.0498,-4.0695,-4.0791,-4.0626,-3.9827,-3.8327,-3.5942,-3.0851,-2.6559,-2.3447,-2.0303,-1.7671,-1.5539,-1.4323,-1.2826,-1.0961,-1.1419,-1.1165,-1.012,-1.0992,-1.1262,-1.0997,-1.0997,-1.1089,-1.1176,-1.1176,-1.1176,-1.13,-1.1855,-1.2242,-1.2492,-1.2964,-1.3244,-1.3539,-1.3738,-1.3335,-1.2344,-2.7649,-2.8034,-2.8539,-2.8785,-2.9307,-3.0012,-3.1044,-3.1549,-3.2249,-3.3366,-3.4934,-3.6056,-3.6368,-3.6843,-3.7397,-3.801,-3.8067,-3.827,-3.8727,-3.8931,-3.9077,-3.9239,-3.9415,-3.9487,-3.9282,-3.961,-3.961,-3.9282,-3.9487,-3.9154,-3.8437,-3.8606,0.0,0.0,0.0,-3.6911,-3.7403,-3.8391,-3.9286,-4.006,-4.082,-4.1647,-4.2404,-4.2811,-4.3228,-4.3703,-4.3974,-4.4154,-4.4318,-4.4438,-4.472,-4.5045,-4.5235,-4.5297,-4.5256,-4.5045,-4.5,-4.4957,-4.4814,-4.4764,-4.472,-4.4599,-4.4546,-4.4519,-4.4411,-4.4383,-4.4346,-4.4192,-4.425,-4.4484,-4.4943,-4.5071,-4.4889,-4.4288,-4.3809,-4.3043,-4.1609,-4.1257,-4.0973,-4.0455,-4.0584,-4.0713,-4.0706,-4.034,-3.9428,-3.7811,-3.344,-2.9348,-2.6052,0.0,0.0,-1.7654,0.0,-1.4885,-1.2826,-1.3099,-1.2607,-1.1343,-1.1693,-1.1785,-1.1699,-1.1699,-1.1613,-1.1527,-1.1699,-1.1613,-1.1565,-1.2215,-1.2597,-1.274,-1.3339,-1.3636,-1.3738,-1.4022,-1.3913,-1.3323,-2.563,-2.6047,-2.6472,-2.6883,-2.7533,-2.8414,-2.9589,-3.0367,-3.1044,-3.1563,-3.3366,-3.4736,-3.5094,-3.5646,-3.6322,-3.716,-3.7235,-3.7429,-3.787,-3.8084,-3.8181,-3.8181,-3.8495,-3.8423,-3.7937,-3.8479,-3.8495,-3.8051,-3.8662,-3.8492,-3.7587,0.0,0.0,0.0,-3.59,-3.6075,-3.6266,-3.7564,-3.8362,-3.894,-3.9852,-4.0691,-4.1545,-4.2235,-4.2641,-4.2996,-4.349,-4.3721,-4.3812,-4.4065,-4.4346,-4.4617,-4.4929,-4.5042,-4.4976,-4.4745,-4.4676,-4.465,-4.4438,-4.4383,-4.4374,-4.4289,-4.426,-4.426,-4.4173,-4.4143,-4.4114,-4.4017,-4.4079,-4.425,-4.472,-4.4825,-4.4748,-4.4395,-4.4005,-4.3304,-4.2082,-4.1565,-4.1132,-4.0588,-4.0524,-4.0562,-4.068,-4.0587,-4.0053,-3.8999,-3.5865,-3.24,-2.8757,0.0,0.0,0.0,0.0,0.0,-1.5072,-1.4906,-1.4253,-1.3039,-1.296,-1.2875,-1.279,-1.254,-1.2203,-1.1785,-1.1957,-1.1957,-1.1824,-1.249,-1.2877,-1.3014,-1.3631,-1.3931,-1.4022,-1.4202,-1.41,-1.3613,-2.4478,-2.5389,-2.5859,-2.4946,-2.6461,-2.7799,-2.7799,-2.9434,-3.0607,-3.0607,-3.1489,-3.2635,-3.3876,-3.4027,-3.4684,-3.6244,-3.6446,-3.6554,-3.6767,-3.6828,-3.6828,-3.6828,-3.704,-3.7115,-3.7115,-3.731,-3.7429,-3.7429,-3.7994,-3.7566,-3.6104,0.0,-3.4036,-3.3649,-3.435,-3.4704,-3.4883,-3.6249,-3.6852,-3.7017,-3.8912,-3.9698,-3.9922,-4.1563,-4.1931,-4.1656,-4.2747,-4.2844,-4.2659,-4.3523,-4.3905,-4.4048,-4.4318,-4.4411,-4.443,-4.443,-4.4383,-4.4383,-4.4383,-4.4383,-4.4346,-4.4079,-4.3986,-4.391,-4.3582,-4.3513,-4.3615,-4.3942,-4.4221,-4.4465,-4.4751,-4.48,-4.4825,-4.4896,0.0,-4.3258,-4.3108,-4.1949,-4.111,-4.109,-4.0632,-4.0405,-4.0663,-4.0574,-4.0327,-3.991,-3.8433,-3.578,-3.1773,0.0,0.0,-2.301,-2.104,0.0,-1.7599,-1.7082,-1.6366,-1.5357,-1.5123,-1.4873,-1.4615,-1.3782,-1.2869,-1.2043,-1.2043,-1.2043,-1.2083,-1.258,-1.2968,-1.3203,-1.3731,-1.4022,-1.4298,-1.4298,-1.3613,-1.2732,-2.3377,-2.38,-2.4135,-2.4563,-2.5221,-2.5953,-2.6532,-2.7844,-2.873,-2.8876,-2.9679,-3.0657,-3.1742,-3.2407,-3.3241,-3.467,-3.4736,-3.5145,-3.6134,-3.6384,-3.6554,-3.6554,-3.6783,-3.6676,-3.6275,-3.6874,-3.6776,-3.5888,0.0,0.0,0.0,-3.4098,-3.3649,-3.3582,-3.3937,-3.4087,-3.4169,-3.4677,-3.543,-3.63,-3.6522,-3.7617,-3.9143,-3.9726,-4.0354,-4.0989,-4.1725,-4.199,-4.2015,-4.2266,-4.2408,-4.2508,-4.2607,-4.3238,-4.3904,-4.3693,-4.3647,-4.3666,-4.374,-4.3809,-4.3777,-4.3682,-4.3649,-4.3615,-4.3513,-4.3497,-4.3513,-4.3649,-4.373,-4.3886,-4.4192,-4.425,-4.4336,-4.4519,-4.4204,-4.368,-4.3042,-4.2648,-4.2046,-4.1082,-4.1011,-4.0966,-4.0799,-4.0687,-4.0618,-4.0585,-3.9775,-3.734,-3.2853,0.0,0.0,0.0,-2.4169,0.0,-2.1372,-2.0485,-1.9303,-1.7588,-1.7504,-1.7094,-1.6346,-1.5867,-1.4928,-1.3726,-1.3704,-1.3118,-1.2324,-1.3022,-1.3332,-1.3477,-1.4004,-1.4202,-1.4298,-1.4298,-1.41,-1.3709,-2.1872,-2.2325,-2.2765,-2.3367,-2.4125,-2.4893,-2.5389,-2.6461,-2.7209,-2.7348,-2.7936,-2.873,-2.9731,-3.0329,-3.1349,-3.3115,-3.3255,-3.3602,-3.4403,-3.4934,-3.505,-3.4773,-3.5295,-3.5269,-3.4688,-3.5299,0.0,-3.4085,-3.4662,-3.4499,-3.3739,-3.3246,-3.2986,-3.2949,-3.3287,-3.3443,-3.3547,-3.3869,-3.4495,-3.5251,-3.5228,-3.6071,-3.7486,-3.827,-3.9056,-3.9856,-4.081,-4.1268,-4.1393,-4.1375,-4.1411,-4.1402,-4.1011,-4.1407,-4.2129,-4.2684,-4.2849,-4.2923,-4.2995,-4.3014,-4.305,-4.3214,-4.325,-4.3304,-4.3463,-4.3497,-4.3497,-4.3497,-4.3582,-4.3749,-4.3974,-4.4005,-4.4048,-4.4221,-4.4121,-4.3782,-4.3237,-4.2927,-4.252,-4.1889,-4.174,-4.1697,-4.1699,-4.1691,-4.1663,-4.1649,-4.111,-3.9235,0.0,0.0,-3.1457,-2.8633,-2.7608,-2.6372,-2.4779,-2.3699,-2.2372,-2.079,-2.003,-1.8982,-1.7715,-1.7281,-1.6522,-1.5304,-1.507,-1.4525,-1.3737,-1.4071,-1.4224,-1.4282,-1.4376,-1.449,-1.44,-1.4298,-1.4298,-1.4196,-1.996,-2.0962,-2.1606,-2.1606,-2.3096,-2.4317,-2.4317,-2.5294,-2.6036,-2.6025,-2.6295,-2.6883,-2.7855,-2.8016,-2.8995,-3.1556,0.0,0.0,-3.2074,-3.2678,-3.2721,-3.2092,-3.2835,-3.3041,-3.2461,-3.2797,-3.2694,-3.2126,-3.2193,-3.2199,-3.2287,-3.2251,-3.2007,-3.1655,-3.2312,-3.2664,-3.281,-3.3443,-3.3802,-3.3917,-3.4662,-3.5004,-3.5253,-3.7044,-3.7878,-3.8282,-3.9825,-4.05,-4.0698,-4.0659,-4.0654,-4.0555,-3.9564,-3.9257,-3.9564,-4.1358,-4.1997,-4.2098,-4.2157,-4.2198,-4.2279,-4.275,-4.2844,-4.2957,-4.3321,-4.341,-4.341,-4.341,-4.3664,-4.3892,-4.3923,-4.3923,-4.3923,-4.3974,-4.3749,-4.3582,-4.3582,-4.2953,-4.2724,-4.3246,-4.2711,0.0,-4.3151,-4.3266,-4.3216,-4.2976,-4.2409,-4.1364,0.0,0.0,-3.5086,-3.2213,-3.1129,-2.9739,-2.8019,-2.6728,-2.5589,-2.4703,-2.2646,-2.0717,-1.9015,-1.8515,-1.782,-1.6954,-1.6487,-1.6257,-1.6079,-1.5806,-1.5644,-1.5556,-1.513,-1.4879,-1.4783,-1.4586,-1.4394,-1.4394,0.0,0.0,-2.0593,-2.0593,-2.1587,-2.2394,-2.2394,-2.378,-2.4893,-2.5126,-2.5703,-2.6367,-2.6801,-2.7046,-2.7439,-2.8353,-3.016,-3.1402,-3.2074,-3.1867,-3.1678,-3.148,-3.124,-3.1076,-3.0924,-3.1182,-3.1062,-3.0721,-3.0227,-3.0102,-3.0197,-3.0176,-3.0119,-3.0072,-3.0346,-3.0511,-3.0571,-3.0954,-3.1615,-3.2493,-3.2379,-3.3208,-3.4473,-3.5006,-3.5876,-3.6942,-3.7789,-3.8467,-3.8891,-3.8929,-3.8896,-3.8896,-3.8767,-3.8712,-3.895,-4.0374,-4.0816,-4.1018,-4.1955,-4.2198,-4.2257,-4.2338,-4.2378,-4.2378,-4.248,-4.2519,-4.2519,-4.2519,-4.258,-4.2752,-4.3087,-4.316,-4.325,-4.3582,-4.3615,-4.3582,-4.3513,-4.3629,-4.358,-4.3246,-4.3298,-4.3331,-4.3291,-4.3347,-4.3411,0.0,-4.3656,-4.3313,-4.2356,-4.182,-3.9666,-3.5593,-3.3741,-3.2717,-3.2698,-3.0764,-2.8822,-2.6964,-2.5584,-2.4378,-2.3313,-2.2304,-2.1347,-2.0274,-1.9457,-1.8442,-1.7365,-1.7547,-1.7309,-1.6921,-1.7135,-1.6648,-1.5812,-1.5988,-1.5527,-1.4885,-1.7918,-1.8564,-1.9031,-1.9505,-2.0331,-2.1051,-2.1051,-2.1845,-2.2532,-2.2688,-2.3471,-2.433,-2.4999,-2.5424,-2.5861,-2.6551,-2.8338,-2.9642,-3.0223,-3.0339,-3.0082,-2.9313,-2.9707,-2.9624,-2.8986,-2.9441,-2.955,-2.9162,-2.894,-2.8853,-2.8967,-2.9331,-2.9504,-2.9504,-2.969,-2.9827,-2.9827,-3.0104,-3.0556,-3.1187,-3.1087,-3.1644,-3.2536,-3.2913,-3.3652,-3.4694,-3.5634,-3.6568,-3.7383,-3.7372,-3.7632,-3.778,-3.7263,-3.7068,-3.72,-3.7915,-3.8891,-3.9918,-4.0932,-4.115,-4.1196,-4.1613,-4.1913,-4.2038,-4.1757,-4.1979,-4.2098,-4.1835,-4.1997,-4.2338,-4.2806,-4.2882,-4.3032,-4.3444,-4.3513,-4.3548,-4.3532,-4.3828,-4.3983,-4.3764,-4.4075,-4.4326,-4.4439,-4.4492,-4.4624,-4.482,-4.4994,0.0,-4.4174,-4.3939,-4.2066,-3.8237,-3.6869,-3.584,-3.5115,-3.2891,-3.0738,-2.8626,-2.737,-2.6237,-2.5042,-2.3879,-2.2876,-2.196,-2.1268,-2.0361,-1.9325,-1.9207,-1.8849,-1.8377,-1.8263,-1.7755,-1.7109,-1.6633,-1.6177,-1.5724,-1.5216,-1.6337,-1.7267,-1.8133,-1.9231,-1.9968,-1.9968,-2.0141,-2.0232,-2.0232,-2.0962,-2.1906,-2.293,-2.3476,-2.4217,-2.5201,-2.6286,-2.7083,-2.7668,-2.8274,-2.7981,-2.6644,-2.7821,-2.7997,-2.6785,-2.7601,-2.7915,-2.7657,-2.7947,-2.8105,-2.8157,-2.8889,-2.9205,-2.9205,-2.9393,-2.9442,-2.9442,-2.9737,-2.9907,-2.9983,-3.0254,-3.0389,-3.0507,-3.1119,-3.1749,-3.2437,-3.3483,-3.4668,-3.5716,-3.5861,-3.6261,-3.6628,-3.5612,-3.527,-3.5225,-3.5284,-3.6687,-3.8421,-3.9268,-3.9475,-3.9698,-4.0443,-4.1098,-4.1455,-4.0902,-4.1349,-4.1725,-4.1226,-4.156,-4.2115,-4.2595,-4.2673,-4.2826,-4.3339,-4.3375,-4.3321,-4.341,0.0,-4.3912,-4.4233,-4.4663,-4.5129,-4.5732,-4.5867,-4.5994,-4.621,-4.6105,-4.5846,-4.543,-4.4859,-4.329,-4.0596,-3.9887,-3.8433,-3.6106,-3.4167,-3.2198,-3.0186,-2.8941,-2.753,-2.6052,-2.4758,-2.3762,-2.3208,-2.2756,-2.2097,-2.1369,-2.103,-2.0531,-1.9909,-1.9208,-1.8764,-1.8488,-1.7282,-1.6727,-1.6459,-1.368,-1.4823,-1.5778,-1.5873,-1.7654,-1.9063,-1.9063,-1.9687,-2.0232,-2.0232,-2.0331,-2.0659,-2.1392,-2.1635,-2.2222,-2.3082,-2.3487,-2.4238,-2.5535,-2.5535,-2.5292,-2.5079,-2.4947,-2.4811,-2.4585,-2.5396,-2.5853,-2.5963,-2.6769,-2.7268,-2.7469,-2.7709,-2.7842,-2.7842,-2.7842,-2.7842,-2.7894,-2.8078,-2.8532,-2.903,-2.9359,-2.9766,-3.03,-3.0551,-3.1049,-3.1652,-3.1842,-3.2438,-3.3184,-3.3657,-3.3956,-3.4109,-3.4552,-3.4595,-3.4514,-3.4802,-3.5065,-3.5522,-3.6742,-3.7591,-3.8107,-3.8258,-3.897,-3.9612,-3.9508,-3.9919,-4.0317,-4.0218,-4.0689,-4.1209,-4.1648,-4.1735,-4.199,-4.2826,-4.2655,-4.2537,-4.292,0.0,-4.3047,-4.3726,-4.4167,-4.4789,-4.5699,-4.5867,-4.6018,-4.6268,-4.6207,-4.6089,-4.5909,-4.5422,-4.4611,-4.3397,-4.1591,-3.9396,-3.6705,-3.6245,-3.4779,-3.2396,-3.1534,-3.0394,-2.8999,-2.703,-2.6093,-2.5949,-2.5339,-2.4237,-2.2969,-2.331,-2.2512,-2.1123,-2.1159,-2.0529,-1.9613,-1.878,-1.787,-1.7044,-1.2431,-1.3097,-1.3872,-1.5026,-1.6069,-1.7016,-1.7699,-1.8156,-1.8519,-1.8596,-1.8977,-1.9248,-1.9525,-1.9747,-2.0014,-2.0438,-2.0353,-2.078,-2.1944,-2.3383,-2.4033,-2.366,-2.3954,-2.4108,-2.4108,-2.448,-2.4707,-2.4767,-2.5346,-2.5639,-2.5767,-2.6402,-2.6756,-2.6756,-2.7242,-2.7523,-2.7523,-2.7723,-2.7973,-2.8287,-2.861,-2.8903,-2.9205,-2.9421,-2.9463,-2.955,-2.9882,-3.0276,-3.062,-3.1246,-3.1724,-3.2156,-3.2741,-3.2885,-3.2887,-3.3254,-3.4254,-3.5314,-3.5827,-3.6609,-3.7308,-3.725,-3.7703,-3.8125,-3.761,-3.8004,-3.8433,-3.8372,-3.8863,-3.9529,-4.0408,-4.0839,-4.1251,-4.1926,-4.2121,-4.2297,-4.2498,-4.2905,-4.3317,-4.3658,-4.4391,-4.5091,-4.5641,-4.5832,-4.5974,-4.6189,-4.6229,-4.6175,-4.5998,-4.5544,-4.5073,-4.4602,-4.1944,-3.988,-3.851,-3.7243,-3.5885,-3.4464,-3.2715,-3.1253,-2.9989,-2.7868,-2.685,-2.6707,-2.6032,-2.4966,-2.3648,-2.3939,-2.3047,-2.1571,-2.1651,-2.1365,-2.0718,-1.9338,-1.8519,-1.787,-1.1175,-1.1658,-1.2334,-1.3974,-1.4555,-1.5045,-1.6103,-1.6494,-1.6749,-1.685,-1.753,-1.8021,-1.8041,-1.8217,-1.8345,-1.8425,-1.816,-1.8238,-1.8975,-2.1237,-2.2456,-2.2371,-2.2936,-2.3379,-2.3537,-2.3514,-2.3661,-2.3829,-2.4192,-2.4409,-2.4409,-2.5405,-2.5824,-2.5906,-2.662,-2.6973,-2.6973,-2.7162,-2.7229,-2.7229,-2.7617,-2.7736,-2.767,-2.796,-2.7829,-2.7562,-2.7994,-2.8302,-2.8544,-2.9154,-2.9739,-3.0296,-3.0744,-3.0878,-3.0902,-3.1299,-3.2693,-3.4206,-3.461,-3.5383,-3.6045,-3.5998,-3.6383,-3.6597,-3.5902,-3.6322,-3.688,-3.6794,-3.734,-3.8035,-3.9099,-3.9884,-4.0504,-4.0885,0.0,-4.1906,-4.2032,-4.2684,-4.3251,-4.3416,-4.4357,-4.5107,-4.5494,-4.5686,-4.5901,-4.6119,-4.6217,-4.6209,-4.6059,-4.5675,-4.5317,-4.4985,-4.221,-4.0466,-3.9968,-3.8052,-3.6613,-3.5751,-3.3369,-3.1657,-3.0484,-2.8391,-2.7359,-2.716,-2.6517,-2.5449,-2.4115,-2.422,-2.3222,-2.1741,-2.1741,-2.1741,-2.1463,-1.953,-1.8788,-1.8511,-0.9521,-1.0792,-1.1658,-1.1853,-1.3011,-1.3974,-1.407,-1.5127,-1.5792,-1.5517,-1.6394,-1.7063,-1.7288,-1.7254,-1.7505,-1.7985,-1.8014,-1.7997,-1.8078,-1.8461,-1.9492,-2.1195,-2.0934,-2.1155,-2.1949,-2.1876,-2.2253,-2.3065,-2.3986,-2.4409,-2.4409,-2.4898,-2.5098,-2.511,-2.5358,-2.5453,-2.5453,-2.5441,-2.5441,-2.5511,-2.6045,-2.6032,-2.58,-2.6364,-2.6514,-2.6514,-2.6552,-2.6794,-2.7237,-2.7803,-2.8066,-2.8226,-2.8834,-2.8931,-2.8918,-2.897,-2.9126,-2.9789,-3.1901,-3.3087,-3.3754,-3.3754,-3.4351,-3.4999,-3.4883,-3.5634,-3.6261,-3.6276,-3.6987,-3.763,-3.7744,-3.8668,-3.9529,-3.9931,0.0,0.0,-4.149,-4.163,-4.1926,-4.2592,-4.3254,-4.4064,-4.5214,-4.5445,-4.5718,-4.6156,-4.6202,-4.6205,-4.6191,-4.6025,-4.5564,-4.4664,-4.3088,-4.147,-3.9817,-3.887,-3.7511,-3.577,-3.3862,-3.2276,-3.1054,-2.908,-2.8196,-2.8179,-2.7754,-2.6335,-2.4302,-2.4808,-2.374,-2.1741,-2.1741,-2.1741,-2.1463,-1.953,-1.8788,-1.8511,-0.7521,-0.8609,-0.9596,-1.028,-1.1356,-1.2475,-1.3093,-1.3637,-1.3918,-1.3835,-1.4199,-1.4628,-1.5282,-1.534,-1.5602,-1.6319,-1.6394,-1.6632,-1.7188,-1.7261,-1.798,-1.9492,-1.958,-1.9659,-1.9972,-2.011,-2.0653,-2.1461,-2.1821,-2.2264,-2.282,-2.3051,-2.3261,-2.3503,-2.3677,-2.3895,-2.4135,-2.4135,-2.4135,-2.4135,-2.4459,-2.4756,-2.4992,-2.5624,-2.5869,-2.5975,-2.6195,-2.6139,-2.5886,-2.5634,-2.5552,-2.5636,-2.6092,-2.626,-2.6382,-2.7066,-2.7311,-2.7631,-2.8966,-3.0326,-3.1392,-3.1392,-3.2075,-3.2625,-3.2047,-3.2554,-3.3244,-3.3249,-3.3743,-3.4638,-3.5922,-3.6712,-3.7442,-3.8319,0.0,-4.0222,-4.0342,-4.1414,-4.23,-4.2555,-4.3504,-4.4279,-4.4772,-4.5189,-4.5514,-4.5699,-4.6013,-4.6158,-4.6026,-4.5885,-4.5201,-4.3849,-4.3515,-4.2686,-4.1206,-3.9328,-3.7888,-3.6844,-3.4472,-3.3006,-3.2364,-3.0378,-2.951,-2.9476,-2.8774,-2.7435,-2.5793,-2.5303,-2.419,-2.2668,-2.1989,-2.1741,-2.1463,-1.953,-1.8788,-1.8511,-0.6323,-0.6991,-0.7655,-0.843,-0.9466,-1.0446,-1.1244,-1.188,-1.2357,-1.2298,-1.256,-1.2949,-1.3485,-1.3481,-1.3789,-1.4391,-1.4475,-1.4894,-1.5794,-1.5876,-1.6675,-1.8443,-1.8541,-1.863,-1.8859,-1.8859,-1.9265,-2.0138,-2.0138,-2.045,-2.1011,-2.1191,-2.14,-2.1638,-2.1814,-2.2093,-2.2488,-2.2488,-2.2563,-2.2722,-2.2996,-2.3227,-2.3616,-2.4112,-2.435,-2.4457,-2.4755,-2.4696,-2.4409,-2.3902,-2.3588,-2.3412,-2.366,-2.3599,-2.3481,-2.431,-2.4551,-2.4627,-2.5165,-2.6311,-2.7703,-2.9289,-3.02,-3.0474,-2.9827,-3.0241,-3.0718,-3.0717,-3.1118,-3.2033,-3.3683,-3.4472,-3.5213,-3.6307,-3.7603,-3.8645,-3.9174,-4.0517,-4.1645,-4.2185,-4.3169,-4.3855,-4.4007,-4.4638,-4.5093,-4.5199,-4.5802,-4.6085,-4.5916,-4.5765,-4.5093,-4.3757,-4.3652,-4.3013,-4.1724,-3.9633,-3.8087,-3.7114,-3.4784,-3.3479,-3.3066,-3.1409,-3.0527,-3.025,-2.9563,-2.8312,-2.673,-2.5641,-2.4542,-2.3444,-2.2255,-2.1633,-2.1177,-1.943,-1.8603,-1.8056,-0.6121,-0.6331,-0.6255,-0.6255,-0.7298,-0.8049,-0.8049,-0.9992,-1.1207,-1.089,-1.1833,-1.2353,-1.2015,-1.2157,-1.2322,-1.2328,-1.2498,-1.3105,-1.4055,-1.4055,-1.5365,-1.8132,-1.7844,-1.8006,-1.8859,-1.831,-1.839,-1.9256,-1.9256,-1.9256,-1.9256,-1.9511,-1.9599,-1.9599,-1.9825,-2.0119,-2.0498,-2.0498,-2.074,-2.1231,-2.1517,-2.1441,-2.1231,-2.1517,-2.1659,-2.1735,-2.1983,-2.2274,-2.2627,-2.2872,-2.2403,-2.1683,-2.1683,-2.111,-2.0381,-2.0381,-2.0381,-2.0381,-2.0391,-2.0801,-2.2403,-2.7478,-2.8736,-2.8736,-2.8638,-2.897,-2.924,-2.9227,-2.9578,-3.0119,-3.1026,-3.2046,-3.308,-3.3949,-3.4951,-3.6312,-3.8036,-3.8684,-3.9593,-4.1261,-4.1979,-4.2441,-4.2868,-4.3774,-4.4444,-4.4785,-4.5595,-4.6036,-4.5896,-4.5774,-4.5353,-4.4616,-4.3415,-4.2248,-4.1078,-3.9763,-3.815,-3.6293,-3.4727,-3.3675,-3.2993,-3.2096,-3.1169,-3.029,-3.0123,-2.8797,-2.673,-2.5819,-2.4808,-2.3714,-2.253,-2.1445,-2.0413,-1.9239,-1.8149,-1.7138,-0.4064,-0.462,-0.5079,-0.5079,-0.6002,-0.6698,-0.6605,-0.7227,-0.772,-0.8197,-0.8697,-0.9459,-1.0702,-1.0966,-1.1397,-1.2072,-1.2328,-1.2589,-1.3105,-1.3105,-1.3516,-1.433,-1.4427,-1.4511,-1.4747,-1.5018,-1.5591,-1.6456,-1.6806,-1.7293,-1.784,-1.7301,-1.7471,-1.8212,-1.7666,-1.8086,-1.9222,-1.9222,-1.9134,-1.8948,-1.9097,-1.8921,-1.8753,-1.9104,-1.9478,-1.9936,-2.0468,-2.0688,-2.0765,-2.043,-2.013,-1.9828,-1.9307,-1.8912,-1.8753,-1.8753,-1.8753,-1.8824,-1.9418,-1.9712,-2.043,-2.2842,-2.4214,-2.4844,-2.4418,-2.5362,-2.6239,-2.5898,-2.6766,-2.7917,-2.8944,-2.9896,-3.0817,-3.189,-3.3277,-3.4413,-3.4942,-3.6626,-3.8304,-3.9564,-4.1097,-4.2359,-4.3217,-4.4383,-4.5111,-4.5199,-4.5367,-4.5499,-4.555,-4.5224,-4.4478,-4.3249,-4.2801,-4.1185,-3.8241,-3.7966,-3.741,-3.6595,-3.5328,-3.4517,-3.4087,-3.3321,-3.234,-3.1309,-3.0366,-2.8966,-2.7221,-2.5986,-2.4893,-2.378,-2.1854,-2.0872,-2.0413,-1.8419,-1.7606,-1.7138,-0.3144,-0.3594,-0.3948,-0.3948,-0.4758,-0.545,-0.538,-0.5642,-0.6158,-0.6972,-0.7224,-0.7925,-0.9501,-0.9767,-1.0202,-1.0707,-1.1311,-1.1563,-1.1483,-1.1826,-1.1912,-1.1655,-1.174,-1.2163,-1.3014,-1.3444,-1.4105,-1.4754,-1.5101,-1.5591,-1.6242,-1.5764,-1.5861,-1.6429,-1.5966,-1.6386,-1.7375,-1.7375,-1.7359,-1.7342,-1.7342,-1.7334,-1.7245,-1.7527,-1.7574,-1.77,-1.8065,-1.8039,-1.7704,-1.7523,-1.7307,-1.7001,-1.6152,-1.5913,-1.5913,-1.5913,-1.5913,-1.5988,-1.6522,-1.6595,-1.6815,-1.7607,-2.0024,-2.1902,-2.0787,-2.1839,-2.2747,-2.1808,-2.3401,-2.522,-2.6063,-2.7548,-2.8997,-3.0338,-3.1379,-3.233,-3.3284,-3.4722,-3.6254,-3.7902,-3.9809,-4.1353,-4.225,-4.4071,-4.5194,-4.5279,-4.5163,-4.4918,-4.4556,-4.4262,-4.348,-4.2161,-4.169,-4.0029,-3.7008,-3.6583,-3.6004,-3.5364,-3.4807,-3.4305,-3.3788,-3.3475,-3.2621,-3.1281,-3.0443,-2.9123,-2.7383,-2.6152,-2.5073,-2.4049,-2.1658,-2.0503,-1.9951,-1.8056,-1.7044,-1.6574,-0.3034,-0.2989,-0.295,-0.2951,-0.3629,-0.421,-0.421,-0.4919,-0.5808,-0.6697,-0.6874,-0.7228,-0.8208,-0.856,-0.8648,-0.8644,-0.968,-1.0115,-0.9602,-1.0376,-1.0549,-0.9951,-0.9864,-1.0626,-1.2498,-1.2838,-1.3275,-1.3704,-1.3704,-1.3964,-1.4482,-1.4482,-1.4475,-1.4475,-1.4475,-1.472,-1.513,-1.513,-1.5448,-1.6011,-1.6011,-1.6101,-1.6191,-1.6191,-1.5666,-1.4982,-1.5209,-1.4774,-1.4095,-1.4511,-1.4289,-1.3652,-1.2832,-1.2498,-1.2498,-1.2492,-1.2492,-1.2492,-1.2498,-1.2498,-1.2498,-1.2413,-1.606,-1.9247,-1.761,-1.8355,-1.8948,-1.768,-1.9813,-2.2073,-2.2488,-2.466,-2.6873,-2.837,-2.8702,-2.9532,-3.1782,-3.1616,-3.2098,-3.4316,-3.5656,-3.6646,-3.7353,-4.0524,-4.3259,-4.4977,-4.4597,-4.3979,-4.3176,-4.3007,-4.234,-4.1089,-4.0142,-3.8654,-3.6529,-3.5191,-3.4153,-3.3391,-3.3654,-3.3401,-3.2731,-3.3064,-3.2264,-3.0683,-3.0317,-2.9057,-2.7302,-2.6152,-2.5158,-2.4145,-2.1747,-2.0314,-1.9314,-1.7777,-1.6574,-1.554,-0.2912,-0.272,-0.2711,-0.2892,-0.3061,-0.3232,-0.3232,-0.3409,-0.3855,-0.4743,-0.4921,-0.5275,-0.6254,-0.6795,-0.6976,-0.6428,-0.7485,-0.8544,-0.9515,-0.9244,-0.9065,-0.9157,-0.8627,-0.8444,-0.8956,-1.0443,-1.123,-1.1316,-1.1752,-1.2095,-1.2607,-1.2607,-1.2687,-1.2838,-1.2838,-1.2983,-1.3187,-1.3187,-1.3109,-1.2856,-1.2856,-1.262,-1.2225,-1.2225,-1.2231,-1.2157,-1.248,-1.2389,-1.2304,-1.2559,-1.2565,-1.231,-1.1348,-1.1086,-1.0995,-1.0641,-1.055,-1.0555,-1.0924,-1.1021,-1.0849,-1.0159,-1.198,-1.4126,-1.4691,-1.5569,-1.6141,-1.5881,-1.6951,-1.8005,-1.804,-1.9228,-2.0406,-2.1079,-2.167,-2.2291,-2.3239,-1.9209,-1.6741,-1.812,-1.4097,-1.1657,-1.2624,-2.0194,-3.0632,-4.4091,-4.181,-4.0644,-4.2545,-4.234,-4.1033,-3.8587,-3.7976,-3.611,-3.2729,-3.2129,-3.2492,-3.3779,-3.41,-3.415,-3.3921,-3.3398,-3.2596,-3.1636,-2.9512,-2.7867,-2.6648,-2.5495,-2.4413,-2.3212,-2.0764,-1.9679,-1.9222,-1.6936,-1.554,-1.4388,-0.2513,-0.2424,-0.2424,-0.2513,-0.2603,-0.2604,-0.2694,-0.2694,-0.3051,-0.4121,-0.43,-0.4654,-0.563,-0.6266,-0.6355,-0.5359,-0.6068,-0.7044,-0.7834,-0.757,-0.757,-0.8006,-0.7654,-0.7661,-0.8116,-0.9082,-0.9602,-0.9579,-0.9836,-1.0274,-1.0885,-1.0885,-1.0961,-1.1123,-1.1123,-1.1193,-1.1337,-1.1337,-1.1257,-1.1182,-1.1182,-1.1026,-1.0783,-1.0336,-0.999,-0.974,-0.9456,-0.9196,-0.903,-0.9118,-0.9291,-0.9283,-0.8752,-0.8752,-0.8844,-0.8665,-0.8757,-0.8935,-0.9205,-0.9296,-0.9213,-0.889,-0.962,-1.0589,-1.1219,-1.279,-1.3372,-1.073,-1.0856,-1.1444,-1.1636,-1.2552,-1.3529,-1.4194,-1.5786,-1.7138,-1.7806,-1.3971,-1.1375,-1.229,-0.707,-0.399,-0.5468,-1.411,-2.3188,-3.1848,-3.455,-3.612,-3.6793,-3.661,-3.6017,-3.4947,-3.4512,-3.34,-3.1541,-3.1195,-3.1397,-3.2159,-3.1965,-3.1726,-3.1626,-3.1036,-3.0439,-2.9616,-2.8164,-2.6883,-2.5714,-2.4617,-2.3434,-2.2227,-1.9869,-1.8864,-1.8488,-1.6177,-1.4184,-1.2635,-0.2154,-0.2154,-0.2064,-0.1973,-0.2064,-0.2154,-0.2153,-0.2333,-0.2781,-0.3582,-0.3851,-0.4208,-0.4825,-0.5636,-0.5638,-0.4552,-0.5001,-0.5447,-0.5888,-0.5708,-0.5794,-0.6407,-0.6319,-0.6684,-0.7595,-0.7595,-0.7848,-0.8356,-0.8356,-0.8707,-0.9318,-0.941,-0.9593,-0.9864,-0.9584,-0.9314,-0.9048,-0.8956,-0.9039,-0.93,-0.93,-0.9383,-0.947,-0.8669,-0.815,-0.7636,-0.6747,-0.6231,-0.598,-0.598,-0.6154,-0.6239,-0.5971,-0.6236,-0.6593,-0.6051,-0.6316,-0.6757,-0.6483,-0.6395,-0.6486,-0.6949,-0.7048,-0.6953,-0.6577,-0.8723,-0.9524,-0.5044,-0.4572,-0.4979,-0.5063,-0.5897,-0.6677,-0.7285,-0.9397,-1.1069,-1.1439,-0.8305,-0.5944,-0.5963,-0.0785,0.0663,-0.474,-1.1305,-1.688,-2.0854,-2.786,-3.1522,-3.06,-3.0526,-3.0715,-3.105,-3.0677,-3.0347,-3.0192,-2.9865,-2.9489,-2.9162,-2.8303,-2.8296,-2.9013,-2.8492,-2.7933,-2.7279,-2.6812,-2.5964,-2.4861,-2.374,-2.2541,-2.1338,-1.9247,-1.8141,-1.7468,-1.5019,-1.2915,-1.117,-0.2064,-0.1974,-0.1614,-0.0985,-0.1613,-0.1884,-0.1074,-0.1703,-0.1973,-0.1253,-0.1972,-0.2331,-0.1789,-0.2777,-0.3317,-0.3127,-0.3396,-0.4018,-0.5075,-0.4009,-0.3474,-0.3735,-0.312,-0.3124,-0.402,-0.4022,-0.527,-0.7863,-0.7863,-0.794,-0.8097,-0.8552,-0.9121,-0.9795,-0.822,-0.6868,-0.5805,-0.5262,-0.5082,-0.5082,-0.5082,-0.526,-0.544,-0.5262,-0.5442,-0.5708,-0.5351,-0.5354,-0.5536,-0.5719,-0.5808,-0.5539,-0.4109,-0.4378,-0.4734,-0.1782,-0.1781,-0.2312,-0.1064,-0.071,-0.0798,-0.1067,-0.1157,-0.0622,0.1232,-0.0703,-0.2734,-0.2028,-0.2194,-0.2178,-0.0863,-0.0686,-0.051,0.0335,0.0167,0.0572,0.2553,0.8694,1.3873,1.6224,2.3198,2.0224,0.0859,0.108,-0.6859,-2.9364,-2.9022,-2.8459,-3.0164,-3.0244,-2.9464,-2.7605,-2.7269,-2.6362,-2.4855,-2.4495,-2.4361,-2.4537,-2.3605,-2.5766,-3.0462,-2.8963,-2.8215,-2.8068,-2.6603,-2.5389,-2.4426,-2.3076,-2.1952,-2.0898,-1.9072,-1.7662,-1.6317,-1.2898,-1.1463,-1.1077,-0.0269,-0.0538,-0.0538,0.0358,0.0089,-0.009,0.0268,-0.009,-0.0269,-0.0,-0.0537,-0.0806,-0.0537,-0.1165,-0.1704,-0.1701,-0.1791,-0.2057,-0.2591,-0.2055,-0.1787,-0.2142,-0.1876,-0.1968,-0.2594,-0.2953,-0.376,-0.5022,-0.5102,-0.509,-0.508,-0.526,-0.5802,-0.6349,-0.5534,-0.437,-0.3032,-0.2764,-0.2672,-0.267,-0.267,-0.276,-0.276,-0.223,-0.223,-0.2586,-0.232,-0.2321,-0.241,-0.2771,-0.295,-0.2772,-0.2058,-0.2326,-0.2592,-0.0625,-0.0535,-0.0979,0.0089,0.0444,0.0533,0.098,0.1071,0.1695,0.4098,0.4519,0.4761,0.5979,0.6057,0.6031,0.6662,0.7495,0.8404,0.9271,0.7605,0.72,0.971,1.3938,1.925,2.6189,3.0306,2.7664,1.5104,1.0994,0.319,-1.1115,-1.5487,-1.8079,-1.9388,-1.9459,-1.9717,-2.0164,-2.1307,-2.1901,-2.1732,-2.308,-2.3829,-2.3806,-2.3043,-2.4124,-2.6782,-2.5583,-2.5019,-2.4946,-2.4245,-2.3587,-2.2989,-2.1578,-2.0421,-1.9413,-1.777,-1.5967,-1.3951,-1.2231,-1.1077,-1.0207]},{"header":{"parameterUnit":"m.s-1","parameterCategory":1,"la1":30.6,"la2":28.766,"lo1":-90.7593,"lo2":-88.6598,"dy":0.0162,"dx":0.0183,"nx":116,"ny":114,"refTime":"2023-05-15T12:00:00:Z","depth":0,"parameterNumber":3,"parameterNumberName":"V-component_of_WINDS"},"data":[0.0,0.0,0.0,0.0,0.0,0.0,0.0,0.0,0.0,0.0,0.0,0.0,0.0,0.0,0.0,0.0,0.0,0.0,0.0,0.0,0.0,0.0,0.0,0.0,0.0,0.0,0.0,0.0,0.0,0.0,0.0,0.0,0.0,0.0,0.0,0.0,0.0,0.0,0.0,0.0,0.0,0.0,0.0,0.0,0.0,0.0,0.0,0.0,0.0,0.0,0.0,0.0,0.0,0.0,0.0,0.0,0.0,0.0,0.0,0.0,0.0,0.0,0.0,0.0,0.0,0.0,0.0,0.0,0.0,0.0,0.0,0.0,0.0,0.0,0.0,0.0,0.0,0.0,0.0,0.0,0.0,0.0,0.0,0.0,0.0,0.0,0.0,0.0,0.0,0.0,0.0,0.0,0.0,0.0,0.0,0.0,0.0,0.0,0.0,0.0,0.0,0.0,0.0,0.0,0.0,0.0,0.0,0.0,0.0,0.0,0.0,0.0,0.0,0.0,0.0,0.0,0.0,0.0,0.0,0.0,0.0,0.0,0.0,0.0,0.0,0.0,0.0,0.0,0.0,0.0,0.0,0.0,0.0,0.0,0.0,0.0,0.0,0.0,0.0,0.0,0.0,0.0,0.0,0.0,0.0,0.0,0.0,0.0,0.0,0.0,0.0,0.0,0.0,0.0,0.0,0.0,0.0,0.0,0.0,0.0,0.0,0.0,0.0,0.0,0.0,0.0,0.0,0.0,0.0,0.0,0.0,0.0,0.0,0.0,0.0,0.0,0.0,0.0,0.0,0.0,0.0,0.0,0.0,0.0,0.0,0.0,0.0,0.0,0.0,0.0,0.0,0.0,0.0,0.0,0.0,0.0,0.0,0.0,0.0,0.0,0.0,0.0,0.0,0.0,0.0,0.0,0.0,0.0,0.0,0.0,0.0,0.0,0.0,0.0,0.0,0.0,0.0,0.0,0.0,0.0,0.0,0.0,0.0,0.0,0.0,0.0,0.0,0.0,0.0,0.0,0.0,0.0,0.0,0.0,0.0,0.0,0.0,0.0,0.0,0.0,0.0,0.0,0.0,0.0,0.0,0.0,0.0,0.0,0.0,0.0,0.0,0.0,0.0,0.0,0.0,0.0,0.0,0.0,0.0,0.0,0.0,0.0,0.0,0.0,0.0,0.0,0.0,0.0,0.0,0.0,0.0,0.0,0.0,0.0,0.0,0.0,0.0,0.0,0.0,0.0,0.0,0.0,0.0,0.0,0.0,0.0,0.0,0.0,0.0,0.0,0.0,0.0,0.0,0.0,0.0,0.0,0.0,0.0,0.0,0.0,0.0,0.0,0.0,0.0,0.0,0.0,0.0,0.0,0.0,0.0,0.0,0.0,0.0,0.0,0.0,0.0,0.0,0.0,0.0,0.0,0.0,0.0,0.0,0.0,0.0,0.0,0.0,0.0,0.0,0.0,0.0,0.0,0.0,0.0,0.0,0.0,0.0,0.0,0.0,0.0,0.0,0.0,0.0,0.0,0.0,0.0,0.0,0.0,0.0,0.0,0.0,0.0,0.0,0.0,0.0,0.0,0.0,0.0,0.0,0.0,0.0,0.0,0.0,0.0,0.0,0.0,0.0,0.0,0.0,0.0,0.0,0.0,0.0,0.0,0.0,0.0,0.0,0.0,0.0,0.0,0.0,0.0,0.0,0.0,0.0,0.0,0.0,0.0,0.0,0.0,0.0,0.0,0.0,0.0,0.0,0.0,0.0,0.0,0.0,0.0,0.0,0.0,0.0,0.0,0.0,0.0,0.0,0.0,0.0,0.0,0.0,0.0,0.0,0.0,0.0,0.0,0.0,0.0,0.0,0.0,0.0,0.0,0.0,0.0,0.0,0.0,0.0,0.0,0.0,0.0,0.0,0.0,0.0,0.0,0.0,0.0,0.0,0.0,0.0,0.0,0.0,0.0,0.0,0.0,0.0,0.0,0.0,0.0,0.0,0.0,0.0,0.0,0.0,0.0,0.0,0.0,0.0,0.0,0.0,0.0,0.0,0.0,0.0,0.0,0.0,0.0,0.0,0.0,0.0,0.0,0.0,0.0,0.0,0.0,0.0,0.0,0.0,0.0,0.0,0.0,0.0,0.0,0.0,0.0,0.0,0.0,0.0,0.0,0.0,0.0,0.0,0.0,0.0,0.0,0.0,0.0,0.0,0.0,0.0,0.0,0.0,0.0,0.0,0.0,0.0,0.0,0.0,0.0,0.0,0.0,0.0,0.0,0.0,0.0,0.0,0.0,0.0,0.0,0.0,0.0,0.0,0.0,0.0,0.0,0.0,0.0,0.0,0.0,0.0,0.0,0.0,0.0,0.0,0.0,0.0,0.0,0.0,0.0,0.0,0.0,0.0,0.0,0.0,0.0,0.0,0.0,0.0,0.0,0.0,0.0,0.0,0.0,0.0,0.0,0.0,0.0,0.0,0.0,0.0,0.0,0.0,0.0,0.0,0.0,0.0,0.0,0.0,0.0,0.0,0.0,0.0,0.0,0.0,0.0,0.0,0.0,0.0,0.0,0.0,0.0,0.0,0.0,0.0,0.0,0.0,0.0,0.0,0.0,0.0,0.0,0.0,0.0,0.0,0.0,0.0,0.0,0.0,0.0,0.0,0.0,0.0,0.0,0.0,0.0,0.0,0.0,0.0,0.0,0.0,0.0,0.0,0.0,0.0,0.0,0.0,0.0,0.0,0.0,0.0,0.0,0.0,0.0,0.0,0.0,0.0,0.0,0.0,0.0,0.0,0.0,0.0,0.0,0.0,0.0,0.0,0.0,0.0,0.0,0.0,0.0,0.0,0.0,0.0,0.0,0.0,0.0,0.0,0.0,0.0,0.0,0.0,0.0,0.0,0.0,0.0,0.0,0.0,0.0,0.0,0.0,0.0,0.0,0.0,0.0,0.0,0.0,0.0,0.0,0.0,0.0,0.0,0.0,0.0,0.0,0.0,0.0,0.0,0.0,0.0,0.0,0.0,0.0,0.0,0.0,0.0,0.0,0.0,0.0,0.0,0.0,0.0,0.0,0.0,0.0,0.0,0.0,0.0,0.0,0.0,0.0,0.0,0.0,0.0,0.0,0.0,0.0,0.0,0.0,0.0,0.0,0.0,0.0,0.0,0.0,0.0,0.0,0.0,0.0,0.0,0.0,0.0,0.0,0.0,0.0,0.0,0.0,0.0,0.0,0.0,0.0,0.0,0.0,0.0,0.0,0.0,0.0,0.0,0.0,0.0,0.0,0.0,0.0,0.0,0.0,0.0,0.0,0.0,0.0,0.0,0.0,0.0,0.0,0.0,0.0,0.0,0.0,0.0,0.0,0.0,0.0,0.0,0.0,0.0,0.0,0.0,0.0,0.0,0.0,0.0,0.0,0.0,0.0,0.0,0.0,0.0,0.0,0.0,0.0,0.0,0.0,0.0,0.0,0.0,0.0,0.0,0.0,0.0,0.0,0.0,0.0,0.0,0.0,0.0,0.0,0.0,0.0,0.0,0.0,0.0,0.0,0.0,0.0,0.0,0.0,0.0,0.0,0.0,0.0,0.0,0.0,0.0,0.0,0.0,0.0,0.0,0.0,0.0,0.0,0.0,0.0,0.0,0.0,0.0,0.0,0.0,0.0,0.0,0.0,0.0,0.0,0.0,0.0,0.0,0.0,0.0,0.0,0.0,0.0,0.0,0.0,0.0,0.0,0.0,0.0,0.0,0.0,0.0,0.0,0.0,0.0,0.0,0.0,0.0,0.0,0.0,0.0,0.0,0.0,0.0,0.0,0.0,0.0,0.0,0.0,0.0,0.0,0.0,0.0,0.0,0.0,0.0,0.0,0.0,0.0,0.0,0.0,0.0,0.0,0.0,0.0,0.0,0.0,0.0,0.0,0.0,0.0,0.0,0.0,0.0,0.0,0.0,0.0,0.0,0.0,0.0,0.0,0.0,0.0,0.0,0.0,0.0,0.0,0.0,0.0,0.0,0.0,0.0,0.0,0.0,0.0,0.0,0.0,0.0,0.0,0.0,0.0,0.0,0.0,0.0,0.0,0.0,0.0,0.0,0.0,0.0,0.0,0.0,0.0,0.0,0.0,0.0,0.0,0.0,0.0,0.0,0.0,0.0,0.0,0.0,0.0,0.0,0.0,0.0,0.0,0.0,0.0,0.0,0.0,0.0,0.0,0.0,0.0,0.0,0.0,0.0,0.0,0.0,0.0,0.0,0.0,0.0,0.0,0.0,0.0,0.0,0.0,0.0,0.0,0.0,0.0,0.0,0.0,0.0,0.0,0.0,0.0,0.0,0.0,0.0,0.0,0.0,0.0,0.0,0.0,0.0,0.0,0.0,0.0,0.0,0.0,0.0,0.0,0.0,0.0,0.0,0.0,0.0,0.0,0.0,0.0,0.0,0.0,0.0,0.0,0.0,0.0,0.0,0.0,0.0,0.0,0.0,0.0,0.0,0.0,0.0,0.0,0.0,0.0,0.0,0.0,0.0,0.0,0.0,0.0,0.0,0.0,0.0,0.0,0.0,0.0,0.0,0.0,0.0,0.0,0.0,0.0,0.0,0.0,0.0,0.0,0.0,0.0,0.0,0.0,0.0,0.0,0.0,0.0,0.0,0.0,0.0,0.0,0.0,0.0,0.0,0.0,0.0,0.0,0.0,0.0,0.0,0.0,0.0,0.0,0.0,0.0,0.0,0.0,0.0,0.0,0.0,0.0,0.0,0.0,0.0,0.0,0.0,0.0,0.0,0.0,0.0,0.0,0.0,0.0,0.0,0.0,0.0,0.0,0.0,0.0,0.0,0.0,0.0,0.0,0.0,0.0,0.0,0.0,0.0,0.0,0.0,0.0,0.0,0.0,0.0,0.0,0.0,0.0,0.0,0.0,0.0,0.0,0.0,0.0,0.0,0.0,0.0,0.0,0.0,0.0,0.0,0.0,0.0,0.0,0.0,0.0,0.0,0.0,0.0,0.0,0.0,0.0,0.0,0.0,0.0,0.0,0.0,0.0,0.0,0.0,0.0,0.0,0.0,0.0,0.0,0.0,0.0,0.0,0.0,0.0,0.0,0.0,0.0,0.0,0.0,0.0,0.0,0.0,0.0,0.0,0.0,0.0,0.0,0.0,0.0,0.0,0.0,0.0,0.0,0.0,0.0,0.0,0.0,0.0,0.0,0.0,0.0,0.0,0.0,0.0,0.0,0.0,0.0,0.0,0.0,0.0,0.0,0.0,0.0,0.0,0.0,0.0,0.0,0.0,0.0,0.0,0.0,0.0,0.0,0.0,0.0,0.0,0.0,0.0,0.0,0.0,0.0,0.0,0.0,0.0,0.0,0.0,0.0,0.0,0.0,0.0,0.0,0.0,0.0,0.0,0.0,0.0,0.0,0.0,0.0,0.0,0.0,0.0,0.0,0.0,0.0,0.0,0.0,0.0,0.0,0.0,0.0,0.0,0.0,0.0,0.0,0.0,0.0,0.0,0.0,0.0,0.0,0.0,0.0,0.0,0.0,0.0,0.0,0.0,0.0,0.0,0.0,0.0,0.0,0.0,0.0,0.0,0.0,0.0,0.0,0.0,0.0,0.0,0.0,0.0,0.0,0.0,0.0,0.0,0.0,0.0,0.0,0.0,0.0,0.0,0.0,0.0,0.0,0.0,0.0,0.0,0.0,0.0,0.0,0.0,0.0,0.0,0.0,0.0,0.0,0.0,0.0,0.0,0.0,0.0,0.0,0.0,0.0,0.0,0.0,0.0,0.0,0.0,0.0,0.0,0.0,0.0,0.0,0.0,0.0,0.0,0.0,0.0,0.0,0.0,0.0,0.0,0.0,0.0,0.0,0.0,0.0,0.0,0.0,0.0,0.0,0.0,0.0,0.0,0.0,0.0,0.0,0.0,0.0,0.0,0.0,0.0,0.0,0.0,0.0,0.0,0.0,0.0,0.0,0.0,0.0,0.0,0.0,0.0,0.0,0.0,0.0,0.0,0.0,0.0,0.0,0.0,0.0,0.0,0.0,0.0,0.0,0.0,0.0,0.0,0.0,0.0,0.0,0.0,0.0,0.0,0.0,0.0,0.0,0.0,0.4033,0.4232,0.0,0.0,0.0,0.0,0.0,0.0,0.0,0.0,0.0,0.0,0.0,0.0,0.0,0.0,0.0,0.0,0.0,0.0,0.0,0.0,0.0,0.0,0.0,0.0,0.0,0.0,0.0,0.0,0.0,0.0,0.0,0.0,0.0,0.0,0.0,0.0,0.0,0.0,0.0,0.0,0.0,0.0,0.0,0.0,0.0,0.0,0.0,0.0,0.0,0.0,0.0,0.0,0.0,0.0,0.0,0.0,0.0,0.0,0.0,0.0,0.0,0.0,0.0,0.0,0.0,0.0,0.0,0.0,0.0,0.0,0.0,0.0,0.0,0.0,0.0,0.0,0.0,0.0,0.0,0.0,0.0,0.0,0.0,0.0,0.0,0.0,0.0,0.0,0.0,0.0,0.0,0.0,0.0,0.0,0.0,0.0,0.0,0.0,0.0,0.0,0.0,0.0,0.0,0.0,0.0,0.0,0.0,0.0,0.0,0.0,0.0,0.0,0.0,0.0,0.3229,0.383,0.0,0.0,0.0,0.0,0.0,0.0,0.0,0.0,0.0,0.0,0.0,0.0,0.0,0.0,0.0,0.0,0.0,0.0,0.0,0.0,0.0,0.0,0.0,0.0,0.0,0.0,0.0,0.0,0.0,0.0,0.0,0.0,0.0,0.0,0.0,0.0,0.0,0.0,0.0,0.0,0.0,0.0,0.0,0.0,0.0,0.0,0.0,0.0,0.0,0.0,0.0,0.0,0.0,0.0,0.0,0.0,0.0,0.0,0.0,0.0,0.0,0.0,0.0,0.0,0.0,0.0,0.0,0.0,0.0,0.0,0.0,0.0,0.0,0.0,0.0,0.0,0.0,0.0,0.0,0.0,0.0,0.0,0.0,0.0,0.0,0.0,0.0,0.0,0.0,0.0,0.0,0.0,0.0,0.0,0.0,0.0,0.0,0.0,0.0,0.0,0.0,0.0,0.0,0.0,0.0,0.0,0.0,0.0,0.333,0.3027,0.2725,0.2725,0.2424,0.2122,0.2524,0.3428,0.4628,0.4232,0.0,0.0,0.0,0.0,0.0,0.0,0.0,0.0,0.0,0.0,0.0,0.0,0.0,0.0,0.0,0.0,0.0,0.0,0.0,0.0,0.0,0.0,0.0,0.0,0.0,0.0,0.0,0.0,0.0,0.0,0.0,0.0,0.0,0.0,0.0,0.0,0.0,0.0,0.371,0.3118,0.3116,0.3503,0.2408,0.0,0.0,0.0,0.0,0.0,0.0,0.0,0.0,0.0,0.0,0.0,0.0,0.0,0.0,0.0,0.0,0.0,0.0,0.0,0.0,0.0,0.0,0.0,0.0,0.0,0.0,0.0,0.0,0.0,0.0,0.0,0.0,0.0,0.0,0.0,0.0,0.0,0.0,0.0,0.0,0.0,0.0,0.0,0.5832,0.5133,0.0,0.0,0.0,0.0,0.0,0.0,0.0,0.0,0.0,0.0,0.0,0.0,0.0,0.3831,0.343,0.3331,0.323,0.2927,0.2927,0.2725,0.2422,0.2222,0.2222,0.2321,0.2223,0.0,0.2822,0.3927,0.0,0.0,0.0,0.0,0.0,0.0,0.0,0.0,0.0,0.0,0.0,0.0,0.0,0.0,0.0,0.0,0.0,0.0,0.0,0.0,0.0,0.0,0.0,0.0,0.0,0.0,0.0,0.0,0.0,0.0,0.0,0.0,0.0,0.0,0.0,0.0,0.4604,0.4885,0.5329,0.483,0.4632,0.4638,0.3728,0.3327,0.3127,0.2801,0.0,0.0,0.0,0.0,0.0,0.0,0.0,0.0,0.0,0.0,0.0,0.0,0.0,0.0,0.0,0.0,0.0,0.0,0.0,0.0,0.0,0.0,0.0,0.0,0.0,0.0,0.0,0.0,0.0,0.0,0.0,0.0,0.0,0.0,0.0,0.0,0.0,0.0,0.0,0.7123,0.6528,0.6628,0.7518,0.8414,0.0,0.0,0.0,0.0,0.0,0.0,0.0,0.0,0.0,0.5432,0.4832,0.4033,0.323,0.323,0.313,0.3027,0.2826,0.2623,0.2422,0.2122,0.2021,0.1919,0.1819,0.192,0.2222,0.3126,0.4029,0.4828,0.0,0.0,0.0,0.0,0.7915,0.7819,0.0,0.0,0.0,0.0,0.0,0.0,0.0,0.0,0.0,0.0,0.0,0.0,0.0,0.0,0.0,-1.9023,0.0,0.0,0.0,0.0,0.0,0.0,0.0,0.0,0.0,0.0,0.0,0.0,0.6187,0.6134,0.6637,0.6134,0.5737,0.5438,0.4933,0.4331,0.3531,0.3027,0.2903,0.0,0.0,0.0,0.0,0.0,0.0,0.0,0.0,0.0,0.0,0.0,0.0,0.0,0.0,0.0,0.0,0.0,0.0,0.0,0.0,0.0,0.0,0.0,0.0,0.0,0.0,0.0,0.0,0.0,0.0,0.0,0.0,0.0,0.0,0.0,0.0,0.0,0.0,0.7319,0.6528,0.7521,0.8011,0.8407,0.0,0.0,0.0,0.0,0.0,0.0,0.9015,0.8517,0.7521,0.5832,0.5432,0.4832,0.4031,0.3731,0.3632,0.3632,0.3027,0.2623,0.2422,0.2122,0.1819,0.1617,0.1617,0.1718,0.1921,0.2424,0.3127,0.4028,0.473,0.5327,0.5922,0.6722,0.7223,0.7422,0.0,0.0,0.0,0.0,0.0,0.0,0.0,0.0,0.0,0.0,0.0,0.0,0.0,0.0,-2.4699,-1.8326,-1.4732,-1.0049,0.0,0.0,0.0,0.0,0.0,0.0,0.0,0.0,0.0,0.8319,0.8031,0.764,0.7138,0.6833,0.6634,0.6337,0.5737,0.5233,0.4634,0.3328,0.3226,0.382,0.0,0.0,0.0,0.0,0.0,0.0,0.0,0.0,0.0,0.0,0.0,0.0,0.0,0.0,0.0,0.0,0.0,0.0,0.0,0.0,0.0,0.0,0.0,0.0,0.0,0.0,0.0,0.0,0.0,0.0,0.0,0.0,0.0,0.0,0.0,0.0,0.0,0.0,0.0,0.6617,0.6022,0.0,0.0,0.0,0.0,0.8905,0.9513,0.9517,0.8513,0.8219,0.7521,0.6423,0.6323,0.6323,0.6224,0.5231,0.4734,0.4734,0.3429,0.2623,0.2422,0.2122,0.1819,0.1617,0.1617,0.1617,0.1617,0.1921,0.2323,0.3026,0.4029,0.4031,0.363,0.5724,0.5827,0.5233,0.0,0.0,0.0,0.0,0.0,0.0,0.0,0.0,0.0,0.0,0.0,0.0,0.0,-2.8012,-2.467,-1.5512,-1.4366,-0.9844,0.0175,0.0,0.0,0.0,0.0,0.0,0.0,0.0,0.9337,0.913,0.873,0.863,0.873,0.8326,0.7928,0.7633,0.693,0.6531,0.6237,0.4531,0.393,0.393,0.3306,0.3075,0.0,0.0,0.0,0.0,0.0,0.0,0.0,0.0,0.0,0.0,0.0,0.0,0.0,0.0,0.0,0.0,0.0,0.0,0.0,0.0,0.0,0.0,0.0,0.0,0.0,0.0,0.0,0.0,0.0,0.0,0.0,0.0,0.0,0.0,0.0,0.0,0.0,0.6822,0.5927,0.0,0.7908,0.771,0.811,0.9513,0.9019,0.8821,0.9122,0.9126,0.8524,0.7422,0.7422,0.7163,0.6642,0.6241,0.6075,0.6251,0.5521,0.5207,0.5101,0.4586,0.4378,0.4273,0.4068,0.4068,0.4273,0.4378,0.3705,0.2724,0.413,0.4433,0.4433,0.5827,0.6625,0.6927,0.0,0.0,0.0,0.0,0.0,0.0,0.0,0.0,0.0,0.0,0.0,-2.67,-2.6269,-2.4768,-2.0539,-1.2565,-1.014,-0.5348,0.3233,0.0,0.0,0.0,0.0,0.0,0.0,1.1278,1.1125,1.0886,1.0386,1.0288,1.0587,1.0092,0.9702,0.9312,0.8612,0.8021,0.7534,0.6029,0.5131,0.4636,0.3833,0.3406,0.3466,0.0,0.0,0.0,0.0,0.0,0.0,0.0,0.0,0.0,0.0,0.0,0.0,0.0,0.0,0.0,0.0,0.0,0.0,0.0,0.0,0.0,0.0,0.0,0.0,0.0,0.0,0.0,0.0,0.0,0.0,0.0,0.0,0.0,0.0,0.5529,0.4732,0.6822,0.5527,0.5427,0.7813,0.7217,0.7415,0.9221,0.8821,0.8825,0.9525,0.9685,0.941,0.87,0.8754,0.8428,0.7907,0.7495,0.7437,0.7527,0.6998,0.6682,0.6574,0.6047,0.5836,0.5728,0.5521,0.5519,0.5728,0.5941,0.5129,0.3898,0.5022,0.5433,0.5634,0.6707,0.7494,0.8092,0.0,0.0,0.0,0.0,0.0,0.0,0.0,0.0,0.0,0.0,-2.7734,-2.6342,-2.5021,-1.8121,-1.2443,-0.9662,-0.2064,0.3431,0.5597,0.7166,0.0,0.0,0.0,0.0,1.3562,1.3109,1.3078,1.3578,1.2995,1.2705,1.2705,1.2216,1.1736,1.1268,1.0779,0.9801,0.8428,0.7621,0.6828,0.5942,0.4535,0.4033,0.4033,0.0,0.0,0.0,0.0,0.0,0.0,0.0,0.0,0.0,0.0,0.0,0.0,0.0,0.0,0.0,0.0,0.0,0.0,0.0,0.0,0.0,0.0,0.0,0.0,0.0,0.0,0.0,0.0,0.0,0.0,0.0,0.0,0.0,0.6921,0.5331,0.463,0.6517,0.4628,0.4031,0.6124,0.6423,0.6822,0.7922,0.8928,0.9537,0.9636,0.9799,0.9892,0.9892,1.0067,1.0164,1.0172,0.9216,0.8689,0.8692,0.7644,0.7012,0.669,0.6376,0.6059,0.5843,0.5843,0.5843,0.5843,0.6479,0.669,0.669,0.6682,0.6787,0.7197,0.8004,0.8364,0.8445,0.0,0.0,0.0,0.0,0.0,0.0,0.0,0.0,0.0,0.0,-2.5841,-2.3184,-2.2196,-1.7935,-1.2898,-0.7381,-0.2568,0.2169,0.6934,0.0,0.0,0.0,0.0,0.0,1.5729,1.5403,1.5241,1.5435,1.3939,1.3578,1.4064,1.3567,1.3369,1.3369,1.3064,1.2002,1.0565,0.996,0.8989,0.7534,0.5434,0.4736,0.4937,0.0,0.0,0.0,0.0,0.0,0.0,0.0,0.0,0.0,0.0,0.0,0.0,0.0,0.0,0.0,0.0,0.0,0.0,0.0,0.0,0.0,0.0,0.0,0.0,0.0,0.0,0.0,0.0,0.0,0.0,0.0,0.5131,0.4433,0.4832,0.4031,0.3632,0.413,0.363,0.3732,0.5133,0.5927,0.6822,0.7922,0.8327,0.8899,0.9815,0.916,0.925,1.0087,1.0136,1.0225,1.0359,1.0036,0.9988,1.0105,0.9779,0.9671,0.9559,0.9236,0.9128,0.9015,0.8798,0.8798,0.9015,0.9236,0.945,0.9425,0.8448,0.8046,0.8256,0.9265,0.9669,0.9665,0.0,0.0,0.0,0.0,0.0,0.0,0.0,0.0,0.0,0.0,-2.4847,-2.1709,-2.0823,-1.4552,-0.8675,-0.4614,0.1068,0.5782,0.8806,0.0,0.0,0.0,0.0,1.6734,1.7746,1.7415,1.7308,1.7517,1.6497,1.6048,1.6082,1.5853,1.5563,1.519,1.5158,1.4201,1.2592,1.2098,1.084,0.9099,0.7412,0.6326,0.5739,0.5737,0.5539,0.524,0.5839,0.5636,0.5133,0.5436,0.0,0.0,0.0,0.0,0.0,0.0,0.0,0.0,0.0,0.0,0.0,0.0,0.0,0.0,0.0,0.0,0.0,0.0,0.0,0.0,0.0,0.0,0.0,0.0,0.4533,0.4033,0.4033,0.3531,0.323,0.323,0.323,0.3632,0.4734,0.5871,0.7006,0.8016,0.8667,0.9274,1.0002,0.9545,0.9531,1.0278,1.0347,1.0436,1.0542,1.0542,1.0595,1.0692,1.0692,1.0692,1.0692,1.0476,1.0257,1.0257,1.0036,1.0147,1.0257,1.0476,1.0586,1.0672,0.0,0.0,0.0,0.0,1.0229,1.016,0.0,0.0,0.0,0.0,0.0,0.0,0.0,0.0,0.0,0.0,0.0,-2.1353,-2.0198,-1.0084,-0.3089,-0.2375,0.5877,1.0883,0.0,0.0,0.0,1.5651,1.6398,1.773,1.9773,1.9332,1.9278,1.9886,1.9795,1.9347,1.8611,1.8756,1.8288,1.7282,1.7431,1.6476,1.4696,1.422,1.2764,1.0724,1.0262,0.8601,0.6539,0.6239,0.5942,0.5739,0.6739,0.6634,0.6229,0.6731,0.0,0.0,0.0,0.0,0.0,0.0,0.0,0.0,0.0,0.0,0.0,0.0,0.0,0.0,0.0,0.0,0.0,0.0,0.0,0.0,0.0,0.0,0.0,0.0,0.4033,0.4033,0.4033,0.3632,0.3331,0.3331,0.3331,0.3736,0.4748,0.6037,0.7229,0.8173,0.9461,1.0188,1.0297,1.0257,0.0,0.0,0.0,1.0692,1.0692,1.0692,1.0692,1.0692,1.0692,1.0692,1.0692,1.0472,1.0366,1.0366,1.0366,1.0366,1.0363,1.0582,1.0802,1.0907,1.0802,1.0802,1.0891,1.0733,1.0678,1.0636,0.0,0.0,0.0,0.0,0.0,0.0,0.0,0.0,0.0,-2.7059,-2.3206,-2.0081,-1.8319,-1.1018,-0.5612,-0.4208,0.2603,0.8033,0.0,0.0,1.3898,1.574,1.7212,1.9228,2.184,2.0968,2.104,2.2385,2.1391,2.1185,2.1752,2.1743,2.1585,2.1159,2.1239,2.0065,1.8064,1.7152,1.5718,1.3987,1.3058,1.0556,0.7344,0.7039,0.7531,0.8421,0.8418,0.8901,0.9481,0.9583,0.9481,0.928,0.9579,0.9288,0.0,0.0,0.0,0.0,0.0,0.0,0.0,0.0,0.0,0.0,0.0,0.0,0.0,0.0,0.0,0.0,0.0,0.0,0.0,0.4832,0.4232,0.4133,0.4533,0.4533,0.4533,0.4533,0.4533,0.4661,0.4939,0.6594,0.7779,0.8105,0.9093,1.004,1.1018,1.0109,0.9975,1.0967,1.0781,1.0692,1.0692,1.0692,1.0692,1.0692,1.0692,0.0,1.0692,1.0692,1.0582,1.0582,1.0582,1.0582,1.0582,1.0692,1.1232,1.1982,1.1013,1.1232,1.2091,1.205,1.2548,1.3362,0.0,0.0,0.0,0.0,0.0,0.0,0.0,0.0,0.0,0.0,-2.3575,-2.0101,-1.8241,-1.2433,-0.7714,-0.5605,0.0262,0.0,0.0,1.1975,1.4358,1.5036,1.9697,2.2692,2.3641,2.3335,2.3462,2.4127,2.3503,2.3172,2.3152,2.3735,2.3735,2.3325,2.367,2.3046,2.1618,2.082,1.9241,1.7191,1.6192,1.3939,1.0914,0.9955,0.9874,1.028,0.9887,1.0079,1.0369,1.0369,1.0467,1.0565,1.0467,1.0569,1.0769,0.0,0.0,0.0,0.0,0.0,0.0,0.0,0.0,0.0,0.0,0.0,0.0,0.0,0.0,0.5411,0.5622,0.0,0.5227,0.4131,0.4234,0.4533,0.4734,0.5035,0.5135,0.4834,0.4875,0.492,0.4967,0.6513,0.7657,0.8255,0.9259,1.0333,1.1428,1.0858,1.0794,1.1345,1.1017,1.0911,1.0911,1.0802,1.0692,1.0692,1.0692,1.0692,1.0692,1.0692,1.0692,1.0692,1.0692,1.0692,1.0692,1.1341,1.22,1.3166,1.263,1.2738,1.3275,1.3275,1.3593,1.4132,0.0,0.0,0.0,0.0,0.0,0.0,0.0,0.0,0.0,0.0,-2.4248,-2.0675,-1.9049,-1.3868,-0.9207,0.0,0.0,0.0,0.0,1.0191,1.3607,1.4699,2.0927,2.48,2.5612,2.5616,2.5615,2.5598,2.5769,2.559,2.5061,2.6129,2.6188,2.5579,2.6106,2.587,2.5029,2.425,2.265,2.0589,1.9698,1.7987,1.5812,1.4319,1.303,1.2017,1.1648,1.1448,1.1439,1.1439,1.1838,1.2334,1.1638,1.2237,1.3044,1.2247,1.2452,0.0,0.0,0.0,0.0,0.0,0.0,0.0,0.0,0.5313,0.5413,0.3919,0.382,0.3922,0.4028,0.4433,0.4535,0.3632,0.4334,0.5035,0.5135,0.5553,0.5665,0.5164,0.5233,0.5296,0.5333,0.6541,0.7627,0.8406,0.9618,1.0688,1.1459,1.1568,1.1678,1.1678,1.135,1.1236,1.1236,1.0911,1.0802,1.0802,1.0692,1.0692,1.0692,1.0692,1.0692,1.0692,1.0907,1.1122,1.1446,1.2304,1.3383,1.4454,1.4454,1.4567,1.4776,1.4567,1.4567,1.4781,0.0,0.0,0.0,0.0,0.0,0.0,0.0,0.0,0.0,0.0,0.0,0.0,0.0,0.0,0.0,0.0,0.0,0.0,0.2922,0.5142,0.938,1.6269,1.7234,2.1094,2.8552,2.6661,2.6241,2.7471,2.8123,2.8925,2.977,3.055,3.0559,2.9896,2.9984,2.916,2.7711,2.6703,2.5585,2.4366,2.3549,2.2341,2.0998,2.0606,1.788,1.4238,1.3968,1.4465,1.5242,1.5242,1.5248,1.5248,1.4949,1.4663,1.4376,1.3806,1.3414,1.3028,1.2759,1.076,0.8273,0.6294,0.5406,0.4214,0.0,0.1509,0.221,0.1109,0.0908,0.1211,0.2421,0.3024,0.3726,0.4533,0.5135,0.5634,0.6137,0.6326,0.6497,0.6395,0.6405,0.6495,0.6708,0.7609,0.8212,0.8449,1.0014,1.1017,1.1126,1.1678,1.2005,1.2005,1.1678,1.1568,1.1568,1.124,1.1017,1.1017,1.0802,1.0692,1.0692,1.0692,1.0692,1.0802,1.1769,1.2738,1.3706,1.3809,1.4567,1.5755,1.5755,1.6287,1.7041,1.6074,1.6293,1.7259,0.0,0.0,0.0,0.0,0.0,0.0,0.0,0.0,0.0,0.0,0.0,0.0,0.0,0.0,0.0,0.0,0.0,0.0,0.0355,0.5096,0.864,1.0673,1.8379,2.3496,2.5313,2.7591,2.8919,2.9331,2.9267,2.9477,2.9981,3.1317,3.1607,3.085,3.1806,3.1581,3.0351,2.9732,2.8448,2.6892,2.5672,2.4228,2.2729,2.1945,2.0445,1.8754,1.7353,1.6406,0.0,0.0,1.6015,1.5547,1.6278,1.5805,1.4962,1.5311,1.4651,1.321,1.0538,0.9162,0.798,0.5506,0.5218,0.492,0.2513,0.2612,0.2613,0.0807,0.101,0.1816,0.2722,0.3527,0.423,0.4734,0.5233,0.5658,0.6025,0.6382,0.6673,0.6815,0.6831,0.6872,0.6975,0.7368,0.7868,0.8481,0.9144,1.0029,1.1017,1.135,1.1673,1.2223,1.2005,1.1787,1.1787,1.1568,1.135,1.135,1.1131,1.1345,1.1991,1.1773,1.2091,1.2738,1.3166,1.403,1.5102,1.5102,1.5855,1.6935,1.6935,1.7153,1.7582,1.7047,1.7153,1.7582,0.0,0.0,0.0,0.0,0.0,0.0,0.0,0.0,0.0,0.0,0.0,0.0,0.0,0.0,0.0,0.0,0.0,0.0,0.0,0.3458,0.6583,0.7562,1.832,2.4198,2.4092,2.9173,3.1757,3.153,3.1233,3.1061,3.1082,3.2742,3.3152,3.2551,3.3514,3.3454,3.2633,3.2083,3.0681,2.8816,2.7753,2.617,2.4279,2.3446,2.2964,2.2322,1.9869,1.8263,0.0,0.0,1.7176,1.6872,1.7865,1.7472,1.6814,1.7159,1.6236,1.425,1.0405,0.9143,0.8269,0.5712,0.522,0.5122,0.4014,0.3615,0.3015,0.1713,0.1915,0.2519,0.3425,0.4329,0.4933,0.5135,0.5536,0.5876,0.609,0.6442,0.6747,0.7067,0.7122,0.7359,0.768,0.7761,0.8036,0.8813,0.9361,1.0127,1.1341,1.1564,1.2005,1.2659,1.2332,1.2114,1.2114,1.1787,1.1896,1.2219,1.1887,1.2313,1.3496,1.3171,1.3599,1.4674,1.4674,1.5316,1.6399,1.6399,1.6829,1.7582,1.7582,1.7582,1.7687,1.7891,1.7891,1.7582,0.0,0.0,0.0,0.0,0.0,0.0,0.0,0.0,0.0,0.0,0.0,0.0,0.0,0.0,0.0,0.0,0.0,0.0,0.0,-0.1961,0.1446,1.0453,1.5027,2.0591,2.7667,3.1887,3.4016,3.4105,3.4708,3.4975,3.492,3.5999,3.6397,3.6241,3.5636,3.4967,3.4348,3.3366,3.1904,3.0228,3.0228,2.8879,2.689,2.6815,2.5744,2.3711,2.0853,0.0,0.0,0.0,1.9885,2.0688,2.0488,2.0571,2.0532,1.962,1.8272,1.6713,1.4315,1.1966,0.9722,0.7298,0.5415,0.4016,0.4016,0.3015,0.2413,0.3615,0.2914,0.2516,0.4026,0.483,0.5331,0.5839,0.6239,0.648,0.6916,0.6829,0.6948,0.7288,0.7523,0.8149,0.957,0.9453,0.9343,0.9688,1.1542,1.2521,1.1982,1.2762,1.3207,1.3315,1.2659,1.2436,1.2436,1.2114,1.254,1.3619,1.3403,1.3819,1.4877,1.468,1.5114,1.6187,1.5968,1.6505,1.7582,1.7582,1.7582,1.7582,1.7582,1.7582,1.7681,1.8819,1.8506,1.7582,0.0,0.0,0.0,0.0,0.0,0.0,0.0,0.0,0.0,0.0,0.0,0.0,0.0,0.0,0.0,0.0,0.0,0.0,0.0,0.1071,0.2992,0.6401,1.2968,1.7272,1.8909,2.7471,3.1813,3.1661,3.4277,3.5527,3.5544,3.6783,3.6995,3.6276,3.6944,3.6634,3.5538,3.5054,3.3652,3.1819,3.1339,2.979,2.7764,2.7421,2.6334,2.487,0.0,0.0,0.0,0.0,2.0343,2.0121,2.1352,2.1099,2.0263,1.9962,1.8867,1.7309,1.5055,1.3194,1.1225,0.8579,0.7409,0.6623,0.532,0.472,0.4318,0.4016,0.4906,0.5897,0.6401,0.7205,0.7912,0.8113,0.7409,0.7214,0.8374,0.8523,0.8779,1.0004,1.0183,1.066,1.1651,1.0449,1.0006,1.0874,1.1524,1.2077,1.2521,1.2856,1.33,1.3851,1.4261,1.4358,1.4153,1.4567,1.4995,1.5221,1.5642,1.5956,1.6162,1.681,1.7351,1.7681,1.7569,1.7786,1.8108,1.8108,1.8506,1.9213,1.9213,1.962,2.0326,2.0743,2.0633,2.0238,0.0,0.0,0.0,0.0,0.0,0.0,0.0,0.0,0.0,0.0,0.0,0.0,0.0,0.0,0.0,0.0,0.0,-0.2394,0.0,0.0,0.478,0.6286,1.3894,1.81,1.8109,2.68,3.1386,3.1326,3.4172,3.5399,3.5137,3.7023,3.7564,3.7011,3.7638,3.7543,3.6811,3.6392,3.5148,3.3467,3.2739,3.104,2.8907,2.8126,2.6992,0.0,0.0,0.0,0.0,2.2292,2.199,2.1818,2.3202,2.3074,2.2288,2.1577,2.0454,1.8902,1.6071,1.445,1.3086,1.0538,0.9583,0.8913,0.7707,0.7009,0.6509,0.6305,0.748,0.8656,0.9056,0.9375,0.9706,1.0259,0.8981,0.8522,1.0188,1.0212,1.0456,1.1615,1.1638,1.2077,1.3176,1.2091,1.1647,1.2403,1.2832,1.327,1.3614,1.3619,1.4051,1.4911,1.5215,1.5423,1.5648,1.6168,1.6486,1.6711,1.7555,1.7877,1.7667,1.8318,1.8743,1.9146,1.9027,1.9228,1.9531,1.9531,2.004,2.0633,2.0633,2.1041,2.1752,2.2156,2.2265,2.2181,0.0,0.0,0.0,0.0,0.0,0.0,0.0,0.0,0.0,0.0,0.0,0.0,0.0,0.0,0.0,0.0,0.0,0.0,0.0,0.0,0.0,0.9847,1.7187,2.2155,2.423,2.9509,3.2386,3.272,3.4481,3.4918,3.4204,3.6832,3.8188,3.841,3.7801,3.7769,3.8174,3.7359,3.6347,3.519,3.4413,3.2638,3.0367,2.926,0.0,0.0,0.0,0.0,2.4992,2.4374,2.4746,2.5518,2.5777,2.6054,2.5961,2.4198,2.2833,2.1219,1.7372,1.5927,1.5082,1.3363,1.2027,1.1063,1.097,0.9768,0.9068,1.0284,1.0533,1.0891,1.1813,1.1044,1.082,1.2218,1.0961,1.0297,1.2039,1.2091,1.1959,1.2172,1.2195,1.2852,1.4272,1.4379,1.4487,1.4482,1.5351,1.5678,1.5035,1.5035,1.5458,1.6293,1.5849,1.6056,1.681,1.681,1.7338,1.8087,1.925,1.9576,1.9376,1.9182,1.9576,2.0577,2.0246,2.0735,2.1752,2.1752,2.1752,2.1845,2.1845,2.1853,2.2055,2.3085,2.3384,2.3194,0.0,0.0,0.0,0.0,0.0,0.0,0.0,0.0,0.0,0.0,0.0,0.0,0.0,0.0,0.0,0.0,0.0,0.0,0.0,0.0,0.0,0.0,0.0,0.0,0.0,0.0,0.0,0.0,0.0,3.597,3.6396,3.7045,3.7942,3.899,3.8963,3.8829,3.8563,3.8558,3.7633,3.6113,0.0,3.3948,3.1814,0.0,0.0,0.0,0.0,0.0,2.599,2.5216,2.4868,2.463,2.3656,2.3356,2.3258,2.2854,2.1423,2.0007,1.9743,1.8257,1.6778,1.6628,1.5846,1.4798,1.3408,1.2816,1.2523,1.1915,1.3329,1.4456,1.4028,1.41,1.4178,1.3906,1.2203,1.1488,1.3226,1.3508,1.3853,1.4793,1.5227,1.5861,1.6922,1.7233,1.764,1.8464,1.6922,1.5785,1.5678,1.6305,1.6723,1.6935,1.7982,1.8617,1.8632,1.9034,1.9339,1.9554,1.9872,2.038,2.1081,2.0783,2.1285,2.2282,2.1979,2.2072,2.2282,2.2282,2.2776,2.3475,2.3475,2.3989,2.4707,2.502,2.5128,2.502,0.0,0.0,0.0,0.0,0.0,0.0,0.0,0.0,0.0,0.0,0.0,0.0,0.0,0.0,0.0,0.0,0.0,0.0,0.0,0.0,0.0,0.0,0.0,0.0,0.0,0.0,0.0,0.0,0.0,0.0,0.0,3.402,3.4653,3.6046,3.6153,3.648,3.6998,3.7868,0.0,0.0,0.0,0.0,0.0,0.0,0.0,0.0,0.0,2.7681,2.5977,2.4919,2.4154,2.3585,2.3231,2.349,2.3824,2.3587,2.2828,2.1892,2.1316,2.0253,1.924,1.9149,1.837,1.732,1.6299,1.6012,1.5732,1.5194,1.6957,1.8362,1.7208,1.6793,1.6452,1.6215,1.4335,1.354,1.5572,1.5659,1.6068,1.7549,1.7555,1.7871,1.8805,1.9005,1.931,1.993,1.8582,1.7654,1.7654,1.8178,1.8596,1.9013,1.996,2.0388,2.0403,2.0901,2.1097,2.0987,2.1481,2.1887,2.2391,2.2291,2.2785,2.3791,2.3484,2.3692,2.4088,2.3908,2.4304,2.4805,2.4805,2.5118,2.5742,2.5742,2.5742,2.5635,0.0,0.0,0.0,0.0,0.0,0.0,0.0,0.0,0.0,0.0,0.0,0.0,0.0,0.0,0.0,0.0,0.0,0.0,0.0,0.0,0.0,0.0,0.0,0.0,0.0,0.0,0.0,0.0,0.0,0.0,0.0,0.0,0.0,0.0,0.0,0.0,0.0,0.0,0.0,0.0,0.0,0.0,0.0,0.0,0.0,0.0,0.0,2.8329,2.5599,2.399,2.3017,2.2541,2.3231,2.4224,2.5027,2.4686,2.4777,2.447,2.2563,2.2095,2.2105,2.1373,2.0416,1.9726,1.9545,1.9348,1.9159,1.915,2.0775,2.1891,2.0792,1.9331,1.8427,1.8791,1.6939,1.6145,1.8296,1.8094,1.8199,1.9826,1.9213,1.9109,2.0135,2.0341,2.0341,2.0546,2.0641,2.0538,2.0033,2.0135,2.0554,2.1591,2.1582,2.1794,2.2021,2.2526,2.261,2.2391,2.3294,2.3692,2.3592,2.3592,2.4187,2.5187,2.4894,2.5294,2.61,2.5917,2.583,2.5732,2.5917,2.5917,2.5917,2.6004,2.61,2.61,0.0,0.0,0.0,0.0,0.0,0.0,0.0,0.0,0.0,0.0,-2.9941,-2.7066,0.0,0.0,0.0,0.0,0.0,0.0,0.0,0.0,0.0,0.0,0.0,0.0,0.0,2.6855,2.8518,3.0187,3.1042,0.0,0.0,0.0,0.0,0.0,0.0,0.0,0.0,0.0,0.0,0.0,0.0,0.0,0.0,0.0,0.0,0.0,3.1384,2.8864,2.6054,2.3379,2.2262,2.1772,2.0712,2.0839,2.1561,2.2342,2.2247,2.2231,2.3768,2.4152,2.4173,2.4074,2.465,2.4608,2.2524,2.2843,2.3246,2.2108,2.3073,2.3886,2.2669,2.1873,2.1347,2.1028,1.945,1.8651,1.9626,1.9826,1.993,2.0025,2.0254,2.0767,2.1676,2.1895,2.2417,2.3429,2.3998,2.3067,2.0135,2.0656,2.1692,2.292,2.3194,2.3393,2.3701,2.3998,2.3998,2.3791,2.3989,2.4492,2.5294,2.5089,2.5499,2.6496,2.6294,2.6294,2.64,2.64,2.6207,2.61,2.6935,2.7115,2.701,2.7851,2.8215,2.8028,0.0,0.0,0.0,0.0,0.0,0.0,0.0,-3.4492,-3.4366,-3.2692,-3.0367,-2.842,-2.7375,-2.1104,-1.6637,0.0,0.0,0.0,0.0,0.0,0.0,0.0,0.0,0.0,0.0,2.8165,3.0207,3.2507,0.0,3.1951,3.3412,3.0408,3.1203,3.5045,3.3805,3.3494,3.4129,0.0,0.0,0.0,3.6911,3.7144,0.0,0.0,0.0,0.0,0.0,3.0029,2.7656,2.6492,2.4623,2.2451,2.0023,2.042,2.2074,2.3466,2.4029,2.4451,2.5809,2.624,2.624,2.5786,2.6141,2.6284,2.5605,2.5532,2.5626,2.5518,2.5997,2.6135,2.4946,2.4418,2.3901,2.3312,2.1604,2.0768,2.1904,2.1618,2.1634,2.2659,2.2859,2.3358,2.4267,2.4482,2.4796,2.5401,2.5684,2.4963,2.2859,2.3565,2.4276,2.4982,2.4777,2.4767,2.4963,2.5168,2.5266,2.5168,2.5577,2.6071,2.6572,2.638,2.6582,2.7081,2.6794,2.6965,2.741,2.7305,2.7484,2.7851,2.8308,2.8495,2.8391,2.8773,2.8866,2.8773,0.0,0.0,0.0,0.0,0.0,0.0,0.0,-3.3974,-3.3824,-3.2041,-3.0705,-2.9661,-2.9058,-2.1876,-1.7075,0.0,0.0,0.0,0.0,0.0,0.0,0.0,0.0,0.0,0.0,0.0,0.0,3.404,3.2119,0.0,0.0,0.0,0.0,0.0,3.2706,3.3099,3.4237,3.657,0.0,0.0,0.0,3.7339,0.0,0.0,0.0,0.0,0.0,3.1717,3.0186,2.9753,2.7824,2.497,2.1796,2.1732,2.3282,2.535,2.634,2.6964,2.7703,2.8183,2.8176,2.7348,2.7267,2.7567,2.8294,2.808,2.7853,2.8831,2.8971,2.856,2.7522,2.678,2.6201,2.5992,2.415,2.3279,2.4726,2.3889,2.3727,2.5382,2.5441,2.5625,2.6532,2.6904,2.6989,2.6999,2.7179,2.6798,2.5577,2.6167,2.6552,2.6648,2.634,2.6137,2.6234,2.6436,2.6542,2.6542,2.7326,2.7715,2.7715,2.7631,2.7715,2.7904,2.7441,2.7799,2.8691,2.8484,2.8844,2.9498,2.9681,2.9772,2.9692,2.9692,2.9704,2.9692,0.0,0.0,0.0,0.0,0.0,0.0,0.0,-3.3049,-3.2284,-3.0705,-2.935,-2.8045,-2.6775,-2.1114,-1.7237,0.0,0.0,0.0,0.0,0.0,0.0,0.0,0.0,0.0,0.0,0.0,0.0,3.12,3.2673,0.0,0.0,0.0,0.0,0.0,0.0,3.4638,3.4018,3.8267,0.0,0.0,0.0,0.0,0.0,0.0,0.0,0.0,0.0,3.4234,3.3795,3.0813,3.0332,3.0603,2.7843,2.4902,2.313,2.6414,2.698,2.6908,2.8812,2.9782,3.0126,2.9294,2.9628,3.0164,3.0149,3.0712,3.1235,3.1383,3.1396,3.1053,3.0139,2.9061,2.8631,2.9439,2.8042,2.7069,2.7679,2.7212,2.6607,2.6446,2.6713,2.6989,2.7094,2.8046,2.8571,2.8419,2.942,2.8973,2.6542,2.6456,2.6744,2.7136,2.7305,2.7494,2.7799,2.8092,2.8102,2.7799,2.862,2.8899,2.8899,2.8724,2.9084,2.9897,2.8899,2.9084,2.9977,2.9977,2.9875,2.9852,3.0789,3.0979,3.0902,3.1737,3.2113,3.1925,0.0,0.0,0.0,0.0,0.0,0.0,-3.3117,-3.266,-3.1956,-3.0484,-2.8642,-2.713,-2.6228,-2.1386,-1.7567,-1.6067,0.0,0.0,0.0,0.0,0.0,0.0,0.0,0.0,0.0,0.0,2.657,2.9705,3.0629,0.0,0.0,0.0,0.0,0.0,0.0,3.6426,3.6293,3.8202,0.0,0.0,0.0,0.0,0.0,0.0,0.0,0.0,0.0,0.0,3.3858,3.3404,3.2761,3.217,3.2399,2.9894,2.705,2.7812,2.8195,2.8592,2.9803,3.0731,3.1275,3.1416,3.1793,3.2167,3.2582,3.261,3.2736,3.3295,3.2467,3.1688,3.1761,3.0592,3.0035,3.1148,3.0065,2.9188,2.9723,2.9657,2.9488,2.9317,2.9886,3.0258,3.0258,3.0695,3.0873,3.0796,3.124,3.0974,2.9806,2.9647,2.9659,2.9863,2.9943,3.0045,3.0147,3.0068,3.0068,2.9966,3.0033,3.0033,2.9966,2.9875,2.9977,3.017,2.9806,3.017,3.108,3.108,3.1347,3.1789,3.2251,3.2673,3.2993,3.3262,3.3687,3.4082,0.0,0.0,0.0,0.0,0.0,-3.4399,-3.3348,-3.2462,-3.1494,-3.0425,-2.8211,-2.6299,-2.5265,-2.2178,-1.8999,-1.6137,-1.3515,0.0,0.0,0.0,0.0,0.0,0.0,0.0,0.0,0.0,2.445,2.7384,2.8663,3.0322,0.0,0.0,3.3991,3.6357,0.0,0.0,0.0,0.0,0.0,0.0,0.0,0.0,0.0,0.0,0.0,0.0,0.0,0.0,0.0,0.0,0.0,3.3437,3.491,3.3519,3.1055,3.0043,2.9841,3.0187,3.1048,3.175,3.2345,3.3059,3.3474,3.3936,3.4478,3.4368,3.422,3.4758,3.3736,3.2905,3.317,3.228,3.1857,3.2927,3.2095,3.1432,3.1909,3.2009,3.2006,3.1822,3.2619,3.3195,3.3195,3.3462,3.3714,3.3882,3.3894,3.3727,3.3546,3.339,3.2819,3.1665,3.1577,3.1577,3.1577,3.14,3.1311,3.1311,3.1376,3.1288,3.1122,3.1033,3.1045,3.1146,3.1122,3.1565,3.2488,3.271,3.3237,3.3882,3.3882,3.4204,3.469,3.4568,3.4884,3.5386,0.0,0.0,0.0,0.0,0.0,0.0,-3.4546,-3.2354,-3.0602,-3.0366,-2.7906,-2.5453,-2.3441,-2.3514,-2.1922,-1.7299,-1.3419,0.0,0.0,0.0,0.0,0.0,0.0,0.0,0.0,0.0,2.2341,2.363,2.7461,2.9497,2.9929,3.1232,3.253,3.3886,0.0,0.0,0.0,0.0,0.0,0.0,0.0,0.0,0.0,0.0,0.0,0.0,0.0,0.0,0.0,0.0,0.0,0.0,0.0,3.4977,0.0,3.3165,3.1928,3.1297,3.2608,3.3123,3.3448,3.4153,3.486,3.5383,3.5533,3.6058,3.6276,3.5725,3.5449,3.5124,3.4447,3.4245,3.4448,3.5071,3.4569,3.4181,3.4372,3.438,3.4162,3.3648,3.4673,3.5371,3.5371,3.6244,3.7028,3.7695,3.7572,3.7434,3.7434,3.7434,3.5614,3.1741,3.1577,3.1577,3.1577,3.1577,3.1577,3.1577,3.2302,3.2661,3.2661,3.2389,3.2673,3.3386,3.3271,3.3623,3.4397,3.5237,3.5534,3.5534,3.5534,3.5615,3.5615,3.5615,3.5615,3.5615,0.0,0.0,0.0,0.0,0.0,0.0,0.0,-3.2739,-3.1111,-3.0425,-2.7682,-2.5145,-2.3356,-2.2478,-2.1104,-1.8939,-1.6895,0.0,0.0,0.0,0.0,0.0,0.0,0.0,0.0,0.0,0.0,0.0,2.1049,2.349,2.6622,2.7368,2.9156,3.1712,3.093,3.1524,0.0,0.0,0.0,0.0,0.0,0.0,3.4672,0.0,0.0,0.0,0.0,0.0,0.0,0.0,0.0,0.0,0.0,0.0,0.0,3.4382,3.3514,3.2989,3.378,3.4394,3.5095,3.6276,3.6736,3.6917,3.6964,3.6814,3.6585,3.6368,3.5849,3.5464,3.5737,3.4993,3.4505,3.5193,3.5088,3.4866,3.4982,3.5323,3.5487,3.531,3.5656,3.5858,3.5858,3.6122,3.6445,3.6606,3.6547,3.6474,3.6327,3.6327,3.6146,3.568,3.5533,3.5157,3.4624,3.4472,3.4389,3.4389,3.4664,3.4979,3.5346,3.5265,3.5265,3.5346,3.5305,3.5332,3.548,3.5695,3.5695,3.5615,3.5615,3.5949,3.6517,3.6517,3.6844,3.74,0.0,0.0,0.0,0.0,0.0,0.0,0.0,-3.3087,-3.1637,-3.0425,-2.8109,-2.5538,-2.2996,-2.1759,-2.0411,-1.8727,-1.751,0.0,0.0,0.0,0.0,0.0,0.0,0.0,0.0,0.0,0.0,0.0,0.0,0.0,2.1927,2.2932,2.4747,2.7306,2.6773,2.7404,0.0,0.0,0.0,0.0,0.0,0.0,3.2985,0.0,0.0,0.0,0.0,0.0,0.0,0.0,0.0,0.0,0.0,0.0,0.0,0.0,3.4279,3.3747,3.4479,3.5049,3.5728,3.6843,3.7514,3.7822,3.737,3.7163,3.6982,3.6785,3.6196,3.5943,3.6429,3.5737,3.5255,3.5737,3.5729,3.5652,3.5652,3.623,3.6749,3.7001,3.703,3.703,3.703,3.703,3.703,3.703,3.703,3.6946,3.6807,3.6807,3.7161,3.7812,3.7264,3.662,3.6092,3.617,3.6201,3.6122,3.6122,3.6346,3.6724,3.6724,3.6554,3.6383,3.671,3.671,0.0,3.6816,3.683,3.666,3.6582,3.6908,3.7414,3.7414,3.7886,3.8575,0.0,0.0,0.0,0.0,0.0,0.0,0.0,-3.3415,-3.2066,-3.0425,-2.8837,-2.6354,-2.2529,-2.1449,-2.0014,-1.739,0.0,0.0,0.0,0.0,0.0,0.0,0.0,0.0,0.0,0.0,0.0,1.1218,1.4145,1.5851,1.6437,0.0,1.9858,2.1341,2.255,2.3675,0.0,0.0,0.0,0.0,0.0,0.0,0.0,0.0,0.0,0.0,0.0,0.0,0.0,0.0,0.0,0.0,0.0,0.0,0.0,0.0,0.0,0.0,0.0,3.5118,3.5498,3.6226,3.7391,3.806,3.6982,3.7163,0.0,3.6831,3.6616,3.6492,3.6492,3.6492,3.6492,3.6492,3.6492,3.6492,3.6492,3.703,3.7661,3.8292,3.8369,3.8369,3.8369,3.8435,3.8419,3.8419,3.8484,3.8484,3.8484,3.8484,3.8484,3.8484,3.732,3.6527,3.6287,3.6855,3.709,3.6979,3.6979,3.6993,3.7035,3.7035,3.6958,3.6802,3.763,3.7857,3.7677,3.8337,3.859,3.859,3.8412,3.8337,3.8337,3.8337,3.8649,3.9177,0.0,0.0,0.0,0.0,0.0,0.0,0.0,0.0,0.0,0.0,-2.873,-2.7033,-2.4123,-2.2296,-2.0611,0.0,0.0,0.0,0.0,0.0,0.0,0.0,0.0,0.0,0.0,0.0,0.0,0.9183,1.0444,1.1911,1.3672,1.5523,0.0,0.0,1.8491,0.0,0.0,0.0,0.0,0.0,0.0,0.0,0.0,0.0,0.0,0.0,3.1101,3.1142,0.0,0.0,0.0,0.0,0.0,0.0,0.0,0.0,3.3443,3.3475,3.4182,0.0,3.5208,3.695,3.711,3.6969,0.0,3.7042,3.6708,3.66,3.6492,3.6492,3.6492,3.6492,3.6554,3.6662,3.6662,3.6662,3.6662,3.6677,3.6784,3.6953,3.6969,3.6969,3.6969,3.7374,3.7665,3.7665,3.8114,3.8334,3.8334,3.8334,3.8334,3.8334,3.8521,3.808,3.6843,3.6806,3.6983,3.7301,3.7301,3.7813,3.8782,3.8782,3.8782,3.8782,3.8958,3.8943,3.8782,3.9493,3.958,3.922,3.9677,3.9733,3.9463,3.9463,3.9621,3.9692,0.0,0.0,0.0,0.0,0.0,0.0,0.0,0.0,0.0,0.0,0.0,0.0,0.0,0.0,0.0,0.0,0.0,0.0,0.0,0.0,0.0,0.0,0.0,0.0,0.0,0.0,0.0,0.0,0.0,0.9005,0.0,0.0,0.0,0.0,0.0,0.0,0.0,0.0,0.0,0.0,2.3534,0.0,0.0,0.0,0.0,0.0,2.969,3.0067,0.0,3.1071,3.1564,3.1622,0.0,0.0,0.0,0.0,3.3039,3.3002,3.3783,3.421,3.4825,3.6218,3.6242,3.609,3.6593,3.6349,3.6184,3.6538,3.6554,3.6492,3.6492,3.6492,3.6538,3.6662,3.6662,3.6723,3.7042,3.7222,3.7342,3.7385,3.7385,3.7342,3.7342,3.7621,3.7796,3.7796,3.8124,3.8278,3.8278,3.8278,3.8278,3.8278,3.8651,3.8567,3.7926,3.7821,3.7888,3.8015,3.7674,3.8061,3.9103,3.8945,3.9125,3.9409,3.9753,3.9864,3.9793,4.0378,4.0516,4.0224,4.0347,4.0293,4.0085,3.996,4.0045,4.0339,0.0,0.0,0.0,0.0,0.0,0.0,0.0,0.0,0.0,0.0,0.0,0.0,0.0,0.0,0.0,0.0,0.0,0.0,0.0,0.0,0.0,0.0,0.0,0.0,0.0,0.0,0.0,0.0,0.0,0.0,0.0,0.0,0.973,0.0,0.0,0.0,0.0,0.0,0.0,0.0,2.0908,0.0,0.0,0.0,0.0,0.0,0.0,0.0,0.0,3.0107,3.054,3.0674,3.1474,0.0,0.0,0.0,0.0,0.0,3.3471,3.3921,3.4314,3.4972,3.5134,3.5194,3.5509,3.5519,3.5706,3.6399,3.6538,3.6492,3.6492,3.6492,3.6538,3.6662,3.6662,3.6937,3.7663,3.8051,3.8334,3.8463,3.8351,3.8278,3.8278,3.839,3.8463,3.8463,3.8502,3.8557,3.8557,3.8557,3.8557,3.8557,3.8557,3.8795,3.9153,3.9052,3.8968,3.8842,3.8212,3.8211,3.8796,3.8644,3.8892,3.9451,4.014,4.0446,4.0514,4.1198,4.1412,4.128,4.0961,4.0758,4.069,4.0378,4.0547,4.0987,0.0,0.0,0.0,0.0,0.0,0.0,0.0,0.0,0.0,0.0,0.0,0.0,0.0,0.0,0.0,0.0,0.0,0.0,0.0,0.0,0.0,0.0,0.0,0.0,0.0,0.0,0.0,0.0,0.0,0.0,0.483,0.6489,0.8241,1.0096,0.0,0.0,0.0,0.0,0.0,0.0,1.7717,0.0,0.0,0.0,0.0,0.0,0.0,0.0,0.0,2.7956,2.8589,2.873,3.069,0.0,0.0,0.0,0.0,0.0,3.3407,3.3575,3.3762,3.4595,3.4242,3.3908,3.4678,3.5179,3.5507,3.5675,3.6091,3.6492,3.6492,3.6492,3.6538,3.6662,3.7103,3.7648,3.8278,3.8351,3.8294,3.8351,3.8278,3.8278,3.8278,3.8739,3.9082,3.9082,3.9523,3.985,3.985,3.985,3.985,3.985,3.985,3.9849,3.9899,3.8946,3.8605,3.8946,3.8826,3.9025,3.9393,3.9377,3.9313,3.9341,4.013,4.0446,4.0493,4.1869,4.219,4.2029,4.2522,4.2506,4.2253,4.1884,4.1835,4.1964,0.0,0.0,0.0,0.0,0.0,0.0,0.0,0.0,0.0,0.0,0.0,0.0,0.0,0.0,0.0,0.0,0.0,0.0,0.0,0.0,0.0,0.0,0.0,0.0,0.0,0.0,0.0,0.0,0.0,0.3312,0.3757,0.525,0.6832,0.8424,0.0,1.0269,1.1499,1.1671,1.2893,1.4752,0.0,0.0,0.0,0.0,0.0,0.0,0.0,0.0,0.0,0.0,2.8217,2.8652,2.9813,0.0,0.0,0.0,0.0,0.0,3.3208,3.3245,3.3234,3.3619,3.3757,3.3953,3.4368,3.4607,3.4893,3.5283,3.5685,3.5953,3.5953,3.6245,3.6492,3.66,3.7147,3.7706,3.7994,3.8165,3.8446,3.8832,3.8849,3.8903,3.9242,3.9523,3.9696,3.9696,3.9952,4.007,4.007,4.007,4.007,4.007,4.007,4.007,4.007,3.9575,3.923,3.9119,3.8691,3.8755,3.9205,3.91,3.9184,3.9439,4.0084,4.0384,4.0494,4.1955,4.2463,4.239,4.2888,4.3035,4.2834,4.2772,4.2772,4.2818,0.0,0.0,0.0,0.0,0.0,0.0,0.0,0.0,0.0,0.0,0.0,0.0,0.0,0.0,0.0,0.0,0.0,0.0,0.0,0.0,0.0,0.0,0.0,0.0,0.0,0.0,-0.1339,-0.0715,0.1074,0.2326,0.3041,0.4368,0.5515,0.658,0.7541,0.8769,1.0005,1.0096,1.0616,1.1477,0.0,0.0,0.0,0.0,0.0,0.0,0.0,0.0,0.0,0.0,0.0,0.0,0.0,0.0,0.0,3.1507,3.2176,3.2843,3.2935,3.3027,3.3081,3.2951,3.3403,3.3845,3.377,3.3897,3.418,3.4745,3.5089,3.5245,3.5245,3.5799,3.6369,3.6631,3.7163,3.7605,3.7764,3.8051,3.8502,3.9049,3.9065,3.9242,3.985,3.9918,3.9969,4.007,4.007,4.007,4.007,4.007,4.007,4.007,4.007,4.007,4.007,4.007,3.9867,3.9418,3.8816,3.8746,3.9202,3.8972,3.9087,3.9558,4.0183,4.0414,4.0522,4.1725,4.2353,4.251,4.2818,4.307,4.3279,4.3486,4.3588,4.3689,0.0,0.0,0.0,0.0,0.0,0.0,0.0,0.0,0.0,0.0,0.0,0.0,0.0,0.0,0.0,0.0,0.0,0.0,0.0,0.0,0.0,0.0,0.0,0.0,0.0,-0.5356,-0.402,-0.2688,-0.1431,0.0358,0.2597,0.3578,0.4291,0.4914,0.5174,0.5963,0.7007,0.7278,0.8237,0.9794,1.0646,0.0,0.0,0.0,0.0,0.0,0.0,0.0,0.0,0.0,0.0,0.0,0.0,0.0,3.0644,3.0955,3.1781,3.2594,3.2453,3.3071,3.3646,3.3187,3.292,3.2687,3.257,3.3008,3.347,3.3517,3.4102,3.4552,3.4552,3.5106,3.5935,3.7128,3.7417,3.7637,3.8165,3.8278,3.8334,3.839,3.839,3.8629,3.9206,3.9259,3.9487,4.007,4.007,4.007,4.007,4.007,4.007,4.007,4.007,4.007,4.007,4.007,4.007,4.002,3.9969,3.9901,3.9848,3.9813,3.9673,3.9508,4.0259,4.0503,4.0459,4.121,4.1905,4.2518,4.251,4.3041,4.3781,4.4152,4.449,4.4783,0.0,0.0,0.0,0.0,0.0,0.0,0.0,0.0,0.0,0.0,0.0,0.0,0.0,0.0,0.0,0.0,0.0,0.0,0.0,0.0,0.0,0.0,0.0,-0.7051,-0.6349,-0.5361,-0.4111,-0.2684,-0.0716,0.0717,0.1613,0.2151,0.2865,0.3755,0.4022,0.4819,0.588,0.6151,0.6678,0.7457,0.8412,0.9109,0.0,0.0,0.0,0.0,0.0,0.0,0.0,0.0,2.5286,2.6629,2.7971,2.94,3.0615,3.0703,3.1392,3.2145,3.2074,3.2656,3.324,3.3096,3.2866,0.0,3.298,3.3152,3.3286,3.3286,3.3588,3.3937,3.4398,3.4691,3.5056,3.5525,3.5571,3.5829,3.6472,3.6578,3.6853,3.7632,3.7738,3.8124,3.9098,3.9206,3.947,4.007,4.007,4.007,4.007,4.007,4.007,4.007,4.007,4.007,4.007,4.0402,4.0531,4.0531,4.0271,4.007,4.0037,3.9952,3.9849,3.9763,3.9943,4.0007,4.0004,4.0629,4.1205,4.1812,4.2867,4.3483,4.3898,4.4776,4.5249,4.5354,0.0,0.0,0.0,0.0,0.0,0.0,0.0,0.0,0.0,0.0,0.0,0.0,0.0,0.0,0.0,0.0,0.0,0.0,0.0,0.0,0.0,0.0,0.0,-0.6874,-0.6169,-0.5455,-0.42,-0.2502,-0.009,0.1166,0.1166,0.1345,0.1882,0.2774,0.2955,0.358,0.4472,0.4652,0.5008,0.5628,0.6505,0.7207,0.0,0.0,0.0,0.0,0.0,0.0,0.0,0.0,2.4316,2.5733,2.6966,2.8552,2.9954,3.0043,3.0896,3.1834,3.1962,3.2468,3.2897,3.3005,0.0,0.0,3.3087,3.3055,3.2949,3.2949,3.3013,3.329,3.3998,3.4137,3.4214,3.4429,3.4475,3.4629,3.5106,3.5168,3.5502,3.6369,3.6476,3.7064,3.845,3.8574,3.9046,4.0054,4.0121,4.0138,4.0188,4.0188,4.0121,4.007,4.0138,4.0138,4.007,4.058,4.0802,4.0802,4.0611,4.0483,4.0303,4.007,3.9952,3.9901,3.9969,3.9952,3.9935,4.0544,4.1002,4.1563,4.3083,4.3751,4.4078,4.5094,4.5594,4.5854,0.0,0.0,0.0,0.0,0.0,0.0,0.0,0.0,0.0,0.0,0.0,0.0,0.0,0.0,0.0,0.0,0.0,0.0,0.0,0.0,0.0,0.0,0.0,-0.6428,-0.6428,-0.5905,-0.4652,-0.2502,-0.009,0.1166,0.1436,0.1436,0.1525,0.0,0.1794,0.2064,0.2513,0.2513,0.3229,0.4387,0.5095,0.6245,0.7661,0.0,0.0,0.0,0.0,0.0,0.0,0.0,2.2221,2.3143,2.5028,2.6815,2.8309,2.901,3.0377,3.1751,3.212,3.2554,3.2897,3.2897,3.2773,3.2594,3.2594,3.2523,3.2398,3.2398,3.2398,3.2598,3.3275,3.3398,3.3629,3.4337,3.4445,3.446,3.446,3.446,3.446,3.4475,3.4475,3.5216,3.709,3.7264,3.8114,4.012,4.0171,4.0121,4.0288,4.0305,4.0238,4.0138,4.0238,4.0238,4.0121,4.058,4.0802,4.0802,4.1276,4.1276,4.0802,4.0303,4.0037,3.9935,4.0417,4.0528,4.0449,4.0903,4.1435,4.1977,4.295,4.3761,4.4487,4.4935,4.5572,4.6221,0.0,0.0,0.0,0.0,0.0,0.0,0.0,0.0,0.0,0.0,0.0,0.0,0.0,0.0,0.0,0.0,0.0,0.0,0.0,0.0,0.0,0.0,0.0,0.0,0.0,0.0,-0.2683,-0.2233,0.0179,0.1345,0.1436,0.1436,0.0,0.1794,0.0,0.2243,0.2513,0.2694,0.2963,0.332,0.3942,0.4565,0.5539,0.0,0.0,0.0,0.0,0.0,0.0,0.0,0.0,0.0,2.4625,2.5563,2.6307,2.847,2.9501,3.0125,3.1492,3.2176,3.2594,3.2843,3.2648,3.2453,3.2578,3.2523,3.2398,3.2398,3.2398,3.2459,3.2659,3.269,3.2767,3.2982,3.3013,3.3183,3.3644,3.3721,3.3906,3.4414,3.4475,3.5029,3.6373,3.6551,3.7321,3.9259,3.9359,3.9596,4.0271,4.0305,4.0355,4.037,4.0436,4.0549,4.0814,4.1248,4.1604,4.1948,4.2074,4.1846,4.1276,4.1139,4.1047,4.1047,4.1168,4.1213,4.1213,4.1543,4.1612,4.1655,4.2881,4.3764,4.4431,4.529,4.5981,4.6542,0.0,0.0,0.0,0.0,0.0,0.0,0.0,0.0,0.0,0.0,0.0,0.0,0.0,0.0,0.0,0.0,0.0,0.0,0.0,0.0,0.0,0.0,0.0,0.0,0.0,-0.3306,-0.1878,-0.1967,0.0269,0.1436,0.1436,0.0,0.1525,0.1705,0.0,0.2423,0.2244,0.2871,0.3139,0.3051,0.3409,0.3855,0.4565,0.0,0.0,0.0,0.0,0.0,0.0,0.0,0.0,0.0,2.3161,0.0,2.4614,2.7459,2.8661,2.9425,3.1042,3.1921,3.2453,3.2648,3.2523,3.2398,3.2523,3.2453,3.2398,3.2398,3.2398,3.2398,3.2398,3.2398,3.2398,3.2398,3.2398,3.2536,3.2952,3.2998,3.3167,3.3598,3.3644,3.412,3.5348,3.5647,3.6462,3.8219,3.8451,3.8984,3.9861,3.9961,4.0129,4.0468,4.0534,4.0741,4.1076,4.1561,4.199,4.244,4.2616,4.2537,4.2162,4.176,4.1543,4.1525,4.1717,4.1888,4.2056,4.2133,4.2068,4.1952,4.2703,4.3362,4.4076,4.4991,4.5802,4.6543,0.0,0.0,0.0,0.0,0.0,0.0,0.0,0.0,0.0,0.0,0.0,0.0,0.0,0.0,0.0,0.0,0.0,0.0,0.0,0.0,0.0,0.0,0.0,0.0,-0.5371,-0.3042,-0.1879,-0.179,0.0358,0.1436,0.0,0.0,0.1436,0.1436,0.0,0.242,0.1973,0.3044,0.3403,0.3227,0.3408,0.3855,0.4476,0.6331,0.0,0.0,0.0,0.0,0.0,0.0,0.0,0.0,2.1018,2.2136,2.3194,2.6158,2.7956,2.9288,3.0793,3.1792,3.2398,3.2342,3.2398,3.2437,3.2492,3.2492,3.2437,3.2382,3.2398,3.2398,3.2398,3.2398,3.2398,3.2398,3.2398,3.2398,3.2398,3.2398,3.2398,3.2398,3.2398,3.2889,3.4137,3.4716,3.5642,3.7119,3.7627,3.8252,3.9238,3.9388,3.973,4.0397,4.0614,4.0884,4.1213,4.1692,4.2157,4.258,4.3014,4.3214,4.316,4.2257,4.1735,4.1656,4.2098,4.2537,4.292,4.2786,4.267,4.2631,4.2472,4.2875,4.3584,4.4317,4.53,4.6362,0.0,0.0,0.0,0.0,0.0,0.0,0.0,0.0,0.0,0.0,0.0,0.0,0.0,0.0,0.0,0.0,0.0,0.0,0.0,0.0,0.0,-1.1607,-0.9135,-0.6858,-0.4926,-0.3403,-0.2238,-0.1522,0.0448,0.1436,0.0,0.0,0.0,0.1705,0.0,0.2154,0.2334,0.2602,0.2782,0.2963,0.3053,0.332,0.3942,0.5625,0.6684,0.0,0.0,0.0,0.0,0.0,0.0,0.0,1.9437,2.0623,2.1728,2.5338,2.705,2.8288,3.0482,3.1637,3.2247,3.2094,3.2492,3.2895,3.2986,3.3039,3.2895,3.2492,3.2398,3.2398,3.2398,3.2398,3.2398,3.2398,3.2398,3.2398,3.2398,3.2398,3.2398,3.2398,3.2398,3.2866,3.3941,3.4161,3.4955,3.6784,3.7039,3.75,3.8418,3.9127,3.9598,3.9846,4.0496,4.1209,4.1948,4.199,4.24,4.3214,4.3305,4.3305,4.3196,4.29,4.2747,4.2616,4.2921,4.3105,4.3232,4.3408,4.3355,4.3213,4.3105,4.3597,4.4345,4.4471,4.5512,4.6888,0.0,0.0,0.0,0.0,0.0,0.0,0.0,0.0,0.0,0.0,0.0,0.0,0.0,0.0,0.0,0.0,0.0,0.0,0.0,0.0,0.0,0.0,-0.8265,-0.6593,-0.475,-0.3044,-0.1879,-0.1253,0.0627,0.0,0.0,0.0,0.0,0.1615,0.0,0.2242,0.1974,0.2602,0.2691,0.2603,0.2694,0.2963,0.3409,0.4828,0.5622,0.6236,0.8761,0.0,0.0,0.0,0.0,0.0,0.0,0.0,2.0633,2.3514,2.5534,2.7302,2.9163,3.0675,3.1709,3.1925,3.2453,3.2949,3.3093,3.3319,3.3491,3.3214,3.2749,3.2398,3.2398,3.2398,3.2398,3.2398,3.2398,3.2398,3.2398,3.2398,3.2398,3.2398,3.2398,3.2695,3.3563,3.3869,3.4497,3.573,3.6151,3.6763,3.765,3.8134,3.882,3.9681,4.0095,4.0944,4.2198,4.2115,4.2559,4.3446,4.3446,4.3393,4.3305,4.3178,4.3086,4.305,4.325,4.3356,4.3426,4.3631,4.3646,4.3526,4.3511,4.3768,4.4207,4.4577,4.5602,4.69,0.0,0.0,0.0,0.0,0.0,0.0,0.0,0.0,0.0,0.0,0.0,0.0,0.0,0.0,0.0,0.0,0.0,0.0,0.0,0.0,0.0,0.0,-0.7214,-0.6242,-0.4748,-0.2685,-0.1432,-0.0985,0.0,0.0,0.0,0.0,0.0,0.1436,0.0,0.2689,0.1524,0.2778,0.2869,0.2244,0.2513,0.2694,0.3053,0.4117,0.4561,0.4823,0.6838,0.8317,0.9443,1.0474,0.0,0.0,0.0,0.0,1.9474,2.1597,2.3876,2.6015,2.7577,2.9454,3.1043,3.1796,3.2398,3.2841,3.3039,3.3491,3.3866,3.4052,3.3319,3.2711,3.2711,3.2711,3.2711,3.2711,3.2711,3.2711,3.2711,3.2711,3.2711,3.2711,3.2711,3.2911,3.3443,3.3869,3.4382,3.4927,3.5515,3.6161,3.6997,3.7283,3.8052,3.9403,3.977,4.0587,4.2002,4.2226,4.2732,4.3497,4.3497,4.3497,4.3481,4.3305,4.3251,4.3286,4.3424,4.356,4.3664,4.3809,4.3873,4.3809,4.3777,4.3777,4.3902,4.4517,4.5616,4.6862,0.0,0.0,0.0,0.0,0.0,0.0,0.0,0.0,0.0,0.0,0.0,0.0,0.0,0.0,0.0,0.0,0.0,0.0,-1.3503,0.0,0.0,-0.8197,-0.7037,-0.5885,-0.465,-0.3312,-0.1971,-0.0538,0.0,0.0,0.0,0.0,0.0,0.1524,0.0,0.3221,0.1794,0.3044,0.3136,0.2513,0.2784,0.2873,0.2963,0.3942,0.4474,0.4736,0.5888,0.659,0.7112,0.8686,0.9803,0.0,0.0,0.0,1.7645,2.0765,2.2613,2.4176,2.643,2.8666,3.0629,3.1739,3.2302,3.2788,3.3391,3.3598,3.3767,3.4333,3.4102,3.3783,3.3783,3.3783,3.3783,3.3783,3.3783,3.3783,3.3783,3.3783,3.3783,3.3783,3.3783,3.3969,3.4529,3.4673,3.4975,3.5622,3.5844,3.6208,3.6742,3.7545,3.8076,3.8327,3.9964,4.0953,4.1256,4.2291,4.3032,4.3497,4.3497,4.3649,4.391,4.3777,4.3693,4.366,4.4136,4.4299,4.4202,4.4439,4.4505,4.4383,4.414,4.417,4.4383,4.4251,4.5509,4.7299,0.0,0.0,0.0,0.0,0.0,0.0,0.0,0.0,0.0,0.0,0.0,0.0,0.0,0.0,0.0,-1.6632,-1.4956,-1.3353,-1.1901,-1.0284,-0.8632,-0.6861,-0.6154,-0.5179,-0.3669,-0.2239,-0.1165,0.0,0.0,0.0,0.0,0.3671,0.3667,0.0,0.0,0.0,0.0,0.2418,0.2241,0.2154,0.2424,0.2603,0.2693,0.332,0.3587,0.3674,0.4119,0.4739,0.562,0.6854,0.8503,1.0216,1.2287,0.0,0.0,0.0,2.0322,2.297,2.5965,2.8424,3.0254,3.0748,3.1834,3.2949,3.3287,3.3919,3.4561,3.4899,3.4835,3.4561,3.4018,3.3917,3.3968,3.3986,3.3986,3.3986,3.3986,3.3986,3.3986,3.3986,3.3986,3.4235,3.4738,3.4769,3.5191,3.6071,3.6284,3.6539,3.7002,3.7488,3.7972,3.8359,3.9228,3.9973,4.0705,4.1666,4.2614,4.3479,4.3682,4.3846,4.4005,4.426,4.4252,4.4095,4.4383,4.4493,4.4484,4.4621,4.4659,4.4605,4.4393,4.4411,4.4487,4.4383,4.5321,4.6759,0.0,0.0,0.0,0.0,0.0,0.0,0.0,0.0,0.0,0.0,0.0,0.0,0.0,0.0,0.0,0.0,-1.4035,-1.2254,-1.0111,-0.9165,-0.7841,-0.5971,-0.5445,-0.4469,-0.3044,-0.1254,0.0,0.0,0.0,0.0,0.2243,0.3758,0.4022,0.0,0.2953,0.2864,0.0,0.2151,0.1793,0.1794,0.2064,0.2334,0.2513,0.2694,0.2873,0.2875,0.2875,0.3408,0.4293,0.5359,0.7017,0.8835,1.0423,1.2529,0.0,0.0,0.0,2.2211,2.5456,2.7787,2.94,2.9875,3.139,3.2826,3.3093,3.4052,3.4899,3.5152,3.5291,3.5118,3.4431,3.4415,3.4496,3.4544,3.4671,3.475,3.475,3.475,3.475,3.475,3.475,3.4891,3.5295,3.534,3.5725,3.6522,3.6724,3.6981,3.747,3.7596,3.7918,3.8455,3.8779,3.9302,4.013,4.1216,4.2283,4.3317,4.3767,4.4079,4.424,4.4617,4.4745,4.4643,4.4695,4.472,4.4739,4.4726,4.4764,4.4738,4.4605,4.4551,4.4551,4.4551,4.5255,4.6345,0.0,0.0,0.0,0.0,0.0,0.0,0.0,0.0,0.0,0.0,0.0,0.0,0.0,-1.6026,-1.4935,-1.4531,-1.206,-0.984,-0.846,-0.8288,-0.7661,-0.6413,-0.5267,0.0,-0.322,-0.1343,0.0,0.0,0.0,0.0,0.2154,0.2063,0.2419,0.3307,0.5087,0.4287,0.1524,0.0,0.0,0.1794,0.2064,0.2334,0.2513,0.2513,0.2694,0.2875,0.2875,0.2963,0.3141,0.4295,0.4736,0.544,0.8682,0.9976,1.0979,0.0,0.0,0.0,2.4448,2.6257,2.7826,2.9538,3.1072,3.2296,3.2879,3.3594,3.43,3.4787,3.5148,3.5424,3.5487,3.5766,3.6011,3.6156,3.6498,3.6764,3.6764,3.6764,3.6764,3.6764,3.6764,3.6764,3.6781,3.6825,3.6981,3.7135,3.723,3.7506,3.8016,3.805,3.8086,3.8122,3.9236,3.967,3.9367,4.1277,4.2433,4.276,4.3596,4.4279,4.4751,4.4776,4.4957,4.5256,4.5256,4.5192,4.5061,4.4943,4.4895,4.487,4.4745,4.4685,4.4685,4.4685,4.5456,4.6596,0.0,0.0,0.0,0.0,0.0,0.0,0.0,0.0,0.0,0.0,0.0,0.0,0.0,-1.5779,-1.4775,-1.319,-1.1225,-0.985,-0.9331,-0.8636,-0.7661,-0.6413,-0.5267,-0.4113,-0.3044,-0.0806,0.0,0.0,0.0,0.2243,0.2424,0.2868,0.2956,0.2599,0.2953,0.2862,0.2506,0.2151,0.1883,0.1525,0.1794,0.2064,0.2334,0.2424,0.2694,0.2875,0.2875,0.2875,0.3053,0.403,0.4474,0.4912,0.6763,0.842,1.0484,1.4552,1.7413,1.9703,2.1912,2.4045,2.6058,2.7722,2.9638,3.1417,3.2563,3.3566,3.4399,3.5085,3.5498,3.5749,3.5898,3.6028,3.6199,3.6451,3.6615,3.6759,3.686,3.69,3.69,3.69,3.69,3.69,3.69,3.6921,3.7114,3.756,3.7632,3.7895,3.8433,3.8483,3.8483,3.8483,3.8902,3.9412,3.9946,4.0646,4.1653,4.296,4.349,4.4108,4.4819,4.5023,4.5194,4.5297,4.5297,4.5275,4.5213,4.508,4.5033,4.5033,4.487,4.4789,4.4712,4.4712,4.4997,4.5608,0.0,0.0,0.0,0.0,0.0,0.0,0.0,0.0,0.0,0.0,0.0,0.0,0.0,0.0,-1.3931,-1.1488,-1.0207,-0.9428,-0.9248,-0.8548,-0.7489,-0.6242,-0.5359,-0.4293,-0.2957,0.0,0.0,0.0,0.0,0.0,0.0,0.3047,0.2868,0.1885,0.1525,0.1882,0.2506,0.1703,0.1436,0.1436,0.1615,0.1794,0.2064,0.2243,0.2424,0.2694,0.2784,0.2604,0.2513,0.3227,0.3401,0.3486,0.4821,0.7193,1.0062,1.3174,1.5509,1.7557,1.9537,2.1892,2.4059,2.5453,2.7964,3.0396,3.1339,3.2814,3.4153,3.4752,3.534,3.5803,3.5994,3.6224,3.6492,3.6776,3.6935,3.7091,3.7301,3.7339,3.7339,3.7339,3.7339,3.7339,3.7339,3.7376,3.7542,3.7982,3.8032,3.8234,3.8676,3.8707,3.8707,3.8707,3.878,3.918,3.99,4.0244,4.1108,4.2422,4.3226,4.3938,4.4539,4.508,4.5297,4.5297,4.5297,4.5297,4.5297,4.5148,4.5125,4.5148,4.5014,4.4895,4.4821,4.477,4.4808,4.5081,0.0,0.0,0.0,0.0,0.0,0.0,0.0,0.0,0.0,0.0,0.0,0.0,0.0,0.0,0.0,-0.9602,-0.8915,-0.8388,-0.7944,-0.7944,-0.7319,-0.5808,-0.5719,-0.4828,-0.3045,0.0,0.0,0.0,0.0,0.0,0.0,0.0,0.1885,0.1436,0.1436,0.1436,0.1436,0.1436,0.1436,0.1436,0.1436,0.1525,0.1794,0.1794,0.1974,0.2243,0.2424,0.2064,0.1436,0.1705,0.1346,0.1076,0.304,0.6133,0.9291,1.0434,1.2741,1.5306,0.0,0.0,0.0,2.2966,2.6139,2.9077,2.9139,3.1321,3.3375,3.3735,3.4686,3.5548,3.5847,3.6492,3.7009,3.7188,3.7577,3.7934,3.814,3.8192,3.8192,3.8192,3.8225,3.8225,3.8225,3.8274,3.8354,3.8415,3.8478,3.859,3.8738,3.8719,3.8719,3.8719,3.8979,3.9129,3.9129,4.0154,4.0809,4.1127,4.2773,4.3745,4.4036,4.4895,4.5297,4.5297,4.5297,4.5297,4.5297,4.517,4.517,4.5297,4.5148,4.5103,4.5061,4.4943,4.4929,4.5144,0.0,0.0,0.0,0.0,0.0,0.0,0.0,0.0,0.0,0.0,0.0,0.0,0.0,-1.3256,-1.1316,-1.0554,-0.9345,-0.8568,-0.8388,-0.8388,-0.812,-0.7492,-0.6688,-0.5888,-0.5267,0.0,0.0,0.0,0.0,0.0,0.0,0.0,0.0,0.0,0.1705,0.1615,0.1436,0.1436,0.1436,0.1436,0.1436,0.1525,0.1794,0.1794,0.1974,0.2243,0.2244,0.2243,0.2154,0.1705,0.1902,0.2565,0.3932,0.5551,0.731,0.9131,1.0813,1.2596,1.5194,0.0,0.0,0.0,0.0,0.0,2.8539,3.0,3.1339,3.3454,3.4365,3.5061,3.5907,3.6224,3.6574,3.7147,3.7372,3.7521,3.7739,3.8018,3.8219,3.8219,3.8496,3.8701,3.8701,3.8713,3.8785,3.897,3.898,3.9091,3.9272,3.9272,3.9272,3.9272,3.935,3.9483,3.967,3.9966,4.0539,4.1397,4.2503,4.3363,4.4036,4.4895,4.5297,4.5297,4.5297,4.5297,4.5297,4.5275,4.5275,4.5297,4.5275,4.5192,4.5061,4.4943,4.4929,4.5122,0.0,0.0,0.0,0.0,0.0,0.0,0.0,0.0,0.0,0.0,0.0,0.0,0.0,0.0,-1.0809,-1.0641,-0.9519,-0.874,-0.8472,-0.8472,-0.8292,-0.8113,-0.7401,-0.6776,-0.6242,0.0,0.0,0.0,0.0,0.0,0.0,0.0,0.0,0.0,0.0,0.0,0.1436,0.1436,0.1614,0.1973,0.1524,0.1704,0.2243,0.1811,0.1727,0.1912,0.2019,0.2026,0.1842,0.1196,0.1484,0.2247,0.3272,0.4471,0.5652,0.695,0.8387,0.9989,1.2169,1.3827,1.5568,1.839,0.0,0.0,2.59,2.8017,2.9941,3.2238,3.3454,3.4365,3.5295,3.5582,3.5916,3.6597,3.6736,3.6956,3.7703,3.8034,3.8249,3.8428,3.8713,3.891,3.891,3.891,3.896,3.9173,3.9219,3.9298,3.9502,3.9502,3.9502,3.9502,3.9623,3.9739,3.9892,4.0017,4.0385,4.1017,4.1858,4.2698,4.3539,4.438,4.4953,4.5297,4.5297,4.5297,4.5297,4.5297,4.5297,4.5297,4.5297,4.5235,4.517,4.4967,4.4924,4.5033,0.0,0.0,0.0,0.0,0.0,0.0,0.0,0.0,0.0,0.0,0.0,0.0,0.0,0.0,0.0,0.0,-0.9607,-0.8995,-0.8288,-0.8201,-0.8204,-0.7944,-0.7944,-0.7492,-0.6593,0.0,0.0,0.0,0.0,0.0,0.0,0.0,0.0,0.0,0.0,0.0,0.1436,0.1436,0.1975,0.2788,0.18,0.1982,0.2623,0.1844,0.1485,0.1489,0.1801,0.1622,0.124,0.0669,0.0669,0.1052,0.1815,0.3053,0.4383,0.4653,0.5879,0.7514,0.8976,1.0572,1.2348,1.4434,1.7384,0.0,2.2167,2.5406,2.8483,2.9997,3.1673,3.3061,3.3874,3.4364,3.4918,3.5514,3.5725,3.6305,3.7756,3.8083,3.8314,3.8683,3.8862,3.8968,3.8968,3.8968,3.9064,3.9227,3.9279,3.9383,3.9575,3.9599,3.9599,3.9599,3.9807,3.9935,3.9935,4.0176,4.031,4.031,4.1113,4.1915,4.2698,4.3596,4.4418,4.5163,4.5258,4.5297,4.5297,4.5297,4.5297,4.5297,4.5297,4.5297,4.5275,4.4991,4.4919,4.4967,-2.6577,0.0,0.0,0.0,0.0,0.0,0.0,0.0,0.0,0.0,0.0,0.0,0.0,0.0,0.0,0.0,-0.9864,-0.9087,-0.8564,-0.8564,-0.8476,-0.8476,-0.8292,-0.8025,-0.7841,-0.6858,0.0,0.0,0.0,0.0,0.0,0.0,0.0,0.0,0.0,0.0,0.1436,0.1436,0.1992,0.2848,0.1839,0.158,0.1791,0.161,0.1517,0.1518,0.1524,0.1622,0.1721,0.1358,0.156,0.1853,0.1949,0.2632,0.3498,0.4296,0.4919,0.5735,0.7492,0.8923,1.0372,1.2354,1.4489,0.0,1.9275,2.1554,2.3718,2.5745,2.7442,2.896,3.009,3.1374,3.2641,3.3713,3.4692,3.5727,3.6878,3.7632,3.8114,3.8296,3.8902,3.932,3.9391,3.9373,3.9432,3.9599,3.9804,3.9975,4.0137,4.0157,4.0157,4.0157,4.0196,4.0234,4.0234,4.0272,4.031,4.031,4.1113,4.159,4.18,4.331,4.4093,4.4303,4.4991,4.5297,4.5297,4.5297,4.5297,4.5297,4.5297,4.5297,4.5275,4.4991,4.4995,4.5137,-2.6427,0.0,0.0,0.0,0.0,0.0,0.0,0.0,0.0,0.0,0.0,0.0,-1.313,-1.2363,-1.1671,-1.0554,-0.9951,-0.9349,-0.8656,-0.8568,-0.8568,-0.8568,-0.8472,-0.8384,-0.8384,-0.7845,0.0,0.0,0.0,0.0,0.0,0.0,0.0,0.0,0.0,0.0,0.0179,0.1088,0.1751,0.2157,0.1672,0.1779,0.2194,0.1735,0.1549,0.1551,0.1566,0.1473,0.1377,0.1189,0.1491,0.179,0.1591,0.1988,0.268,0.3635,0.3304,0.3273,0.5658,0.6324,0.7044,0.9569,1.1185,0.0,0.0,1.7629,1.9686,2.2413,2.4002,2.5381,2.711,2.8421,2.9753,3.1313,3.2756,3.4136,3.5491,3.6893,3.7859,3.8147,3.873,3.9129,3.9156,3.9354,3.9577,3.9781,3.9994,4.0157,4.0291,4.031,4.0328,4.0362,4.0362,4.0362,4.0362,4.0362,4.0345,4.031,4.0711,4.1113,4.1533,4.2374,4.3214,4.4036,4.4456,4.4895,4.5297,4.5297,4.5297,4.5297,4.5297,4.5297,4.5275,4.4991,4.4948,4.5068,-2.6208,-2.6,0.0,0.0,0.0,0.0,0.0,0.0,0.0,0.0,-1.6574,-1.4977,-1.3022,-1.2735,-1.2015,-1.0636,-1.0467,-1.0052,-0.905,-0.8966,-0.879,-0.8617,-0.8649,-0.8637,-0.8568,-0.8601,-0.8328,0.0,0.0,0.0,0.0,0.0,0.0,0.0,0.0,0.0,-0.1259,0.0367,0.0938,0.0957,0.1319,0.2083,0.2895,0.1963,0.1777,0.1879,0.1708,0.1314,0.101,0.0807,0.1109,0.1412,0.131,0.1412,0.1815,0.2724,0.1896,0.1181,0.3537,0.3874,0.4096,0.6538,0.8074,0.9518,0.0,0.0,0.0,1.8415,1.9856,2.1207,2.3213,2.4558,2.597,2.7795,2.9651,3.1454,3.307,3.4969,3.6644,3.791,3.8405,3.8681,3.8789,3.9229,3.9602,3.9845,3.9994,4.0137,4.0291,4.031,4.0362,4.0438,4.0438,4.0438,4.0438,4.0438,4.0392,4.0328,4.0364,4.0691,4.1285,4.1475,4.2336,4.3787,4.394,4.4494,4.5297,4.5297,4.5297,4.5297,4.5297,4.5297,4.5235,4.4991,4.487,4.4895,-2.6714,-2.622,0.0,0.0,0.0,0.0,0.0,0.0,-1.9901,-1.7355,-1.6217,-1.5391,-1.4475,-1.3696,-1.3045,-1.2419,-1.2174,-1.1581,-1.0375,-1.0121,-0.9683,-0.8792,-0.895,-0.8889,-0.8572,-0.8714,-0.8718,0.0,0.0,0.0,0.0,0.0,0.0,0.0,-0.4013,-0.3156,-0.2384,-0.1196,-0.0943,-0.1172,0.0781,0.2267,0.3104,0.2011,0.2213,0.2914,0.1917,0.1718,0.1718,0.101,0.0807,0.1008,0.1412,0.0907,0.0504,0.1714,0.151,0.0904,0.1205,0.2275,0.3505,0.408,0.6005,0.7919,0.8399,0.0,1.1241,1.1522,0.0,1.4955,1.5992,0.0,0.0,2.2017,2.4565,2.6913,2.8372,3.0223,3.2899,3.7011,3.7808,3.8194,3.867,3.9202,3.9577,3.9717,3.9848,4.0038,4.0289,4.0358,4.0438,4.0574,4.0574,4.0574,4.0574,4.0574,4.0515,4.0389,4.0519,4.0515,4.0463,4.1299,4.2143,4.2985,4.3692,4.4494,4.5297,4.5297,4.5297,4.5297,4.5297,4.5233,4.5084,4.4962,4.4821,4.477,-2.6794,-2.6289,-2.5721,0.0,0.0,0.0,0.0,0.0,-1.9935,-1.8107,-1.6877,-1.5893,-1.4899,-1.385,-1.3075,-1.2615,-1.2443,-1.1947,-1.0869,-1.0692,-1.0154,-0.8978,-0.9056,-0.9027,-0.8881,-0.8946,-0.8946,-0.8877,-0.8877,0.0,0.0,0.0,0.0,0.0,-0.5523,-0.4777,-0.4045,-0.2608,-0.1715,-0.137,-0.0595,0.1101,0.3123,0.2019,0.1919,0.222,0.1717,0.1718,0.1617,0.0707,0.0807,0.1312,0.0302,0.0403,0.0806,0.0503,0.0202,0.0101,0.0302,0.03,0.0596,0.169,0.2344,0.3063,0.4462,0.5332,0.615,0.7347,0.0,0.0,0.0,0.0,0.0,0.0,1.9531,2.1783,2.4044,2.5985,2.8958,3.3694,3.5497,3.6907,3.8158,3.8789,3.9173,3.9345,3.9628,3.9937,4.027,4.0323,4.0473,4.0707,4.072,4.072,4.072,4.072,4.0648,4.0515,4.0574,4.0564,4.0476,4.079,4.1389,4.22,4.2967,4.3787,4.459,4.5086,4.5297,4.5297,4.5297,4.5213,4.5061,4.4943,4.4815,4.4745,-2.7191,-2.6458,-2.577,-2.5278,-2.4288,-2.3329,-2.2689,-2.1265,-1.9862,-1.8961,-1.7811,-1.672,-1.5666,-1.4797,-1.3941,-1.3296,-1.3387,-1.3053,-1.2102,-1.1831,-1.1286,-1.0277,-0.987,-0.9661,-0.9651,-0.9605,-0.9516,-0.9283,0.0,0.0,0.0,0.0,0.0,0.0,-0.742,-0.6772,-0.6166,-0.4549,-0.3378,-0.2462,-0.2101,-0.0201,0.2317,0.2119,0.1818,0.1617,0.1617,0.1617,0.1515,0.0706,0.0706,0.0808,-0.0403,-0.0302,0.0101,-0.0705,-0.0806,-0.0707,-0.0504,-0.1008,-0.1209,0.0101,-0.0199,-0.0394,0.1565,0.1544,0.1611,0.3416,0.4114,0.0,0.0,0.0,0.9858,1.1782,0.0,1.6077,1.8489,2.0655,2.4271,3.025,3.3291,3.5505,3.7128,3.8016,3.8667,3.899,3.9421,3.9854,4.025,4.0321,4.0485,4.0823,4.0834,4.0834,4.0834,4.0834,4.0769,4.0648,4.0668,4.0655,4.0588,4.053,4.095,4.1733,4.2488,4.3273,4.4074,4.4934,4.5297,4.5297,4.5275,4.517,4.5014,4.4938,4.4821,4.4777,-2.8242,-2.7056,-2.5893,-2.5791,-2.5273,-2.4269,-2.2645,-2.1116,-2.0054,-1.9675,-1.8958,-1.8073,-1.7236,-1.7077,-1.6441,-1.5191,-1.5569,-1.5597,-1.4844,-1.3944,-1.3298,-1.3111,-1.1829,-1.1077,-1.093,-1.0848,-1.0485,-0.9837,0.0,0.0,0.0,0.0,0.0,0.0,-0.9793,-0.9235,-0.8741,-0.7568,-0.6689,-0.5632,-0.3618,-0.1609,0.0302,0.2417,0.2521,0.1617,0.1617,0.1617,0.1617,0.1516,0.0202,0.0,0.0,-0.121,-0.2826,-0.1513,-0.1413,-0.1516,-0.1516,-0.101,-0.0404,-0.0404,-0.0605,-0.05,0.0492,-0.0878,-0.2033,-0.1046,-0.1117,-0.1098,-0.0364,0.1692,0.3674,0.4448,0.7454,0.0,0.0,1.3494,1.8592,2.7283,3.155,3.4197,3.5378,3.6914,3.8091,3.8762,3.9313,3.9772,4.0187,4.0326,4.0557,4.0898,4.0907,4.0907,4.0907,4.0907,4.0858,4.0788,4.0858,4.0796,4.0602,4.0732,4.1117,4.1733,4.2539,4.333,4.4074,4.4934,4.5297,4.5297,4.5148,4.5014,4.4914,4.4895,4.4857,4.4843,-2.8856,-2.8228,-2.7426,-2.703,-2.6111,-2.4971,-2.3719,-2.2715,-2.1938,-2.1563,-2.011,-1.8897,-1.8292,-1.7469,-1.6677,-1.5975,-1.6075,-1.5923,-1.5249,-1.4508,-1.3844,-1.3458,-1.2017,-1.1414,-1.1823,-1.1332,-1.0955,-1.0793,-1.1173,0.0,0.0,0.0,0.0,0.0,-1.0731,-1.0286,-0.9048,-0.8557,-0.767,-0.6315,-0.3814,-0.2113,-0.0806,0.1311,0.1919,0.1617,0.1617,0.1617,0.1617,0.1617,0.1111,0.0303,-0.0605,-0.0907,-0.1209,-0.3021,-0.302,-0.2618,0.0,-0.4028,-0.4024,-0.262,-0.3519,-0.4309,-0.2592,-0.3383,-0.4447,-0.4073,-0.3743,-0.3314,-0.2855,-0.1636,-0.0448,0.0529,0.1841,0.314,0.0,0.8325,1.3121,1.9058,2.5435,3.0453,3.3259,3.5432,3.7131,3.8172,3.9064,3.9647,3.9906,4.0154,4.0404,4.0699,4.0819,4.0907,4.0907,4.0907,4.0898,4.0868,4.0898,4.0859,4.0807,4.0792,4.0919,4.115,4.1909,4.2576,4.3216,4.4193,4.4762,4.5057,4.508,4.4967,4.4789,4.4789,4.4693,4.4674,-2.9529,-2.913,-2.852,-2.7841,-2.6783,-2.5608,-2.4492,-2.3856,-2.3173,-2.2482,-2.1114,-1.9835,-1.9099,-1.828,-1.7461,-1.656,-1.6662,-1.6567,-1.5697,-1.5222,-1.4841,-1.4447,-1.3216,-1.2829,-1.3392,-1.2635,-1.2257,-1.2349,-1.2446,-1.2566,0.0,0.0,0.0,0.0,-1.2269,-1.179,-1.0491,-0.9917,-0.8901,-0.7403,-0.4512,-0.3016,-0.2316,0.0101,0.1313,0.1617,0.1617,0.1617,0.1617,0.1617,0.1313,0.0808,-0.0605,-0.0806,-0.1008,-0.3324,-0.3624,-0.3519,-0.4429,-0.5334,0.0,-0.4325,-0.5427,-0.6326,-0.4722,-0.5522,-0.6504,-0.6129,-0.5489,-0.5129,-0.5188,-0.4266,-0.3469,-0.3406,-0.258,-0.1238,0.0,0.3621,0.7312,1.1548,2.0011,2.6961,3.086,3.3839,3.6199,3.7821,3.8711,3.9401,3.9775,4.0043,4.029,4.059,4.0807,4.0898,4.0907,4.0907,4.0907,4.0907,4.0907,4.0907,4.0907,4.0848,4.0823,4.0827,4.1602,4.2236,4.2776,4.3733,4.4433,4.4895,4.4943,4.4846,4.4712,4.4712,4.4667,4.4655,-3.0342,-2.9786,-2.9101,-2.8405,-2.7357,-2.6174,-2.5052,-2.4457,-2.3694,-2.2658,-2.1882,-2.106,-1.9827,-1.9695,-1.8988,-1.721,-1.7699,-1.7613,-1.6379,-1.6285,-1.6285,-1.6285,-1.5527,-1.5235,-1.5406,-1.4472,-1.4088,-1.4364,-1.4854,0.0,0.0,0.0,0.0,0.0,-1.4382,-1.3703,-1.3119,-1.1868,-1.0498,-0.9011,-0.5917,-0.452,-0.4117,-0.1308,0.0403,0.1414,0.1515,0.1516,0.1516,0.1415,0.0807,-0.0101,-0.0101,-0.121,-0.2421,-0.2522,-0.3527,-0.4529,-0.4529,-0.4929,-0.5427,-0.5625,-0.6326,-0.6728,-0.5924,-0.7126,-0.8131,-0.7129,-0.6637,-0.6649,-0.7617,-0.6247,-0.5616,-0.7514,-0.5765,-0.3641,-0.2033,-0.0703,0.1394,0.5185,1.5302,2.3723,2.8082,3.2037,3.5275,3.7488,3.8319,3.899,3.9712,3.9965,4.0243,4.0577,4.0773,4.0888,4.0888,4.0907,4.0907,4.0907,4.0907,4.0907,4.0907,4.0907,4.0868,4.0858,4.1615,4.2221,4.2719,4.3578,4.4287,4.4814,4.4745,4.4712,4.4685,4.4685,4.4751,4.4872,-3.2853,-3.1993,-3.0918,-3.0158,-2.8814,-2.7267,-2.5863,-2.5073,-2.4467,-2.3993,-2.3396,-2.2677,-2.1924,-2.1409,-2.061,-1.9247,-1.8812,-1.8357,-1.7707,-1.7037,-1.6842,-1.7044,-1.5812,-1.5337,-1.5994,-1.5242,-1.486,-1.4854,-1.5051,-1.5051,-1.5146,0.0,0.0,0.0,-1.5432,-1.5038,-1.398,-1.3596,-1.2226,-0.9981,-0.8506,-0.6913,-0.5114,-0.3815,-0.2613,-0.1509,-0.0101,0.0403,0.0303,-0.0504,-0.1008,-0.131,-0.2116,-0.262,-0.3225,-0.4634,-0.5634,-0.6331,-0.6933,-0.7431,-0.7723,-0.6921,-0.7726,-0.8329,0.0,0.0,-0.8935,-0.8634,-0.8297,-0.8136,-0.8129,-0.8501,-0.8816,-0.9022,-0.8549,-0.7884,-0.732,-0.5295,-0.2461,0.139,0.9516,1.7113,2.3207,2.8613,3.2854,3.5565,3.752,3.8674,3.898,3.9557,4.0005,4.0279,4.0549,4.0711,4.0828,4.0888,4.0898,4.0898,4.0898,4.0907,4.0907,4.0907,4.0898,4.0898,4.11,4.1421,4.1894,4.2794,4.3373,4.3759,4.444,4.4632,4.4551,4.4551,4.4783,4.5118,-3.4011,-3.2948,-3.189,-3.0966,-3.0016,-2.8811,-2.7175,-2.6168,-2.5562,-2.5477,-2.4538,-2.3673,-2.3379,-2.233,-2.1159,-2.0266,-1.9546,-1.8819,-1.7978,-1.7792,-1.7692,-1.7512,-1.6756,-1.6567,-1.7044,-1.6096,-1.5717,-1.6096,-1.5717,-1.5717,-1.6096,0.0,0.0,0.0,-1.619,-1.5805,-1.5134,-1.4555,-1.3097,-1.1156,-1.0087,-0.8894,0.0,-0.561,-0.4516,-0.3912,-0.281,-0.171,-0.0806,-0.1412,-0.1613,-0.1714,-0.2318,-0.3021,-0.3924,-0.5029,-0.6329,-0.763,-0.8035,-0.8535,-0.8829,-0.8326,-0.873,-0.9031,-0.8619,-0.8829,-0.9133,-0.9031,-0.8428,-0.8004,-0.8126,-0.881,-0.9579,-0.9863,-1.0588,-1.0727,-0.9662,-0.8066,-0.5832,-0.28,0.3956,1.071,1.6902,2.5765,3.2246,3.4897,3.6796,3.8074,3.8603,3.913,3.9592,4.0024,4.0361,4.059,4.0667,4.0798,4.0868,4.0867,4.0898,4.0908,4.0908,4.0908,4.0849,4.0776,4.075,4.0954,4.138,4.2277,4.2895,4.3388,4.4259,4.4551,4.4515,4.4515,4.4667,4.491,-3.4369,-3.3459,-3.2528,-3.1236,-3.0912,-3.0373,-2.881,-2.7465,-2.6753,-2.6686,-2.5319,-2.4305,-2.4216,-2.272,-2.1535,-2.0988,-2.0357,-1.9446,-1.8326,-1.8804,-1.8812,-1.8056,-1.8257,-1.8265,-1.8087,-1.7037,-1.685,-1.7419,-1.6936,-1.703,0.0,0.0,0.0,0.0,-1.6692,-1.6324,-1.623,-1.4981,-1.3753,-1.2624,-1.1444,-1.0858,-1.0364,-0.7394,-0.6208,-0.6011,-0.5914,-0.4216,-0.2115,-0.2317,-0.2317,-0.2317,-0.2317,-0.3419,-0.482,-0.492,-0.6623,-0.8432,-0.8531,-0.8931,-0.9331,-0.9529,-0.943,-0.9331,-0.9529,-0.943,-0.9133,-0.8928,-0.7829,-0.7229,-0.7939,-0.8376,-0.9103,-1.0353,-1.1693,-1.2031,-1.0231,-0.9323,-0.8066,-0.6008,-0.026,0.0,1.0952,2.3011,3.1567,3.4124,3.5821,3.7198,3.8232,3.8644,3.9151,3.9775,4.0192,4.0442,4.0496,4.0655,4.0723,4.0754,4.0784,4.0815,4.0815,4.0815,4.0718,4.0544,4.0492,4.063,4.1,4.1829,4.2586,4.3369,4.4195,4.4515,4.4515,4.4487,4.4487,4.4532,-3.5109,-3.4546,-3.3807,-3.1915,-3.1179,-3.0782,-3.0373,-2.8617,-2.7031,-2.6285,-2.555,-2.489,-2.4481,-2.363,-2.3057,-2.2969,-2.2325,-2.1686,-2.1051,-2.115,-2.0709,-1.9521,-1.953,-1.908,-1.8087,-1.8265,-1.8265,-1.7986,-1.8796,-1.9338,0.0,0.0,0.0,-1.8441,-1.7288,-1.6755,-1.6755,-1.5814,-1.5197,-1.4734,-1.3968,-1.2909,-1.1745,-1.0164,-0.919,-0.8414,-0.7329,-0.6022,-0.5016,-0.5927,-0.6232,-0.6232,-0.6232,-0.6431,-0.683,-0.7528,-0.8031,-0.8531,-0.9229,-0.943,-0.9529,-0.9628,-0.9529,-0.9529,-0.9628,-0.943,-0.9236,-0.9133,-0.863,-0.823,-0.8627,-0.9166,-1.0017,-1.0992,-1.0534,-1.0168,-1.0472,-0.8428,-0.6216,-0.4502,0.086,0.6108,1.0419,1.9219,2.6205,2.9929,3.347,3.5959,3.7129,3.8045,3.8952,3.9766,3.988,4.0101,0.0,0.0,4.0389,4.0554,4.0389,4.0323,4.0323,4.0323,4.0287,4.0255,4.0262,4.0196,4.0186,4.0994,4.2095,4.3369,4.4195,4.4515,4.4487,4.4458,4.4411,4.4477,-3.5858,-3.5203,-3.4492,-3.3194,-3.2693,-3.2324,-3.1593,-3.0279,-2.9106,-2.829,-2.6936,-2.5946,-2.5701,-2.4395,-2.3503,-2.3503,-2.2853,-2.2306,-2.2041,-2.2041,-2.1774,-2.123,-2.097,-2.052,-1.9985,-1.9886,-1.9786,-1.9513,-2.0141,-2.0413,0.0,0.0,0.0,-1.9491,-1.8791,-1.8166,-1.7725,-1.7454,-1.7057,-1.6525,-1.5305,-1.4447,-1.3674,-1.2032,-1.097,-1.0293,-0.9217,-0.8319,-0.7617,-0.7332,-0.7238,-0.7238,-0.7238,-0.7534,-0.7932,-0.8333,-0.873,-0.913,-0.9529,-0.9628,-0.9628,-0.9628,-0.9628,-0.9628,-0.9628,-0.9529,-0.9529,-0.9912,-0.9422,-0.9027,-0.9706,-1.0023,0.0,-1.0696,-1.0557,-1.0291,-0.997,-0.8611,-0.7105,-0.5574,-0.0696,0.3968,0.7654,1.4202,2.0904,2.7296,3.1274,3.4351,3.6399,3.7523,3.8438,3.9107,0.0,0.0,4.012,0.0,4.0211,4.0353,4.0245,4.0208,4.0208,4.0208,4.0136,4.0024,4.0043,3.9939,3.9853,4.1071,4.2234,4.3388,4.4168,4.4458,4.444,4.4354,4.4344,4.4411,-3.6501,-3.5697,-3.4864,-3.4285,-3.3987,-3.3561,-3.2516,-3.1769,-3.1039,-3.0111,-2.8281,-2.7032,-2.6779,-2.52,-2.4079,-2.3841,-2.329,-2.2921,-2.2843,-2.2843,-2.2755,-2.2668,-2.2325,-2.1961,-2.1695,-2.14,-2.1212,-2.1033,-2.1302,-2.1435,0.0,-2.1166,-2.0738,-1.9938,-1.9609,-1.9177,0.0,0.0,-1.8597,-1.8018,-1.6692,-1.6062,-1.5684,-1.368,-1.2624,-1.2047,-1.1282,-1.0699,-1.0109,-0.852,-0.7928,-0.7733,-0.7733,-0.8134,-0.863,-0.863,-0.913,-0.9628,-0.9628,-0.9628,-0.9624,-0.9916,-0.9916,-1.0015,-1.0212,-1.031,-1.0404,-1.1077,-1.04,-0.9817,-1.0293,-1.0297,0.0,-0.9844,-1.0306,-1.0236,-0.9257,-0.8464,-0.7464,-0.6389,-0.1943,0.2115,0.4995,0.9841,1.5873,2.3416,2.8205,3.2136,3.5199,3.6693,3.7751,3.8295,3.8997,3.9481,3.9721,0.0,4.0001,4.0101,4.0081,4.0062,4.0062,4.0062,4.0002,3.9854,3.9848,3.975,3.9733,4.1342,4.2385,4.3098,4.4018,4.4383,4.4354,4.4314,4.4314,4.4393,-3.6793,-3.6052,-3.5263,-3.4491,-3.3768,-3.3213,-3.3087,-3.2506,-3.1415,-2.9664,-2.8736,-2.7846,-2.688,-2.6599,-2.608,-2.5115,-2.4935,-2.4775,-2.4358,-2.4272,-2.4013,-2.3406,-2.3319,-2.2784,-2.1695,-2.2041,-2.2041,-2.1606,-2.2687,-2.3026,-2.2634,-2.2178,-2.0883,0.0,0.0,0.0,0.0,-1.8897,-1.9245,-1.9407,-1.8744,-1.8033,-1.7274,-1.5677,-1.4644,-1.398,-1.3119,-1.2829,-1.2538,-1.1268,-1.0203,-0.9331,-0.9331,-0.943,-0.9529,-0.9529,-0.9529,-0.9628,-0.9628,-0.9628,-0.9821,-1.0788,-1.1077,-1.1268,-1.2242,-1.2436,-1.2441,-1.2533,-1.176,-1.0587,-0.9217,-0.9126,-0.9072,-0.8501,-0.8346,-0.8459,-0.8804,-0.6487,-0.4723,-0.4793,-0.0799,0.2674,0.4539,0.8012,1.1718,1.5349,2.2829,2.8857,3.272,3.5165,3.6841,3.7747,3.8308,3.8897,3.9524,3.9496,3.9588,3.9848,3.9637,3.9602,3.9656,3.9656,3.965,3.9626,3.9626,3.9626,3.9733,4.1342,4.2002,4.2173,4.3765,4.4354,4.4285,4.4244,4.4306,4.4511,-3.7537,-3.7202,-3.6692,-3.6026,-3.5552,-3.4984,-3.4177,-3.3685,-3.2961,-3.1802,-3.0101,-2.8809,-2.8414,-2.7763,-2.7046,-2.6246,-2.6163,-2.5935,-2.5391,-2.5041,-2.4775,-2.4519,-2.4272,-2.4079,-2.419,-2.38,-2.38,-2.419,-2.4079,-2.3876,-2.3439,-2.3082,0.0,0.0,0.0,-2.0145,-2.0098,-1.9985,-2.0125,-2.0412,-1.958,-1.887,-1.8218,-1.7188,-1.6055,-1.4835,-1.4076,-1.3499,-1.3022,-1.2533,-1.1565,-1.04,-0.9821,-0.9628,-0.9723,-1.04,-1.0596,-1.069,-1.1277,-1.1473,-1.1565,-1.195,-1.2145,-1.2242,-1.263,-1.2727,-1.2926,-1.3511,-1.3318,-1.2441,-1.0583,-1.0199,-0.9849,-0.881,-0.8913,-0.9051,-0.9034,-0.7926,-0.6857,-0.6136,-0.2216,0.0888,0.2133,0.5849,0.9375,1.2377,1.9502,2.5512,2.9446,0.0,0.0,3.6805,0.0,3.8031,3.8897,3.8868,3.9091,3.9558,3.9476,3.9469,3.9495,3.9495,3.952,3.9546,3.9495,3.952,3.9677,4.1237,4.1856,4.1997,4.3631,4.4255,4.4244,4.4135,4.4128,4.4269,-3.8358,-3.8076,-3.7806,-3.7515,-3.704,-3.6368,-3.5419,-3.478,-3.4177,-3.3699,-3.1802,-3.0329,-2.9973,-2.9254,-2.8378,-2.7371,-2.7302,-2.7069,-2.6517,-2.6174,-2.5997,-2.5997,-2.56,-2.5673,-2.6318,-2.5589,-2.56,-2.6152,-2.5348,-2.464,-2.4061,0.0,0.0,0.0,-2.1784,-2.1569,-2.1362,-2.0822,-2.0829,-2.1033,-2.0305,-1.9847,-1.9373,-1.8364,-1.7554,-1.6612,-1.5507,-1.4841,-1.4447,-1.3788,-1.2926,-1.1955,-1.089,-1.0502,-1.0694,-1.1468,-1.1658,-1.1755,-1.2533,-1.2727,-1.2829,-1.3119,-1.3216,-1.3216,-1.3505,-1.3601,-1.3698,-1.4196,-1.4004,-1.3318,-1.1565,-1.1072,-1.064,-0.9639,-0.9957,-1.0297,-1.02,-0.95,-0.8649,-0.7889,-0.3813,-0.0619,0.0533,0.4355,0.7876,1.0359,1.6345,2.1854,2.6351,0.0,0.0,0.0,0.0,0.0,3.802,3.8085,3.8376,3.897,3.9017,3.9045,3.9073,3.9175,3.9301,3.9469,3.9418,3.9418,3.96,4.1175,4.1792,4.1913,4.3562,4.4184,4.4135,4.4036,4.4048,4.4181,-3.9172,-3.8541,-3.8157,-3.8783,-3.779,-3.689,-3.689,-3.5548,-3.4595,-3.4595,-3.3768,-3.2635,-3.1315,-3.118,-3.0417,-2.8573,-2.8347,-2.8176,-2.7832,-2.7752,-2.7752,-2.7752,-2.7533,-2.7464,-2.7464,-2.7232,-2.7069,-2.7069,-2.6235,-2.5338,-2.4467,0.0,-2.2957,-2.3452,-2.2414,-2.1897,-2.1797,-2.1352,-2.117,-2.1157,-2.1127,-2.1108,-2.0893,-1.9381,-1.933,-1.9869,-1.7707,-1.7419,-1.7561,-1.5412,-1.4478,-1.41,-1.3022,-1.263,-1.2635,-1.2635,-1.2727,-1.2727,-1.2727,-1.2727,-1.2926,-1.4004,-1.4292,-1.4586,-1.554,-1.573,-1.5445,-1.449,-1.3414,-1.2436,-1.1365,-1.117,-1.1072,-1.0779,0.0,-1.1895,-1.2565,-1.0654,-0.9208,-0.9298,-0.4989,-0.1411,0.0266,0.3907,0.6929,0.8757,1.2859,1.7839,2.3618,0.0,0.0,3.348,3.4843,0.0,3.6897,3.7053,3.7417,3.8011,3.8147,3.8245,3.8323,3.8651,3.9027,3.9391,3.9391,3.9391,3.9522,4.1147,4.1763,4.1874,4.355,4.4135,4.4005,4.4005,4.4181,4.4402,-3.9885,-3.961,-3.9385,-3.9119,-3.8652,-3.8117,-3.7716,-3.6783,-3.6119,-3.5978,-3.537,-3.4499,-3.3449,-3.2834,-3.196,-3.0405,-3.0329,-2.9884,-2.8743,-2.8426,-2.8176,-2.8176,-2.7844,-2.8016,-2.8597,-2.7787,-2.7462,-2.7663,0.0,0.0,0.0,-2.3765,-2.3452,-2.3514,-2.2999,-2.2776,-2.2723,-2.2519,-2.2247,-2.2028,-2.26,-2.2491,-2.1921,-2.1346,-2.1119,-2.0998,-1.9679,-1.9247,-1.9147,-1.8488,-1.811,-1.7825,-1.7431,-1.5631,-1.3843,-1.462,-1.4816,-1.4823,-1.4848,-1.4765,-1.486,-1.5255,-1.535,-1.5445,-1.573,-1.5832,-1.573,-1.535,-1.5057,-1.4472,-1.3511,-1.3318,-1.3028,-1.2242,-1.2571,-1.3042,-1.3262,-1.233,-1.1365,-1.0338,-0.7324,-0.4486,-0.2227,0.1154,0.3643,0.4893,1.0009,1.5754,2.1951,0.0,0.0,0.0,3.3884,0.0,3.6464,3.7148,3.7885,3.8818,3.8857,3.9081,3.9463,3.9027,3.9144,3.9582,3.8969,3.8923,3.9386,4.0989,4.1649,4.1787,4.3423,4.4036,4.4005,4.4005,4.4048,4.4151,-4.0707,-4.0483,-4.0237,-3.9868,-3.9368,-3.8887,-3.8541,-3.779,-3.7279,-3.7128,-3.6737,-3.6119,-3.5275,-3.4736,-3.3765,-3.2119,-3.1974,-3.1609,-3.0706,-3.0101,-2.9935,-3.0227,-2.9616,-2.9464,-2.9757,-2.8969,0.0,-2.8474,-2.7203,-2.6233,-2.5424,-2.4714,-2.4409,-2.4492,-2.3963,-2.3745,-2.3599,-2.3169,-2.2832,-2.2674,-2.3317,-2.3313,-2.2859,-2.2768,-2.2549,-2.2206,-2.1132,-2.0576,-2.0413,-2.0404,-2.0198,-2.0082,-2.0783,-1.9529,-1.7666,-1.7137,-1.6987,-1.6908,-1.6936,-1.6943,-1.685,-1.648,-1.6386,-1.6298,-1.5927,-1.5832,-1.5832,-1.5832,-1.554,-1.5064,-1.4394,-1.4298,-1.41,-1.3414,-1.3806,-1.4226,-1.4257,-1.3948,-1.3101,-1.142,-0.9254,-0.6791,-0.3832,-0.0819,0.1728,0.3735,0.8271,1.3414,0.0,0.0,2.7105,3.1248,3.2183,3.3453,3.5224,3.6146,3.705,3.7894,3.8477,3.9135,3.9789,3.9042,3.8924,3.9355,3.8503,3.8337,3.8792,4.0579,4.1311,4.1477,4.328,4.3942,4.3992,4.4005,4.4005,4.4017,-4.1613,-4.1139,-4.0849,-4.0849,-4.0003,-3.9295,-3.9295,-3.858,-3.806,-3.8044,-3.7905,-3.7515,-3.6798,-3.6676,-3.5806,-3.3545,0.0,0.0,-3.3213,-3.2536,-3.2437,-3.3087,-3.2266,-3.1492,-3.0939,-3.0583,-3.009,-2.9438,-2.7985,-2.7258,-2.7092,-2.6,-2.5804,-2.6327,-2.5358,-2.4838,-2.4612,-2.3745,-2.3231,-2.3202,-2.36,-2.3722,-2.3667,-2.3714,-2.3784,-2.369,-2.2303,-2.1762,-2.164,-2.1505,-2.1389,-2.145,-2.3189,-2.3705,-2.3189,-2.0172,-1.9139,-1.8964,-1.888,-1.8788,-1.8603,-1.7598,-1.7419,-1.7138,-1.6197,-1.6015,-1.6015,-1.6015,-1.5248,-1.458,-1.4484,-1.4484,-1.4484,-1.4394,-1.5064,-1.554,-1.554,-1.521,-1.4192,-1.2299,-1.0748,0.0,-0.4631,-0.2173,0.0754,0.4422,0.7382,1.089,0.0,0.0,2.4567,2.8877,2.993,3.1338,3.3244,3.4364,3.5221,3.5776,3.7319,3.8556,3.9423,3.8602,3.8433,3.8759,3.7918,3.7613,3.7881,3.9872,4.0753,4.1058,4.3023,4.3832,4.3865,4.391,4.3974,4.3974,0.0,0.0,-4.1303,-4.1303,-4.0814,-4.04,-4.04,-3.9577,-3.8887,-3.869,-3.8286,-3.7831,-3.7573,-3.7397,-3.6745,-3.517,-3.4391,-3.3822,-3.3213,-3.257,-3.2236,-3.2456,-3.179,-3.1348,-3.1195,-3.0911,-3.0392,-2.9537,-2.881,-2.8317,-2.8159,-2.7894,-2.7841,-2.792,-2.7564,-2.7352,-2.7285,-2.679,-2.5946,-2.4933,-2.5525,-2.5252,-2.4589,-2.4511,-2.5004,-2.5628,-2.4541,-2.4388,-2.4777,-2.4681,-2.466,-2.466,-2.4935,-2.502,-2.4575,-2.2036,-2.1248,-2.0899,-1.9231,-1.8788,-1.8703,-1.8519,-1.8427,-1.8427,-1.8141,-1.8048,-1.8048,-1.8048,-1.7855,-1.749,-1.6756,-1.6567,-1.6386,-1.554,-1.5445,-1.554,-1.573,-1.481,-1.3636,-1.2299,-1.0896,-0.8717,-0.5124,-0.3602,-0.1516,0.0,0.4492,0.754,1.0954,1.4604,1.9454,2.5741,2.8186,2.9979,3.103,3.3135,3.4964,3.644,3.7399,3.8266,3.8992,3.7864,3.7539,3.7929,3.6594,3.6788,3.8105,3.918,4.0287,4.136,4.2411,4.3087,4.3442,4.3336,4.3545,4.3851,-4.2469,-4.219,-4.2003,-4.1828,-4.1455,-4.1094,-4.1094,-4.0655,-4.0234,-4.0101,-3.9648,-3.9126,-3.8679,-3.8049,-3.7279,-3.6211,-3.5308,-3.4401,-3.3419,-3.2677,-3.2542,-3.3132,-3.2277,-3.1768,-3.1772,-3.1297,-3.06,-2.9806,-2.9449,-2.9233,-2.9093,-2.8698,-2.8492,-2.8492,-2.8298,-2.8182,-2.8182,-2.7828,-2.7272,-2.6519,-2.6786,-2.6553,-2.6113,-2.6298,-2.6529,-2.6621,-2.6609,-2.6325,-2.6054,-2.678,-2.6719,-2.6577,-2.7197,-2.7429,-2.7151,-2.5694,-2.4302,-2.293,-2.1194,-2.0854,-2.0764,-1.996,-1.9322,-1.9047,-1.9472,-1.9131,-1.8964,-1.9397,-1.9139,-1.8519,-1.7512,-1.7326,-1.6951,-1.592,-1.573,-1.5635,-1.5737,-1.4771,-1.3657,-1.2549,-1.1091,-0.9018,-0.5555,-0.4578,-0.2729,0.0587,0.2752,0.0,0.8787,1.1466,1.6148,2.3203,2.5458,2.7501,2.9465,3.2041,3.4138,3.5827,3.682,3.747,3.7834,3.7124,3.6788,3.6729,3.5572,3.5987,3.7523,3.8524,3.9741,4.1034,4.2002,4.26,4.2885,4.3051,4.3266,4.3495,-4.3572,-4.3122,-4.2737,-4.2462,-4.1955,-4.163,-4.163,-4.1525,-4.1481,-4.1481,-4.1139,-4.0556,-3.9715,-3.8688,-3.765,-3.6667,-3.5849,-3.4979,-3.3864,-3.3104,-3.3199,-3.4257,-3.3155,-3.2492,-3.2493,-3.1751,-3.1003,-3.0315,-3.0101,-3.0007,-2.9931,-2.9142,-2.8826,-2.8826,-2.8634,-2.8556,-2.8556,-2.822,-2.8011,-2.7959,-2.7723,-2.7604,-2.759,-2.802,-2.7721,-2.7218,-2.822,-2.77,-2.6792,-2.8144,-2.8203,-2.7853,-2.9356,-2.9858,-2.982,-2.9476,-2.7646,-2.543,-2.4063,-2.3836,-2.3501,-2.2073,-2.0828,-2.0107,-2.0953,-2.0279,-1.9679,-2.0442,-1.9935,-1.8972,-1.7971,-1.7785,-1.7412,-1.6204,-1.6109,-1.6197,-1.6015,0.0,-1.4268,-1.3102,-1.1551,-0.9284,-0.5919,-0.5125,-0.3317,0.0302,0.161,0.3709,0.7195,0.9433,1.3649,2.013,2.211,2.484,2.8464,3.0764,3.2765,3.442,3.5422,3.604,3.6188,3.6023,3.573,3.523,3.4709,3.5363,3.6827,3.794,3.923,4.0595,4.1665,4.2144,4.2266,4.2774,4.3014,4.3159,-4.4058,-4.3666,-4.3351,-4.3316,-4.2621,-4.2074,-4.2074,-4.1743,-4.1481,-4.1481,-4.1455,-4.0986,-3.9812,-3.9435,-3.8297,-3.6057,-3.5654,-3.5432,-3.5308,-3.4509,-3.418,-3.436,-3.356,-3.3076,-3.3074,-3.2505,-3.2068,-3.1777,-3.1204,-3.0821,-3.0642,-3.0372,-3.0251,-3.0251,-3.0251,-3.0251,-3.0176,-2.9979,-2.9546,-2.903,-2.8725,-2.8247,-2.7644,-2.7629,-2.7834,-2.8127,-2.8296,-2.8447,-2.872,-2.9516,-2.9648,-2.9651,-3.0302,-3.0607,-3.067,-3.0253,-2.9948,-2.9282,-2.7312,-2.6199,-2.5583,-2.5322,-2.447,-2.3684,-2.3856,-2.3163,-2.2463,-2.2639,-2.1863,-2.0997,-1.9977,-1.9795,-1.9247,-1.7412,-1.7777,-1.8056,-1.7232,0.0,-1.6094,-1.4208,-1.256,-1.0032,-0.6016,-0.5125,-0.3521,-0.0404,0.0605,0.2012,0.4117,0.6991,1.0197,1.3892,1.8518,2.309,2.7785,2.8445,3.01,3.268,3.2512,3.3025,3.4103,3.3678,3.3398,3.3362,3.3779,3.5101,3.6937,3.7668,3.9189,4.1013,4.1082,4.1401,4.1821,4.218,4.2616,4.2995,-4.4447,-4.4214,-4.3998,-4.3638,-4.3265,-4.2922,-4.2729,-4.2516,-4.2338,-4.2262,-4.1641,-4.1043,-4.0479,-3.939,-3.8243,-3.7062,-3.6529,-3.6175,-3.5985,-3.4667,-3.4005,-3.4266,-3.3582,-3.3182,-3.3182,-3.2933,-3.2788,-3.2718,-3.2296,-3.2089,-3.1962,-3.1465,-3.119,-3.119,-3.0792,-3.0568,-3.0568,-3.0387,-3.0129,-2.9808,-2.9498,-2.9156,-2.8826,-2.8661,-2.8954,-2.9421,-2.9752,-2.9882,-3.009,-3.0706,-3.0635,-3.0381,-3.107,-3.1343,-3.1483,-3.1834,-3.0843,-2.9501,-2.8626,-2.7587,-2.6735,-2.6816,-2.6278,-2.5837,-2.658,-2.5876,-2.5198,-2.5398,-2.4639,-2.3517,-2.2054,-2.1373,-2.0567,-1.9107,-1.8864,-1.8611,-1.8149,-1.6685,-1.5233,-1.4291,-1.1895,-0.9276,-0.6719,-0.5425,-0.382,-0.1411,-0.0403,0.1209,0.3519,0.5996,0.8456,1.0914,1.7804,2.2563,2.5009,2.7059,2.8929,3.0491,3.1182,3.1804,3.2442,3.2629,3.2717,3.2834,3.347,3.5163,3.748,3.7758,3.9127,4.1,4.0935,4.1041,4.1328,4.1948,4.2338,4.2616,-4.4819,-4.4676,-4.4474,-4.3986,-4.3818,-4.3693,-4.3356,-4.3251,-4.3069,-4.2777,-4.1805,-4.0957,-4.0521,-3.9067,-3.8033,-3.7777,-3.7233,-3.6781,-3.6451,-3.4998,-3.4252,-3.4448,-3.4003,-3.37,-3.3614,-3.3582,-3.3479,-3.3407,-3.3145,-3.2986,-3.2986,-3.2226,-3.189,-3.1849,-3.1306,-3.1029,-3.1029,-3.0837,-3.0777,-3.0777,-3.0404,-3.0269,-3.0329,-3.0115,-3.0237,-3.0611,-3.109,-3.1022,-3.0879,-3.1539,-3.1338,-3.0964,-3.1836,-3.2115,-3.2281,-3.2982,-3.1572,-2.9866,-3.0086,-2.9297,-2.8415,-2.8506,-2.8044,-2.7829,-2.8814,-2.8124,-2.729,-2.7601,-2.6758,-2.5655,-2.4077,-2.2911,-2.1878,-2.0944,0.0,-1.943,-1.9155,-1.7137,-1.5422,-1.4949,-1.2093,-0.9485,-0.7409,-0.6116,-0.442,-0.2215,-0.1109,0.0403,0.2615,0.4901,0.7279,0.987,1.7268,2.1743,2.2843,2.5909,2.7841,2.8565,3.0045,3.0705,3.0752,3.1809,3.2318,3.2511,3.3637,3.5514,3.7854,3.8018,3.9228,4.0888,4.0888,4.0888,4.1012,4.1881,4.2198,4.232,-4.5279,-4.4953,-4.4676,-4.4624,-4.428,-4.3986,-4.3955,-4.3623,-4.3096,-4.2344,-4.1886,-4.0942,-3.906,-3.8754,-3.8191,-3.7079,-3.6935,-3.69,-3.686,-3.6626,-3.6088,-3.5274,-3.5362,-3.5207,-3.4787,-3.4671,-3.4431,-3.4034,-3.3319,-3.2986,-3.2986,-3.2594,-3.2415,-3.2431,-3.2312,-3.2287,-3.2287,-3.2272,-3.2272,-3.2216,-3.1736,-3.1721,-3.186,-3.142,-3.1319,-3.1319,-3.1364,-3.1234,-3.1057,-3.1703,-3.1863,-3.1904,-3.2591,-3.2845,-3.283,-3.2889,-3.2776,-3.2652,-3.2891,-3.2232,-3.1476,-3.1476,-3.0794,-3.0025,-3.019,-2.9114,-2.8203,-2.8215,-2.7244,-2.6349,-2.6184,-2.4872,-2.3517,-2.2592,0.0,0.0,-2.0348,-1.9968,-1.9107,-1.7208,-1.553,-1.2635,-0.7668,-0.7096,-0.5715,-0.2621,-0.1613,-0.0706,0.0202,0.2513,0.5999,1.0826,1.547,1.9669,2.3337,2.4882,2.6144,2.7077,2.8163,2.8807,2.8958,3.0779,3.1591,3.1711,3.4273,3.6248,3.7781,3.8384,3.951,4.0888,4.0888,4.0888,4.1012,4.1881,4.2198,4.232,-4.5555,-4.5342,-4.5144,-4.4973,-4.4713,-4.4231,-4.3502,-4.3252,-4.2835,-4.1957,-4.1237,-4.0464,-3.9553,-3.8943,-3.8375,-3.7757,-3.7703,-3.7577,-3.7283,-3.7228,-3.6865,-3.6088,-3.6062,-3.602,-3.5847,-3.5725,-3.5414,-3.5021,-3.4752,-3.4447,-3.4152,-3.3855,-3.3687,-3.3566,-3.3348,-3.3192,-3.3066,-3.3066,-3.3066,-3.3066,-3.2754,-3.2555,-3.2423,-3.1926,-3.1804,-3.1792,-3.1637,-3.1709,-3.1966,-3.2517,-3.2705,-3.2813,-3.3547,-3.3763,-3.3767,-3.3874,-3.3878,-3.3819,-3.3617,-3.2663,-3.1667,-3.1667,-3.0975,-3.0423,-3.0948,-3.0357,-2.9541,-2.9417,-2.8819,-2.78,-2.6219,-2.4996,-2.3853,-2.2572,0.0,-2.1162,-2.0889,-1.9422,-1.8064,-1.7301,-1.4874,-1.2592,-1.0542,-0.8579,-0.6904,-0.5712,-0.3318,-0.1108,0.0904,0.3712,0.797,1.3825,1.4349,1.6493,2.0657,2.3051,2.4604,2.5322,2.6332,2.7329,2.8383,2.9722,3.1098,3.2593,3.414,3.5916,3.7705,3.8411,3.9282,4.0269,4.071,4.0888,4.1012,4.1881,4.2198,4.232,-4.5717,-4.5422,-4.5137,-4.4939,-4.4532,-4.3931,-4.3088,-4.2836,-4.2396,-4.1518,-4.0765,-4.0151,-3.9727,-3.915,-3.867,-3.8491,-3.846,-3.83,-3.7895,-3.7861,-3.7452,-3.6591,-3.6586,-3.6563,-3.6422,-3.6422,-3.6232,-3.5776,-3.5776,-3.5599,-3.5316,-3.5094,-3.4922,-3.4797,-3.4572,-3.4348,-3.4137,-3.4137,-3.4088,-3.4006,-3.3774,-3.3639,-3.3415,-3.3035,-3.2908,-3.2902,-3.2703,-3.2772,-3.2986,-3.3355,-3.3531,-3.3748,-3.4266,-3.4497,-3.4649,-3.4718,-3.4739,-3.4685,-3.4321,-3.3376,-3.2436,-3.2104,-3.1547,-3.1282,-3.1846,-3.1453,-3.0987,-3.0851,-3.0446,-2.9482,-2.752,-2.6332,-2.5233,-2.3917,-2.2818,-2.2087,-2.1826,-1.9981,-1.8541,-1.8233,-1.5819,-1.3933,-1.3245,-1.0511,-0.8561,-0.7868,-0.4814,-0.1609,0.1403,0.4608,0.8867,1.4112,1.3138,1.4497,1.8795,2.1519,2.3112,2.3531,2.4926,2.6275,2.7623,2.9035,3.0929,3.3157,3.4159,3.5753,3.7648,3.8374,3.9086,3.98,4.0566,4.0901,4.1117,4.1906,4.2279,4.2537,-4.5725,-4.5045,-4.4504,-4.4504,-4.3612,-4.2904,-4.2904,-4.2433,-4.1825,-4.1,-4.0596,-4.0093,-3.9298,-3.9152,-3.908,-3.9099,-3.9044,-3.8886,-3.8615,-3.8615,-3.8029,-3.6768,-3.6995,-3.6917,-3.6422,-3.6724,-3.6684,-3.6215,-3.6215,-3.6215,-3.6215,-3.6122,-3.6097,-3.6097,-3.595,-3.5742,-3.5504,-3.5504,-3.5386,-3.5161,-3.4941,-3.4988,-3.5161,-3.4941,-3.483,-3.4783,-3.4673,-3.4464,-3.4186,-3.407,-3.4333,-3.47,-3.47,-3.4961,-3.5301,-3.5301,-3.5301,-3.5301,-3.5318,-3.4964,-3.4333,-3.3186,-3.2912,-3.2912,-3.2945,-3.2601,-3.2333,-3.2318,-3.1997,-3.1462,-3.0623,-2.9236,-2.788,-2.7004,-2.5627,-2.4263,-2.3308,-2.2334,-2.1386,-2.0459,-1.9131,-1.7579,-1.5391,-1.2863,-1.0568,-0.8402,-0.5598,-0.2312,0.1402,0.471,0.7895,1.1021,1.1836,1.4136,1.8182,2.0479,2.1694,2.1699,2.4091,2.5607,2.6479,2.8773,3.1034,3.32,3.4501,3.6041,3.7648,3.8278,3.8941,3.9662,4.0436,4.0977,4.1393,4.1973,4.2498,4.2957,-4.4228,-4.3957,-4.3729,-4.3729,-4.3395,-4.2898,-4.23,-4.2059,-4.1654,-4.0746,-4.0482,-4.0171,-3.9595,-3.9543,-3.9421,-3.9178,-3.9099,-3.9036,-3.8886,-3.8886,-3.8704,-3.8327,-3.8332,-3.83,-3.8168,-3.8125,-3.7873,-3.7399,-3.7307,-3.7084,-3.6781,-3.7102,-3.7044,-3.6729,-3.7038,-3.6878,-3.6343,-3.6343,-3.6367,-3.6399,-3.6298,-3.6347,-3.6411,-3.6118,-3.5874,-3.5598,-3.5273,-3.5121,-3.5076,-3.5385,-3.5579,-3.577,-3.6121,-3.6329,-3.6411,-3.6411,-3.6411,-3.6353,-3.595,-3.5745,-3.5385,-3.4348,-3.3636,-3.3271,-3.3609,-3.2903,-3.2258,-3.2558,-3.1898,-3.087,-2.9582,-2.8619,-2.7626,-2.6288,-2.5419,-2.4773,-2.4467,-2.3785,-2.2788,-2.1481,-1.8946,-1.6686,-1.4986,-1.1066,-0.8463,-0.7868,-0.1981,0.2086,0.3485,0.7365,1.0678,1.3119,1.2983,1.499,1.938,2.0081,2.0737,2.1341,2.3272,2.4963,2.6512,2.8711,3.1094,3.3428,3.4626,3.593,3.7294,3.8165,3.8887,3.9577,4.0672,4.1185,4.1393,4.236,4.2768,4.2957,-4.3598,-4.3249,-4.2963,-4.2963,-4.2586,-4.211,-4.1567,-4.1454,-4.1202,-4.0577,-4.0454,-4.0302,-3.996,-3.9916,-3.9807,-3.9614,-3.9445,-3.9352,-3.9396,-3.9294,-3.9268,-3.9345,-3.932,-3.9171,-3.8896,-3.877,-3.8493,-3.8186,-3.8092,-3.7873,-3.7578,-3.7823,-3.7825,-3.756,-3.7844,-3.7685,-3.7261,-3.7261,-3.7226,-3.719,-3.719,-3.7173,-3.7193,-3.6953,-3.6844,-3.6696,-3.6431,-3.6379,-3.6499,-3.6738,-3.6905,-3.709,-3.7595,-3.7718,-3.7718,-3.7718,-3.7718,-3.7665,-3.7327,-3.7273,-3.711,-3.6503,-3.5213,-3.4215,-3.4767,-3.4116,-3.3565,-3.4067,-3.3112,-3.1848,-3.0651,-2.9671,-2.862,-2.7077,-2.6564,-2.6181,-2.5539,-2.5112,-2.4454,-2.334,-1.9957,-1.7447,-1.6749,-1.15,-0.7057,-0.436,0.1084,0.482,0.6163,0.961,1.2263,1.3903,1.3647,1.5566,1.9885,2.0174,2.0997,2.2205,2.3699,2.5384,2.7361,2.91,3.1365,3.3988,3.4714,3.5804,3.7175,3.8051,3.8794,3.9437,4.0733,4.1348,4.1595,4.2537,4.2995,4.3178,-4.339,-4.2747,-4.2182,-4.2202,-4.1482,-4.0917,-4.0917,-4.0798,-4.0681,-4.0564,-4.0534,-4.0473,-4.0345,-4.0272,-4.0253,-4.0234,-3.9937,-3.9829,-3.9996,-3.9762,-3.9717,-3.9911,-3.9933,-3.9656,-3.9044,-3.8934,-3.8828,-3.87,-3.87,-3.8628,-3.8478,-3.8478,-3.846,-3.846,-3.846,-3.8346,-3.8165,-3.8165,-3.7995,-3.7719,-3.7719,-3.7702,-3.7685,-3.7685,-3.7821,-3.8034,-3.7881,-3.799,-3.8206,-3.805,-3.8217,-3.8552,-3.8915,-3.9044,-3.9044,-3.9026,-3.9026,-3.9026,-3.9044,-3.9044,-3.9044,-3.9072,-3.738,-3.5821,-3.6306,-3.6023,-3.5825,-3.625,-3.5197,-3.3989,-3.334,-3.2137,-3.0778,-2.9378,-2.908,-2.8519,-2.7025,-2.6647,-2.6342,-2.5859,-2.1957,-1.9485,-1.9861,-1.2874,-0.5695,0.0589,0.4098,0.6867,0.9177,1.1624,1.335,1.4148,1.4313,1.6308,2.0353,2.1145,2.2286,2.3818,2.5016,2.6688,2.8705,2.9771,3.1844,3.4528,3.4876,3.5882,3.7235,3.8051,3.8739,3.9401,4.0685,4.142,4.1895,4.2655,4.3178,4.3582,-4.1637,-4.1493,-4.1356,-4.1364,-4.1195,-4.1064,-4.1064,-4.103,-4.0971,-4.0839,-4.0818,-4.0754,-4.0635,-4.0607,-4.0596,-4.0588,-4.0386,-4.0196,-4.0017,-4.004,-4.0061,-4.006,-4.0158,-4.0157,-3.9986,-3.9664,-3.9489,-3.9464,-3.9357,-3.9253,-3.9091,-3.9091,-3.9045,-3.8934,-3.8934,-3.8803,-3.857,-3.857,-3.8617,-3.8702,-3.8702,-3.8841,-3.9069,-3.9069,-3.9088,-3.9152,-3.8989,-3.8997,-3.9024,-3.8943,-3.8961,-3.9043,-3.9252,-3.9306,-3.9312,-3.9368,-3.9373,-3.9392,-3.9392,-3.9406,-3.9453,-3.9637,-3.9186,-3.8548,-3.8022,-3.7587,-3.7345,-3.7413,-3.6769,-3.6112,-3.5985,-3.5231,-3.4471,-3.4064,-3.3529,-3.3048,-3.258,-3.1041,-2.944,-2.8171,-2.454,-2.1695,-2.06,-0.9097,-0.0869,0.0962,0.9653,1.3698,1.1003,1.3859,1.6163,1.7484,1.8012,2.0222,2.4329,2.4989,2.5158,2.4881,2.6048,2.7409,2.8971,3.0738,3.2313,3.363,3.5484,3.6814,3.7706,3.8518,3.9259,4.0003,4.1196,4.1725,4.1937,4.2995,4.3582,4.3955,-4.1095,-4.11,-4.11,-4.1095,-4.1089,-4.1109,-4.1103,-4.1103,-4.1059,-4.0926,-4.0907,-4.0849,-4.0706,-4.0712,-4.0698,-4.0703,-4.0604,-4.0466,-4.03,-4.0351,-4.0351,-4.0247,-4.0315,-4.0353,-4.0344,-4.0138,-3.9996,-3.9901,-3.9819,-3.9728,-3.9585,-3.9585,-3.9524,-3.9438,-3.9438,-3.9357,-3.9214,-3.9214,-3.9258,-3.932,-3.932,-3.9425,-3.9552,-3.9611,-3.97,-3.9802,-3.977,-3.9831,-3.9909,-3.9889,-3.9849,-3.9811,-3.9891,-3.9891,-3.9891,-3.991,-3.991,-3.989,-3.9869,-3.9868,-3.9907,-4.0101,-4.0072,-3.9868,-3.9451,-3.9073,-3.8836,-3.902,-3.8174,-3.743,-3.7473,-3.6454,-3.5476,-3.5131,-3.4639,-3.4187,-3.3844,-3.1941,-3.0423,-2.9854,-2.528,-2.127,-1.8913,-0.7112,0.1266,0.3418,1.4223,2.0125,1.895,2.0608,2.1322,2.0791,2.1357,2.2955,2.5541,2.6176,2.7054,2.8202,2.9035,3.0239,3.1626,3.3282,3.4405,3.5295,3.6538,3.7515,3.8302,3.9016,3.9783,4.0514,4.1656,4.2121,4.2266,4.3266,4.398,4.443,-4.1096,-4.1096,-4.11,-4.1085,-4.11,-4.1096,-4.1076,-4.1086,-4.1058,-4.0937,-4.0932,-4.0897,-4.077,-4.0745,-4.0764,-4.0742,-4.0729,-4.0692,-4.061,-4.0616,-4.0584,-4.0453,-4.0467,-4.0487,-4.0485,-4.0485,-4.0377,-4.0175,-4.0175,-4.0101,-3.9963,-3.9962,-3.9958,-3.9933,-3.992,-3.9944,-3.9985,-3.9986,-3.9947,-3.9887,-3.9887,-3.9848,-3.9827,-3.9929,-4.0058,-4.0219,-4.0318,-4.048,-4.0617,-4.0617,-4.0571,-4.0538,-4.0559,-4.0519,-4.0482,-4.0488,-4.0447,-4.0376,-4.0361,-4.0376,-4.0381,-4.0442,-4.0485,-4.0462,-4.0386,-4.0177,-4.0055,-4.035,-3.9364,-3.8468,-3.8457,-3.7231,-3.6027,-3.5411,-3.5071,-3.458,-3.3697,-3.1825,-3.058,-3.0676,-2.5691,-2.0243,-1.5032,-0.4857,0.3627,0.8906,1.9598,2.6333,2.7311,2.7365,2.6349,2.415,2.4621,2.5577,2.683,2.7367,2.9233,3.2246,3.2847,3.3572,3.4424,3.566,3.6568,3.7203,3.7589,3.8133,3.8837,3.951,4.0251,4.099,4.199,4.248,4.2698,4.3619,4.4308,4.48,-4.11,-4.1105,-4.1081,-4.1023,-4.1062,-4.109,-4.1021,-4.1058,-4.1066,-4.0996,-4.1046,-4.1047,-4.0976,-4.1,-4.0999,-4.0877,-4.0875,-4.0799,-4.0602,-4.0701,-4.0731,-4.0649,-4.0779,-4.0838,-4.0818,-4.0837,-4.0715,-4.0454,-4.0454,-4.0379,-4.0248,-4.0234,-4.0309,-4.0412,-4.0403,-4.0496,-4.0662,-4.0657,-4.066,-4.066,-4.066,-4.0637,-4.0633,-4.0657,-4.0653,-4.0616,-4.0645,-4.0665,-4.068,-4.0694,-4.0681,-4.0699,-4.0809,-4.0801,-4.0761,-4.082,-4.0781,-4.0716,-4.065,-4.0658,-4.0656,-4.0728,-4.0784,-4.0737,-4.0313,-4.0287,-4.0357,-4.0379,-4.0194,-3.9901,-3.9561,-3.9291,-3.8922,-3.8338,-3.8183,-3.7456,-3.5396,-3.3318,-3.1344,-2.9572,-2.7524,-2.1034,-0.7844,0.0806,1.0027,2.0752,2.9149,3.2167,2.8252,2.808,2.8082,2.8214,2.8485,2.9667,3.1813,3.2213,3.353,3.5701,3.6348,3.5792,3.428,3.5607,3.6276,3.6414,3.7642,3.8541,3.909,3.9969,4.0642,4.1237,4.2092,4.2639,4.3067,4.4252,4.4726,4.4843,-4.1054,-4.1071,-4.1071,-4.1014,-4.1015,-4.1035,-4.0995,-4.1035,-4.1034,-4.0996,-4.1032,-4.1027,-4.0992,-4.1058,-4.1078,-4.1019,-4.1016,-4.0964,-4.0894,-4.0925,-4.0937,-4.0881,-4.0914,-4.0968,-4.0953,-4.0948,-4.0921,-4.0904,-4.0815,-4.0718,-4.0641,-4.0637,-4.0642,-4.066,-4.066,-4.0723,-4.0805,-4.0805,-4.0772,-4.0733,-4.0733,-4.0746,-4.0746,-4.0838,-4.0838,-4.0817,-4.0852,-4.0872,-4.0866,-4.0902,-4.0909,-4.0922,-4.0983,-4.0969,-4.0914,-4.0894,-4.0856,-4.0789,-4.0722,-4.0701,-4.0739,-4.0828,-4.0884,-4.0863,-4.0693,-4.0451,-4.0227,-4.0005,-3.9934,-3.976,-3.9283,-3.9013,-3.8707,-3.8248,-3.8235,-3.7479,-3.531,-3.3442,-3.1108,-2.784,-2.7288,-2.2104,-0.9256,0.1156,1.1904,2.3435,3.3594,3.8117,3.5522,3.4925,3.415,3.3067,3.281,3.2933,3.3465,3.374,3.4671,3.631,3.7419,3.7686,3.7202,3.8107,3.8526,3.8597,3.9179,3.9647,4.0019,4.0797,4.141,4.1871,4.2637,4.3281,4.3911,4.4482,4.4843,4.5109]}]]